Wetterdaten: Mittwoch, 26.07.2017
Datum Zeit Temp. A. Pool Temp. Feuchte A. Luftdruck Regen Wind Richtung Richtung Sonnenschein ET UV Solar Taupunkt Windchill Windben Empfang
26.07.2017 00:00 13,3 C 20,6 C 86 % 1005,9 hPa 0,0 l/m 14,3 km/h (3 Bft) W-SW 246 0 min 0,000 mm 0,0 UV-I 0 W/m 11,0 C 9,4 C 22,5 km/h (4 Bft) 95,12 %
26.07.2017 00:02 13,3 C 20,6 C 86 % 1005,8 hPa 0,0 l/m 15,8 km/h (3 Bft) W 259 0 min 0,000 mm 0,0 UV-I 0 W/m 11,0 C 8,9 C 20,9 km/h (4 Bft) 97,56 %
26.07.2017 00:04 13,3 C 20,6 C 86 % 1005,8 hPa 0,0 l/m 14,3 km/h (3 Bft) S-SW 204 0 min 0,000 mm 0,0 UV-I 0 W/m 11,0 C 9,4 C 22,5 km/h (4 Bft) 95,74 %
26.07.2017 00:06 13,3 C 20,6 C 86 % 1005,8 hPa 0,0 l/m 15,9 km/h (3 Bft) SW 225 0 min 0,000 mm 0,0 UV-I 0 W/m 11,0 C 8,8 C 25,7 km/h (4 Bft) 94,00 %
26.07.2017 00:08 13,3 C 20,6 C 86 % 1005,8 hPa 0,0 l/m 15,8 km/h (3 Bft) W-SW 245 0 min 0,000 mm 0,0 UV-I 0 W/m 11,0 C 8,9 C 22,5 km/h (4 Bft) 93,62 %
26.07.2017 00:10 13,3 C 20,6 C 86 % 1005,8 hPa 0,0 l/m 15,7 km/h (3 Bft) W-SW 250 0 min 0,000 mm 0,0 UV-I 0 W/m 11,0 C 8,9 C 24,1 km/h (4 Bft) 97,87 %
26.07.2017 00:12 13,3 C 20,6 C 86 % 1005,8 hPa 0,0 l/m 15,8 km/h (3 Bft) W 261 0 min 0,000 mm 0,0 UV-I 0 W/m 11,0 C 8,9 C 22,5 km/h (4 Bft) 97,73 %
26.07.2017 00:14 13,3 C 20,6 C 86 % 1005,8 hPa 0,0 l/m 12,1 km/h (2 Bft) SW 231 0 min 0,000 mm 0,0 UV-I 0 W/m 11,0 C 10,3 C 19,3 km/h (3 Bft) 95,24 %
26.07.2017 00:16 13,3 C 20,6 C 86 % 1005,8 hPa 0,0 l/m 11,8 km/h (2 Bft) SW 232 0 min 0,000 mm 0,0 UV-I 0 W/m 11,0 C 10,4 C 19,3 km/h (3 Bft) 94,34 %
26.07.2017 00:18 13,3 C 20,6 C 86 % 1005,8 hPa 0,0 l/m 12,2 km/h (2 Bft) W-SW 250 0 min 0,000 mm 0,0 UV-I 0 W/m 11,0 C 10,2 C 17,7 km/h (3 Bft) 94,74 %
26.07.2017 00:20 13,3 C 20,6 C 86 % 1005,9 hPa 0,0 l/m 9,9 km/h (2 Bft) W-SW 254 0 min 0,000 mm 0,0 UV-I 0 W/m 11,0 C 11,3 C 16,1 km/h (3 Bft) 90,91 %
26.07.2017 00:22 13,3 C 20,6 C 86 % 1005,9 hPa 0,0 l/m 11,7 km/h (2 Bft) S-SW 213 0 min 0,000 mm 0,0 UV-I 0 W/m 11,0 C 10,4 C 20,9 km/h (4 Bft) 95,45 %
26.07.2017 00:24 13,3 C 20,6 C 86 % 1005,9 hPa 0,0 l/m 12,1 km/h (2 Bft) W-SW 252 0 min 0,000 mm 0,0 UV-I 0 W/m 11,0 C 10,3 C 17,7 km/h (3 Bft) 92,45 %
26.07.2017 00:26 13,3 C 20,6 C 86 % 1005,8 hPa 0,0 l/m 15,8 km/h (3 Bft) W 261 0 min 0,000 mm 0,0 UV-I 0 W/m 11,0 C 8,9 C 20,9 km/h (4 Bft) 95,74 %
26.07.2017 00:28 13,3 C 20,6 C 86 % 1005,8 hPa 0,0 l/m 18,0 km/h (3 Bft) SW 232 0 min 0,000 mm 0,0 UV-I 0 W/m 11,0 C 8,1 C 25,7 km/h (4 Bft) 94,92 %
26.07.2017 00:30 13,4 C 20,6 C 86 % 1005,8 hPa 0,0 l/m 16,3 km/h (3 Bft) SW 217 0 min 0,000 mm 0,0 UV-I 0 W/m 11,1 C 8,8 C 20,9 km/h (4 Bft) 92,68 %
26.07.2017 00:32 13,4 C 20,6 C 85 % 1005,8 hPa 0,0 l/m 18,5 km/h (3 Bft) SW 232 0 min 0,000 mm 0,0 UV-I 0 W/m 10,9 C 8,1 C 30,6 km/h (5 Bft) 96,23 %
26.07.2017 00:34 13,4 C 20,6 C 85 % 1005,8 hPa 0,0 l/m 15,9 km/h (3 Bft) SW 229 0 min 0,000 mm 0,0 UV-I 0 W/m 10,9 C 8,9 C 22,5 km/h (4 Bft) 94,74 %
26.07.2017 00:36 13,5 C 20,6 C 85 % 1005,8 hPa 0,0 l/m 18,0 km/h (3 Bft) SW 225 0 min 0,000 mm 0,0 UV-I 0 W/m 11,0 C 8,4 C 24,1 km/h (4 Bft) 94,00 %
26.07.2017 00:38 13,6 C 20,6 C 84 % 1005,8 hPa 0,0 l/m 17,9 km/h (3 Bft) W-SW 238 0 min 0,000 mm 0,0 UV-I 0 W/m 10,9 C 8,5 C 27,4 km/h (4 Bft) 97,37 %
26.07.2017 00:40 13,6 C 20,6 C 84 % 1005,8 hPa 0,0 l/m 12,0 km/h (2 Bft) W-SW 239 0 min 0,000 mm 0,0 UV-I 0 W/m 10,9 C 10,7 C 19,3 km/h (3 Bft) 96,00 %
26.07.2017 00:42 13,6 C 20,6 C 84 % 1005,8 hPa 0,0 l/m 17,1 km/h (3 Bft) W 261 0 min 0,000 mm 0,0 UV-I 0 W/m 10,9 C 8,8 C 25,7 km/h (4 Bft) 97,87 %
26.07.2017 00:44 13,6 C 20,6 C 84 % 1005,8 hPa 0,0 l/m 15,5 km/h (3 Bft) W 268 0 min 0,000 mm 0,0 UV-I 0 W/m 10,9 C 9,3 C 27,4 km/h (4 Bft) 96,43 %
26.07.2017 00:46 13,6 C 20,6 C 83 % 1005,8 hPa 0,0 l/m 15,6 km/h (3 Bft) W 264 0 min 0,000 mm 0,0 UV-I 0 W/m 10,8 C 9,3 C 22,5 km/h (4 Bft) 95,12 %
26.07.2017 00:48 13,7 C 20,6 C 83 % 1005,9 hPa 0,0 l/m 18,7 km/h (3 Bft) W-SW 255 0 min 0,000 mm 0,0 UV-I 0 W/m 10,9 C 8,4 C 27,4 km/h (4 Bft) 97,56 %
26.07.2017 00:50 13,7 C 20,6 C 83 % 1005,9 hPa 0,0 l/m 17,6 km/h (3 Bft) W-SW 253 0 min 0,000 mm 0,0 UV-I 0 W/m 10,9 C 8,8 C 25,7 km/h (4 Bft) 96,43 %
26.07.2017 00:52 13,7 C 20,6 C 83 % 1005,9 hPa 0,0 l/m 19,0 km/h (3 Bft) SW 224 0 min 0,000 mm 0,0 UV-I 0 W/m 10,9 C 8,3 C 24,1 km/h (4 Bft) 97,87 %
26.07.2017 00:54 13,7 C 20,6 C 83 % 1005,9 hPa 0,0 l/m 17,3 km/h (3 Bft) W 266 0 min 0,000 mm 0,0 UV-I 0 W/m 10,9 C 8,9 C 29,0 km/h (5 Bft) 92,00 %
26.07.2017 00:56 13,7 C 20,6 C 83 % 1005,9 hPa 0,0 l/m 14,2 km/h (3 Bft) W-SW 253 0 min 0,000 mm 0,0 UV-I 0 W/m 10,9 C 9,9 C 24,1 km/h (4 Bft) 96,30 %
26.07.2017 00:58 13,7 C 20,6 C 84 % 1006,0 hPa 0,0 l/m 12,1 km/h (2 Bft) W-SW 244 0 min 0,000 mm 0,0 UV-I 0 W/m 11,0 C 10,7 C 16,1 km/h (3 Bft) 96,43 %
26.07.2017 01:00 13,6 C 20,6 C 85 % 1005,9 hPa 0,0 l/m 13,8 km/h (3 Bft) W-SW 238 0 min 0,025 mm 0,0 UV-I 0 W/m 11,1 C 9,9 C 19,3 km/h (3 Bft) 96,43 %
26.07.2017 01:02 13,5 C 20,6 C 85 % 1005,9 hPa 0,0 l/m 17,1 km/h (3 Bft) W-SW 248 0 min 0,000 mm 0,0 UV-I 0 W/m 11,0 C 8,7 C 27,4 km/h (4 Bft) 95,45 %
26.07.2017 01:04 13,4 C 20,6 C 86 % 1005,9 hPa 0,0 l/m 12,2 km/h (2 Bft) W-SW 252 0 min 0,000 mm 0,0 UV-I 0 W/m 11,1 C 10,3 C 17,7 km/h (3 Bft) 95,45 %
26.07.2017 01:06 13,3 C 20,6 C 86 % 1005,8 hPa 0,0 l/m 13,9 km/h (3 Bft) SW 229 0 min 0,000 mm 0,0 UV-I 0 W/m 11,0 C 9,5 C 22,5 km/h (4 Bft) 97,87 %
26.07.2017 01:08 13,3 C 20,6 C 86 % 1005,7 hPa 0,0 l/m 14,0 km/h (3 Bft) W-SW 254 0 min 0,000 mm 0,0 UV-I 0 W/m 11,0 C 9,5 C 19,3 km/h (3 Bft) 95,74 %
26.07.2017 01:10 13,2 C 20,6 C 86 % 1005,7 hPa 0,0 l/m 13,8 km/h (3 Bft) W-SW 257 0 min 0,000 mm 0,0 UV-I 0 W/m 10,9 C 9,5 C 19,3 km/h (3 Bft) 95,45 %
26.07.2017 01:12 13,2 C 20,6 C 86 % 1005,7 hPa 0,0 l/m 10,7 km/h (2 Bft) W-SW 246 0 min 0,000 mm 0,0 UV-I 0 W/m 10,9 C 10,8 C 16,1 km/h (3 Bft) 96,23 %
26.07.2017 01:14 13,2 C 20,6 C 86 % 1005,7 hPa 0,0 l/m 13,2 km/h (3 Bft) SW 227 0 min 0,000 mm 0,0 UV-I 0 W/m 10,9 C 9,7 C 24,1 km/h (4 Bft) 97,56 %
26.07.2017 01:16 13,2 C 20,6 C 86 % 1005,6 hPa 0,0 l/m 18,5 km/h (3 Bft) SW 222 0 min 0,000 mm 0,0 UV-I 0 W/m 10,9 C 7,9 C 25,7 km/h (4 Bft) 98,00 %
26.07.2017 01:18 13,2 C 20,6 C 86 % 1005,6 hPa 0,0 l/m 13,7 km/h (3 Bft) SW 236 0 min 0,000 mm 0,0 UV-I 0 W/m 10,9 C 9,5 C 19,3 km/h (3 Bft) 95,74 %
26.07.2017 01:20 13,2 C 20,6 C 86 % 1005,6 hPa 0,0 l/m 12,5 km/h (3 Bft) SW 227 0 min 0,000 mm 0,0 UV-I 0 W/m 10,9 C 10,0 C 19,3 km/h (3 Bft) 100,00 %
26.07.2017 01:22 13,2 C 20,6 C 86 % 1005,6 hPa 0,0 l/m 16,6 km/h (3 Bft) SW 230 0 min 0,000 mm 0,0 UV-I 0 W/m 10,9 C 8,5 C 22,5 km/h (4 Bft) 97,37 %
26.07.2017 01:24 13,3 C 20,6 C 86 % 1005,5 hPa 0,0 l/m 13,2 km/h (3 Bft) W 271 0 min 0,000 mm 0,0 UV-I 0 W/m 11,0 C 9,8 C 19,3 km/h (3 Bft) 97,73 %
26.07.2017 01:26 13,3 C 20,6 C 86 % 1005,6 hPa 0,0 l/m 13,2 km/h (3 Bft) SW 235 0 min 0,000 mm 0,0 UV-I 0 W/m 11,0 C 9,8 C 19,3 km/h (3 Bft) 96,43 %
26.07.2017 01:28 13,3 C 20,6 C 86 % 1005,6 hPa 0,0 l/m 13,3 km/h (3 Bft) SW 236 0 min 0,000 mm 0,0 UV-I 0 W/m 11,0 C 9,8 C 20,9 km/h (4 Bft) 97,56 %
26.07.2017 01:30 13,3 C 20,6 C 86 % 1005,5 hPa 0,0 l/m 16,7 km/h (3 Bft) W-SW 238 0 min 0,000 mm 0,0 UV-I 0 W/m 11,0 C 8,5 C 27,4 km/h (4 Bft) 98,00 %
26.07.2017 01:32 13,3 C 20,6 C 86 % 1005,6 hPa 0,0 l/m 15,2 km/h (3 Bft) W-SW 248 0 min 0,000 mm 0,0 UV-I 0 W/m 11,0 C 9,1 C 20,9 km/h (4 Bft) 100,00 %
26.07.2017 01:34 13,3 C 20,6 C 86 % 1005,6 hPa 0,0 l/m 10,9 km/h (2 Bft) SW 216 0 min 0,000 mm 0,0 UV-I 0 W/m 11,0 C 10,8 C 17,7 km/h (3 Bft) 98,08 %
26.07.2017 01:36 13,3 C 20,6 C 86 % 1005,5 hPa 0,0 l/m 19,7 km/h (3 Bft) W-SW 238 0 min 0,000 mm 0,0 UV-I 0 W/m 11,0 C 7,6 C 25,7 km/h (4 Bft) 97,62 %
26.07.2017 01:38 13,4 C 20,6 C 85 % 1005,5 hPa 0,0 l/m 15,2 km/h (3 Bft) SW 217 0 min 0,000 mm 0,0 UV-I 0 W/m 10,9 C 9,2 C 24,1 km/h (4 Bft) 98,00 %
26.07.2017 01:40 13,4 C 20,6 C 85 % 1005,5 hPa 0,0 l/m 20,6 km/h (4 Bft) SW 234 0 min 0,000 mm 0,0 UV-I 0 W/m 10,9 C 7,5 C 29,0 km/h (5 Bft) 100,00 %
26.07.2017 01:42 13,4 C 20,6 C 85 % 1005,6 hPa 0,0 l/m 16,3 km/h (3 Bft) SW 224 0 min 0,000 mm 0,0 UV-I 0 W/m 10,9 C 8,8 C 24,1 km/h (4 Bft) 97,56 %
26.07.2017 01:44 13,4 C 20,6 C 86 % 1005,5 hPa 0,4 l/m 19,8 km/h (3 Bft) W-SW 246 0 min 0,000 mm 0,0 UV-I 0 W/m 11,1 C 7,7 C 29,0 km/h (5 Bft) 100,00 %
26.07.2017 01:46 13,4 C 20,6 C 87 % 1005,5 hPa 0,0 l/m 15,0 km/h (3 Bft) W-SW 239 0 min 0,000 mm 0,0 UV-I 0 W/m 11,3 C 9,3 C 19,3 km/h (3 Bft) 94,74 %
26.07.2017 01:48 13,3 C 20,6 C 87 % 1005,5 hPa 0,0 l/m 14,6 km/h (3 Bft) S-SO 165 0 min 0,000 mm 0,0 UV-I 0 W/m 11,2 C 9,3 C 22,5 km/h (4 Bft) 98,00 %
26.07.2017 01:50 13,2 C 20,6 C 87 % 1005,5 hPa 0,0 l/m 17,3 km/h (3 Bft) SW 229 0 min 0,000 mm 0,0 UV-I 0 W/m 11,1 C 8,2 C 27,4 km/h (4 Bft) 98,00 %
26.07.2017 01:52 13,1 C 20,6 C 88 % 1005,5 hPa 0,0 l/m 15,3 km/h (3 Bft) SW 225 0 min 0,000 mm 0,0 UV-I 0 W/m 11,2 C 8,8 C 22,5 km/h (4 Bft) 100,00 %
26.07.2017 01:54 13,1 C 20,6 C 88 % 1005,4 hPa 0,0 l/m 9,2 km/h (2 Bft) SW 234 0 min 0,000 mm 0,0 UV-I 0 W/m 11,2 C 11,4 C 14,5 km/h (3 Bft) 100,00 %
26.07.2017 01:56 13,0 C 20,6 C 88 % 1005,4 hPa 0,0 l/m 10,8 km/h (2 Bft) W-SW 240 0 min 0,000 mm 0,0 UV-I 0 W/m 11,1 C 10,5 C 17,7 km/h (3 Bft) 100,00 %
26.07.2017 01:58 12,9 C 20,6 C 89 % 1005,4 hPa 0,0 l/m 13,7 km/h (3 Bft) W-SW 240 0 min 0,000 mm 0,0 UV-I 0 W/m 11,1 C 9,1 C 22,5 km/h (4 Bft) 100,00 %
26.07.2017 02:00 12,9 C 20,6 C 89 % 1005,4 hPa 0,0 l/m 11,7 km/h (2 Bft) W-SW 253 0 min 0,026 mm 0,0 UV-I 0 W/m 11,1 C 10,0 C 17,7 km/h (3 Bft) 98,21 %
26.07.2017 02:02 12,8 C 20,6 C 89 % 1005,3 hPa 0,0 l/m 10,6 km/h (2 Bft) SW 228 0 min 0,000 mm 0,0 UV-I 0 W/m 11,0 C 10,4 C 19,3 km/h (3 Bft) 97,73 %
26.07.2017 02:04 12,8 C 20,6 C 89 % 1005,3 hPa 0,0 l/m 11,4 km/h (2 Bft) S-SW 210 0 min 0,000 mm 0,0 UV-I 0 W/m 11,0 C 10,0 C 20,9 km/h (4 Bft) 96,00 %
26.07.2017 02:06 12,8 C 20,6 C 89 % 1005,3 hPa 0,0 l/m 11,6 km/h (2 Bft) S-SW 211 0 min 0,000 mm 0,0 UV-I 0 W/m 11,0 C 9,9 C 17,7 km/h (3 Bft) 96,00 %
26.07.2017 02:08 12,8 C 20,6 C 90 % 1005,3 hPa 0,0 l/m 10,9 km/h (2 Bft) W-SW 251 0 min 0,000 mm 0,0 UV-I 0 W/m 11,2 C 10,2 C 14,5 km/h (3 Bft) 97,37 %
26.07.2017 02:10 12,8 C 20,6 C 90 % 1005,2 hPa 0,0 l/m 10,8 km/h (2 Bft) S 188 0 min 0,000 mm 0,0 UV-I 0 W/m 11,2 C 10,3 C 17,7 km/h (3 Bft) 98,21 %
26.07.2017 02:12 12,7 C 20,6 C 90 % 1005,2 hPa 0,0 l/m 11,1 km/h (2 Bft) SW 232 0 min 0,000 mm 0,0 UV-I 0 W/m 11,1 C 10,0 C 20,9 km/h (4 Bft) 97,62 %
26.07.2017 02:14 12,8 C 20,6 C 90 % 1005,2 hPa 0,0 l/m 10,7 km/h (2 Bft) S-SW 192 0 min 0,000 mm 0,0 UV-I 0 W/m 11,2 C 10,3 C 17,7 km/h (3 Bft) 96,00 %
26.07.2017 02:16 12,7 C 20,6 C 90 % 1005,2 hPa 0,0 l/m 10,3 km/h (2 Bft) S-SW 207 0 min 0,000 mm 0,0 UV-I 0 W/m 11,1 C 10,4 C 16,1 km/h (3 Bft) 97,37 %
26.07.2017 02:19 12,8 C 20,6 C 90 % 1005,2 hPa 0,0 l/m 12,7 km/h (3 Bft) S-SW 200 0 min 0,000 mm 0,0 UV-I 0 W/m 11,2 C 9,4 C 19,3 km/h (3 Bft) 96,20 %
26.07.2017 02:20 12,8 C 20,6 C 90 % 1005,2 hPa 0,0 l/m 15,1 km/h (3 Bft) S-SW 211 0 min 0,000 mm 0,0 UV-I 0 W/m 11,2 C 8,5 C 19,3 km/h (3 Bft) 100,00 %
26.07.2017 02:22 12,8 C 20,6 C 90 % 1005,2 hPa 0,0 l/m 11,4 km/h (2 Bft) S-SW 204 0 min 0,000 mm 0,0 UV-I 0 W/m 11,2 C 10,0 C 17,7 km/h (3 Bft) 94,34 %
26.07.2017 02:24 12,8 C 20,6 C 89 % 1005,2 hPa 0,0 l/m 9,9 km/h (2 Bft) SW 215 0 min 0,000 mm 0,0 UV-I 0 W/m 11,0 C 10,7 C 16,1 km/h (3 Bft) 97,14 %
26.07.2017 02:26 12,8 C 20,6 C 89 % 1005,2 hPa 0,0 l/m 10,0 km/h (2 Bft) SW 218 0 min 0,000 mm 0,0 UV-I 0 W/m 11,0 C 10,7 C 17,7 km/h (3 Bft) 96,23 %
26.07.2017 02:28 12,8 C 20,6 C 89 % 1005,1 hPa 0,0 l/m 9,0 km/h (2 Bft) SW 223 0 min 0,000 mm 0,0 UV-I 0 W/m 11,0 C 11,2 C 12,9 km/h (3 Bft) 96,23 %
26.07.2017 02:30 12,8 C 20,6 C 89 % 1005,1 hPa 0,0 l/m 9,0 km/h (2 Bft) W-SW 241 0 min 0,000 mm 0,0 UV-I 0 W/m 11,0 C 11,2 C 16,1 km/h (3 Bft) 96,00 %
26.07.2017 02:32 12,9 C 20,6 C 89 % 1005,1 hPa 0,0 l/m 14,9 km/h (3 Bft) SW 230 0 min 0,000 mm 0,0 UV-I 0 W/m 11,1 C 8,7 C 24,1 km/h (4 Bft) 94,74 %
26.07.2017 02:34 12,9 C 20,6 C 89 % 1005,1 hPa 0,0 l/m 8,8 km/h (2 Bft) S 187 0 min 0,000 mm 0,0 UV-I 0 W/m 11,1 C 11,4 C 17,7 km/h (3 Bft) 95,74 %
26.07.2017 02:36 12,9 C 20,6 C 89 % 1005,1 hPa 0,0 l/m 10,1 km/h (2 Bft) SW 234 0 min 0,000 mm 0,0 UV-I 0 W/m 11,1 C 10,7 C 16,1 km/h (3 Bft) 98,21 %
26.07.2017 02:38 12,9 C 20,6 C 89 % 1005,1 hPa 0,0 l/m 13,9 km/h (3 Bft) SW 224 0 min 0,000 mm 0,0 UV-I 0 W/m 11,1 C 9,1 C 19,3 km/h (3 Bft) 97,56 %
26.07.2017 02:40 13,0 C 20,6 C 89 % 1005,1 hPa 0,0 l/m 11,5 km/h (2 Bft) SW 215 0 min 0,000 mm 0,0 UV-I 0 W/m 11,2 C 10,2 C 17,7 km/h (3 Bft) 100,00 %
26.07.2017 02:42 13,0 C 20,6 C 89 % 1005,1 hPa 0,0 l/m 12,1 km/h (2 Bft) W-SW 242 0 min 0,000 mm 0,0 UV-I 0 W/m 11,2 C 9,9 C 20,9 km/h (4 Bft) 97,37 %
26.07.2017 02:44 13,0 C 20,6 C 88 % 1005,1 hPa 0,0 l/m 12,5 km/h (3 Bft) SW 228 0 min 0,000 mm 0,0 UV-I 0 W/m 11,1 C 9,8 C 19,3 km/h (3 Bft) 98,21 %
26.07.2017 02:46 13,1 C 20,6 C 88 % 1005,1 hPa 0,0 l/m 9,7 km/h (2 Bft) S-SW 206 0 min 0,000 mm 0,0 UV-I 0 W/m 11,2 C 11,2 C 17,7 km/h (3 Bft) 95,74 %
26.07.2017 02:48 13,1 C 20,6 C 88 % 1005,0 hPa 0,0 l/m 12,6 km/h (3 Bft) S-SW 210 0 min 0,000 mm 0,0 UV-I 0 W/m 11,2 C 9,8 C 19,3 km/h (3 Bft) 100,00 %
26.07.2017 02:50 13,1 C 20,6 C 88 % 1005,1 hPa 0,0 l/m 10,5 km/h (2 Bft) W-SW 237 0 min 0,000 mm 0,0 UV-I 0 W/m 11,2 C 10,8 C 16,1 km/h (3 Bft) 98,00 %
26.07.2017 02:52 13,1 C 20,6 C 88 % 1005,1 hPa 0,0 l/m 10,1 km/h (2 Bft) SW 232 0 min 0,000 mm 0,0 UV-I 0 W/m 11,2 C 11,0 C 14,5 km/h (3 Bft) 97,73 %
26.07.2017 02:54 13,1 C 20,6 C 89 % 1005,0 hPa 0,0 l/m 8,4 km/h (2 Bft) S-SW 203 0 min 0,000 mm 0,0 UV-I 0 W/m 11,3 C 11,9 C 14,5 km/h (3 Bft) 100,00 %
26.07.2017 02:56 13,1 C 20,6 C 89 % 1004,9 hPa 0,0 l/m 8,3 km/h (2 Bft) S-SW 213 0 min 0,000 mm 0,0 UV-I 0 W/m 11,3 C 11,9 C 12,9 km/h (3 Bft) 96,23 %
26.07.2017 02:58 13,1 C 20,6 C 89 % 1004,9 hPa 0,0 l/m 12,3 km/h (3 Bft) SW 220 0 min 0,000 mm 0,0 UV-I 0 W/m 11,3 C 10,0 C 17,7 km/h (3 Bft) 100,00 %
26.07.2017 03:00 13,1 C 20,6 C 89 % 1004,8 hPa 0,0 l/m 7,7 km/h (2 Bft) S-SW 210 0 min 0,025 mm 0,0 UV-I 0 W/m 11,3 C 12,3 C 11,3 km/h (2 Bft) 98,46 %
26.07.2017 03:02 13,1 C 20,6 C 89 % 1004,8 hPa 0,0 l/m 10,5 km/h (2 Bft) SW 228 0 min 0,000 mm 0,0 UV-I 0 W/m 11,3 C 10,8 C 17,7 km/h (3 Bft) 97,73 %
26.07.2017 03:04 13,1 C 20,6 C 89 % 1004,8 hPa 0,0 l/m 10,1 km/h (2 Bft) SW 234 0 min 0,000 mm 0,0 UV-I 0 W/m 11,3 C 11,0 C 16,1 km/h (3 Bft) 100,00 %
26.07.2017 03:06 13,0 C 20,6 C 89 % 1004,8 hPa 0,0 l/m 9,1 km/h (2 Bft) SW 219 0 min 0,000 mm 0,0 UV-I 0 W/m 11,2 C 11,4 C 14,5 km/h (3 Bft) 97,37 %
26.07.2017 03:08 13,0 C 20,6 C 89 % 1004,7 hPa 0,0 l/m 13,2 km/h (3 Bft) W-SW 256 0 min 0,000 mm 0,0 UV-I 0 W/m 11,2 C 9,5 C 19,3 km/h (3 Bft) 98,00 %
26.07.2017 03:10 13,1 C 20,6 C 89 % 1004,7 hPa 0,0 l/m 11,8 km/h (2 Bft) SW 228 0 min 0,000 mm 0,0 UV-I 0 W/m 11,3 C 10,2 C 17,7 km/h (3 Bft) 100,00 %
26.07.2017 03:12 13,0 C 20,6 C 89 % 1004,7 hPa 0,0 l/m 10,9 km/h (2 Bft) SW 234 0 min 0,000 mm 0,0 UV-I 0 W/m 11,2 C 10,5 C 17,7 km/h (3 Bft) 96,43 %
26.07.2017 03:14 13,0 C 20,6 C 89 % 1004,7 hPa 0,0 l/m 13,4 km/h (3 Bft) W-SW 244 0 min 0,000 mm 0,0 UV-I 0 W/m 11,2 C 9,4 C 19,3 km/h (3 Bft) 100,00 %
26.07.2017 03:16 13,0 C 20,6 C 89 % 1004,7 hPa 0,0 l/m 13,3 km/h (3 Bft) W-SW 248 0 min 0,000 mm 0,0 UV-I 0 W/m 11,2 C 9,4 C 20,9 km/h (4 Bft) 98,00 %
26.07.2017 03:18 13,0 C 20,6 C 89 % 1004,7 hPa 0,0 l/m 13,9 km/h (3 Bft) S-SW 206 0 min 0,000 mm 0,0 UV-I 0 W/m 11,2 C 9,2 C 20,9 km/h (4 Bft) 97,87 %
26.07.2017 03:20 13,0 C 20,6 C 89 % 1004,7 hPa 0,0 l/m 12,6 km/h (3 Bft) SW 234 0 min 0,000 mm 0,0 UV-I 0 W/m 11,2 C 9,7 C 17,7 km/h (3 Bft) 97,87 %
26.07.2017 03:22 13,0 C 20,6 C 89 % 1004,7 hPa 0,0 l/m 12,6 km/h (3 Bft) W-SW 238 0 min 0,000 mm 0,0 UV-I 0 W/m 11,2 C 9,7 C 20,9 km/h (4 Bft) 97,56 %
26.07.2017 03:24 13,0 C 20,6 C 89 % 1004,6 hPa 0,0 l/m 16,0 km/h (3 Bft) SW 221 0 min 0,000 mm 0,0 UV-I 0 W/m 11,2 C 8,4 C 24,1 km/h (4 Bft) 100,00 %
26.07.2017 03:26 13,0 C 20,6 C 89 % 1004,6 hPa 0,0 l/m 17,3 km/h (3 Bft) SW 221 0 min 0,000 mm 0,0 UV-I 0 W/m 11,2 C 8,0 C 27,4 km/h (4 Bft) 98,11 %
26.07.2017 03:28 13,0 C 20,6 C 89 % 1004,6 hPa 0,0 l/m 14,0 km/h (3 Bft) W-SW 241 0 min 0,000 mm 0,0 UV-I 0 W/m 11,2 C 9,1 C 19,3 km/h (3 Bft) 100,00 %
26.07.2017 03:30 13,0 C 20,6 C 89 % 1004,6 hPa 0,0 l/m 14,8 km/h (3 Bft) S 188 0 min 0,000 mm 0,0 UV-I 0 W/m 11,2 C 8,8 C 19,3 km/h (3 Bft) 98,08 %
26.07.2017 03:32 13,0 C 20,6 C 89 % 1004,5 hPa 0,0 l/m 16,3 km/h (3 Bft) W 268 0 min 0,000 mm 0,0 UV-I 0 W/m 11,2 C 8,3 C 25,7 km/h (4 Bft) 100,00 %
26.07.2017 03:34 12,9 C 20,6 C 89 % 1004,5 hPa 0,2 l/m 18,1 km/h (3 Bft) SW 231 0 min 0,000 mm 0,0 UV-I 0 W/m 11,1 C 7,6 C 25,7 km/h (4 Bft) 100,00 %
26.07.2017 03:36 12,9 C 20,6 C 89 % 1004,5 hPa 0,0 l/m 19,3 km/h (3 Bft) SW 218 0 min 0,000 mm 0,0 UV-I 0 W/m 11,1 C 7,2 C 29,0 km/h (5 Bft) 100,00 %
26.07.2017 03:38 12,9 C 20,6 C 89 % 1004,5 hPa 0,0 l/m 16,4 km/h (3 Bft) W-SW 249 0 min 0,000 mm 0,0 UV-I 0 W/m 11,1 C 8,2 C 24,1 km/h (4 Bft) 98,11 %
26.07.2017 03:40 12,9 C 20,6 C 89 % 1004,5 hPa 0,0 l/m 16,1 km/h (3 Bft) W 269 0 min 0,000 mm 0,0 UV-I 0 W/m 11,1 C 8,3 C 24,1 km/h (4 Bft) 97,73 %
26.07.2017 03:42 12,9 C 20,6 C 89 % 1004,4 hPa 0,0 l/m 16,2 km/h (3 Bft) SW 234 0 min 0,000 mm 0,0 UV-I 0 W/m 11,1 C 8,2 C 25,7 km/h (4 Bft) 95,12 %
26.07.2017 03:44 12,9 C 20,6 C 90 % 1004,5 hPa 0,0 l/m 15,3 km/h (3 Bft) S 190 0 min 0,000 mm 0,0 UV-I 0 W/m 11,3 C 8,5 C 24,1 km/h (4 Bft) 97,56 %
26.07.2017 03:46 12,9 C 20,6 C 90 % 1004,4 hPa 0,0 l/m 18,2 km/h (3 Bft) SW 235 0 min 0,000 mm 0,0 UV-I 0 W/m 11,3 C 7,6 C 25,7 km/h (4 Bft) 98,00 %
26.07.2017 03:48 12,9 C 20,6 C 90 % 1004,3 hPa 0,2 l/m 15,0 km/h (3 Bft) S-SW 200 0 min 0,000 mm 0,0 UV-I 0 W/m 11,3 C 8,6 C 25,7 km/h (4 Bft) 93,62 %
26.07.2017 03:50 12,8 C 20,6 C 90 % 1004,4 hPa 0,0 l/m 15,8 km/h (3 Bft) W-SW 240 0 min 0,000 mm 0,0 UV-I 0 W/m 11,2 C 8,2 C 24,1 km/h (4 Bft) 100,00 %
26.07.2017 03:52 12,8 C 20,6 C 90 % 1004,3 hPa 0,0 l/m 13,6 km/h (3 Bft) S-SW 213 0 min 0,000 mm 0,0 UV-I 0 W/m 11,2 C 9,1 C 20,9 km/h (4 Bft) 97,87 %
26.07.2017 03:54 12,8 C 20,6 C 90 % 1004,4 hPa 0,0 l/m 14,6 km/h (3 Bft) W-SW 237 0 min 0,000 mm 0,0 UV-I 0 W/m 11,2 C 8,7 C 19,3 km/h (3 Bft) 95,74 %
26.07.2017 03:56 12,8 C 20,6 C 90 % 1004,3 hPa 0,0 l/m 14,3 km/h (3 Bft) SW 221 0 min 0,000 mm 0,0 UV-I 0 W/m 11,2 C 8,8 C 22,5 km/h (4 Bft) 100,00 %
26.07.2017 03:58 12,8 C 20,6 C 90 % 1004,3 hPa 0,0 l/m 13,1 km/h (3 Bft) SW 223 0 min 0,000 mm 0,0 UV-I 0 W/m 11,2 C 9,3 C 17,7 km/h (3 Bft) 96,43 %
26.07.2017 04:00 12,8 C 20,6 C 90 % 1004,3 hPa 0,0 l/m 12,7 km/h (3 Bft) SW 220 0 min 0,026 mm 0,0 UV-I 0 W/m 11,2 C 9,4 C 20,9 km/h (4 Bft) 98,11 %
26.07.2017 04:02 12,8 C 20,6 C 90 % 1004,3 hPa 0,0 l/m 12,8 km/h (3 Bft) W-SW 242 0 min 0,000 mm 0,0 UV-I 0 W/m 11,2 C 9,4 C 20,9 km/h (4 Bft) 96,88 %
26.07.2017 04:04 12,8 C 20,6 C 91 % 1004,3 hPa 0,0 l/m 15,6 km/h (3 Bft) SW 234 0 min 0,000 mm 0,0 UV-I 0 W/m 11,4 C 8,3 C 22,5 km/h (4 Bft) 96,23 %
26.07.2017 04:06 12,7 C 20,6 C 91 % 1004,3 hPa 0,0 l/m 18,3 km/h (3 Bft) SW 236 0 min 0,000 mm 0,0 UV-I 0 W/m 11,3 C 7,3 C 27,4 km/h (4 Bft) 97,56 %
26.07.2017 04:08 12,7 C 20,6 C 91 % 1004,2 hPa 0,0 l/m 11,6 km/h (2 Bft) SW 221 0 min 0,000 mm 0,0 UV-I 0 W/m 11,3 C 9,8 C 17,7 km/h (3 Bft) 92,31 %
26.07.2017 04:10 12,7 C 20,6 C 91 % 1004,2 hPa 0,0 l/m 10,9 km/h (2 Bft) SW 227 0 min 0,000 mm 0,0 UV-I 0 W/m 11,3 C 10,1 C 17,7 km/h (3 Bft) 96,55 %
26.07.2017 04:12 12,7 C 20,6 C 91 % 1004,2 hPa 0,0 l/m 13,1 km/h (3 Bft) SW 234 0 min 0,000 mm 0,0 UV-I 0 W/m 11,3 C 9,2 C 19,3 km/h (3 Bft) 92,86 %
26.07.2017 04:14 12,7 C 20,6 C 91 % 1004,1 hPa 0,0 l/m 14,6 km/h (3 Bft) SW 224 0 min 0,000 mm 0,0 UV-I 0 W/m 11,3 C 8,6 C 20,9 km/h (4 Bft) 96,23 %
26.07.2017 04:16 12,7 C 20,0 C 91 % 1004,2 hPa 0,0 l/m 15,2 km/h (3 Bft) SW 231 0 min 0,000 mm 0,0 UV-I 0 W/m 11,3 C 8,3 C 22,5 km/h (4 Bft) 97,37 %
26.07.2017 04:18 12,7 C 20,0 C 91 % 1004,1 hPa 0,0 l/m 15,2 km/h (3 Bft) S-SW 213 0 min 0,000 mm 0,0 UV-I 0 W/m 11,3 C 8,3 C 27,4 km/h (4 Bft) 94,34 %
26.07.2017 04:20 12,7 C 20,0 C 91 % 1004,2 hPa 0,0 l/m 13,4 km/h (3 Bft) W-SW 250 0 min 0,000 mm 0,0 UV-I 0 W/m 11,3 C 9,0 C 20,9 km/h (4 Bft) 92,68 %
26.07.2017 04:22 12,7 C 20,0 C 91 % 1004,1 hPa 0,0 l/m 13,0 km/h (3 Bft) SW 230 0 min 0,000 mm 0,0 UV-I 0 W/m 11,3 C 9,2 C 19,3 km/h (3 Bft) 95,45 %
26.07.2017 04:24 12,7 C 20,0 C 91 % 1004,1 hPa 0,0 l/m 14,2 km/h (3 Bft) W-SW 252 0 min 0,000 mm 0,0 UV-I 0 W/m 11,3 C 8,7 C 22,5 km/h (4 Bft) 88,68 %
26.07.2017 04:26 12,7 C 20,0 C 91 % 1004,1 hPa 0,0 l/m 15,3 km/h (3 Bft) SW 218 0 min 0,000 mm 0,0 UV-I 0 W/m 11,3 C 8,3 C 20,9 km/h (4 Bft) 96,23 %
26.07.2017 04:28 12,7 C 20,0 C 91 % 1004,1 hPa 0,0 l/m 13,3 km/h (3 Bft) W-SW 248 0 min 0,000 mm 0,0 UV-I 0 W/m 11,3 C 9,1 C 19,3 km/h (3 Bft) 92,68 %
26.07.2017 04:30 12,7 C 20,0 C 91 % 1004,1 hPa 0,0 l/m 12,8 km/h (3 Bft) SW 219 0 min 0,000 mm 0,0 UV-I 0 W/m 11,3 C 9,3 C 17,7 km/h (3 Bft) 95,74 %
26.07.2017 04:32 12,7 C 20,0 C 91 % 1004,0 hPa 0,0 l/m 12,0 km/h (2 Bft) S-SW 211 0 min 0,000 mm 0,0 UV-I 0 W/m 11,3 C 9,6 C 16,1 km/h (3 Bft) 93,62 %
26.07.2017 04:34 12,7 C 20,0 C 91 % 1004,1 hPa 0,0 l/m 13,4 km/h (3 Bft) W-SW 237 0 min 0,000 mm 0,0 UV-I 0 W/m 11,3 C 9,0 C 19,3 km/h (3 Bft) 93,62 %
26.07.2017 04:36 12,7 C 20,0 C 91 % 1004,1 hPa 0,0 l/m 13,0 km/h (3 Bft) SW 232 0 min 0,000 mm 0,0 UV-I 0 W/m 11,3 C 9,2 C 19,3 km/h (3 Bft) 95,12 %
26.07.2017 04:38 12,6 C 20,0 C 91 % 1004,0 hPa 0,0 l/m 11,5 km/h (2 Bft) S-SW 209 0 min 0,000 mm 0,0 UV-I 0 W/m 11,2 C 9,7 C 17,7 km/h (3 Bft) 94,34 %
26.07.2017 04:40 12,6 C 20,0 C 91 % 1004,0 hPa 0,0 l/m 8,2 km/h (2 Bft) SW 232 0 min 0,000 mm 0,0 UV-I 0 W/m 11,2 C 11,5 C 14,5 km/h (3 Bft) 93,18 %
26.07.2017 04:42 12,6 C 20,0 C 91 % 1004,0 hPa 0,0 l/m 10,9 km/h (2 Bft) W-SW 246 0 min 0,000 mm 0,0 UV-I 0 W/m 11,2 C 10,0 C 17,7 km/h (3 Bft) 94,00 %
26.07.2017 04:44 12,6 C 20,0 C 91 % 1004,0 hPa 0,0 l/m 11,2 km/h (2 Bft) SW 223 0 min 0,000 mm 0,0 UV-I 0 W/m 11,2 C 9,9 C 16,1 km/h (3 Bft) 96,00 %
26.07.2017 04:46 12,6 C 20,0 C 91 % 1004,0 hPa 0,0 l/m 10,0 km/h (2 Bft) SW 219 0 min 0,000 mm 0,0 UV-I 0 W/m 11,2 C 10,5 C 14,5 km/h (3 Bft) 97,44 %
26.07.2017 04:48 12,6 C 20,0 C 91 % 1004,0 hPa 0,0 l/m 8,4 km/h (2 Bft) W-SW 248 0 min 0,000 mm 0,0 UV-I 0 W/m 11,2 C 11,3 C 12,9 km/h (3 Bft) 93,88 %
26.07.2017 04:50 12,6 C 20,0 C 91 % 1003,9 hPa 0,0 l/m 9,7 km/h (2 Bft) W-SW 240 0 min 0,000 mm 0,0 UV-I 0 W/m 11,2 C 10,6 C 12,9 km/h (3 Bft) 95,24 %
26.07.2017 04:52 12,6 C 20,0 C 92 % 1003,9 hPa 0,0 l/m 8,8 km/h (2 Bft) S-SW 211 0 min 0,000 mm 0,0 UV-I 0 W/m 11,3 C 11,1 C 14,5 km/h (3 Bft) 96,43 %
26.07.2017 04:54 12,6 C 20,0 C 92 % 1004,0 hPa 0,0 l/m 7,6 km/h (2 Bft) W-SW 257 0 min 0,000 mm 0,0 UV-I 0 W/m 11,3 C 11,8 C 11,3 km/h (2 Bft) 97,87 %
26.07.2017 04:56 12,6 C 20,0 C 92 % 1004,0 hPa 0,0 l/m 8,3 km/h (2 Bft) SW 227 0 min 0,000 mm 0,0 UV-I 0 W/m 11,3 C 11,4 C 14,5 km/h (3 Bft) 98,00 %
26.07.2017 04:58 12,5 C 20,0 C 92 % 1003,9 hPa 0,0 l/m 7,1 km/h (2 Bft) SW 223 0 min 0,000 mm 0,0 UV-I 0 W/m 11,2 C 12,0 C 11,3 km/h (2 Bft) 95,74 %
26.07.2017 05:00 12,5 C 20,0 C 92 % 1003,9 hPa 0,0 l/m 9,1 km/h (2 Bft) S-SW 213 0 min 0,025 mm 0,0 UV-I 0 W/m 11,2 C 10,8 C 16,1 km/h (3 Bft) 94,74 %
26.07.2017 05:02 12,5 C 20,0 C 92 % 1003,9 hPa 0,2 l/m 9,0 km/h (2 Bft) SW 218 0 min 0,000 mm 0,0 UV-I 0 W/m 11,2 C 10,9 C 14,5 km/h (3 Bft) 98,00 %
26.07.2017 05:04 12,5 C 20,0 C 92 % 1003,9 hPa 0,0 l/m 7,9 km/h (2 Bft) W 273 0 min 0,000 mm 0,0 UV-I 0 W/m 11,2 C 11,5 C 9,7 km/h (2 Bft) 95,12 %
26.07.2017 05:06 12,5 C 20,0 C 92 % 1003,9 hPa 0,0 l/m 7,4 km/h (2 Bft) W-SW 239 0 min 0,000 mm 0,0 UV-I 0 W/m 11,2 C 11,9 C 11,3 km/h (2 Bft) 100,00 %
26.07.2017 05:08 12,5 C 20,0 C 93 % 1003,9 hPa 0,0 l/m 10,4 km/h (2 Bft) SW 217 0 min 0,000 mm 0,0 UV-I 0 W/m 11,4 C 10,2 C 17,7 km/h (3 Bft) 97,56 %
26.07.2017 05:10 12,4 C 20,0 C 93 % 1003,9 hPa 0,0 l/m 9,9 km/h (2 Bft) S-SW 211 0 min 0,000 mm 0,0 UV-I 0 W/m 11,3 C 10,3 C 16,1 km/h (3 Bft) 100,00 %
26.07.2017 05:12 12,4 C 20,0 C 93 % 1003,9 hPa 0,0 l/m 10,7 km/h (2 Bft) SW 217 0 min 0,000 mm 0,0 UV-I 0 W/m 11,3 C 9,9 C 14,5 km/h (3 Bft) 97,56 %
26.07.2017 05:14 12,5 C 20,0 C 93 % 1003,9 hPa 0,0 l/m 9,1 km/h (2 Bft) S-SW 213 0 min 0,000 mm 0,0 UV-I 0 W/m 11,4 C 10,8 C 17,7 km/h (3 Bft) 100,00 %
26.07.2017 05:16 12,5 C 20,0 C 93 % 1003,9 hPa 0,0 l/m 9,6 km/h (2 Bft) S 188 0 min 0,000 mm 0,0 UV-I 0 W/m 11,4 C 10,6 C 17,7 km/h (3 Bft) 100,00 %
26.07.2017 05:18 12,5 C 20,0 C 93 % 1003,9 hPa 0,0 l/m 7,2 km/h (2 Bft) S-SW 209 0 min 0,000 mm 0,0 UV-I 0 W/m 11,4 C 12,0 C 12,9 km/h (3 Bft) 96,23 %
26.07.2017 05:20 12,5 C 20,0 C 93 % 1003,8 hPa 0,0 l/m 7,7 km/h (2 Bft) SW 232 0 min 0,000 mm 0,0 UV-I 0 W/m 11,4 C 11,7 C 11,3 km/h (2 Bft) 97,73 %
26.07.2017 05:22 12,5 C 20,0 C 93 % 1003,9 hPa 0,0 l/m 6,8 km/h (2 Bft) S-SW 201 0 min 0,000 mm 0,0 UV-I 3 W/m 11,4 C 12,2 C 11,3 km/h (2 Bft) 100,00 %
26.07.2017 05:24 12,5 C 20,0 C 93 % 1003,8 hPa 0,0 l/m 8,7 km/h (2 Bft) W-SW 246 0 min 0,000 mm 0,0 UV-I 5 W/m 11,4 C 11,1 C 12,9 km/h (3 Bft) 97,73 %
26.07.2017 05:26 12,5 C 20,0 C 93 % 1003,9 hPa 0,0 l/m 9,6 km/h (2 Bft) SW 234 0 min 0,000 mm 0,0 UV-I 5 W/m 11,4 C 10,6 C 12,9 km/h (3 Bft) 100,00 %
26.07.2017 05:28 12,5 C 20,0 C 93 % 1003,8 hPa 0,2 l/m 8,7 km/h (2 Bft) SW 223 0 min 0,000 mm 0,0 UV-I 6 W/m 11,4 C 11,1 C 12,9 km/h (3 Bft) 98,44 %
26.07.2017 05:30 12,5 C 20,0 C 93 % 1003,8 hPa 0,0 l/m 8,2 km/h (2 Bft) SW 223 0 min 0,000 mm 0,0 UV-I 7 W/m 11,4 C 11,4 C 11,3 km/h (2 Bft) 100,00 %
26.07.2017 05:32 12,5 C 20,0 C 93 % 1003,8 hPa 0,0 l/m 9,4 km/h (2 Bft) S-SW 211 0 min 0,000 mm 0,0 UV-I 7 W/m 11,4 C 10,7 C 16,1 km/h (3 Bft) 98,00 %
26.07.2017 05:34 12,5 C 20,0 C 92 % 1003,8 hPa 0,0 l/m 9,7 km/h (2 Bft) SW 219 0 min 0,000 mm 0,0 UV-I 7 W/m 11,2 C 10,5 C 14,5 km/h (3 Bft) 100,00 %
26.07.2017 05:36 12,5 C 20,0 C 92 % 1003,8 hPa 0,0 l/m 9,9 km/h (2 Bft) S-SW 195 0 min 0,000 mm 0,0 UV-I 7 W/m 11,2 C 10,4 C 16,1 km/h (3 Bft) 100,00 %
26.07.2017 05:38 12,5 C 20,0 C 92 % 1003,7 hPa 0,0 l/m 12,7 km/h (3 Bft) S-SW 201 0 min 0,000 mm 0,0 UV-I 5 W/m 11,2 C 9,1 C 20,9 km/h (4 Bft) 100,00 %
26.07.2017 05:40 12,5 C 20,0 C 92 % 1003,7 hPa 0,0 l/m 14,1 km/h (3 Bft) SW 216 0 min 0,000 mm 0,0 UV-I 5 W/m 11,2 C 8,5 C 22,5 km/h (4 Bft) 98,31 %
26.07.2017 05:42 12,6 C 20,0 C 92 % 1003,7 hPa 0,0 l/m 10,1 km/h (2 Bft) SW 214 0 min 0,000 mm 0,0 UV-I 6 W/m 11,3 C 10,4 C 17,7 km/h (3 Bft) 100,00 %
26.07.2017 05:44 12,6 C 20,0 C 92 % 1003,6 hPa 0,0 l/m 10,8 km/h (2 Bft) SW 222 0 min 0,000 mm 0,0 UV-I 7 W/m 11,3 C 10,1 C 19,3 km/h (3 Bft) 98,11 %
26.07.2017 05:46 12,6 C 20,0 C 91 % 1003,6 hPa 0,0 l/m 10,2 km/h (2 Bft) S-SW 192 0 min 0,000 mm 0,0 UV-I 9 W/m 11,2 C 10,4 C 16,1 km/h (3 Bft) 96,00 %
26.07.2017 05:48 12,6 C 20,0 C 92 % 1003,5 hPa 0,0 l/m 10,8 km/h (2 Bft) SW 216 0 min 0,000 mm 0,0 UV-I 11 W/m 11,3 C 10,1 C 19,3 km/h (3 Bft) 100,00 %
26.07.2017 05:50 12,6 C 20,0 C 92 % 1003,5 hPa 0,0 l/m 11,8 km/h (2 Bft) S-SO 167 0 min 0,000 mm 0,0 UV-I 12 W/m 11,3 C 9,6 C 19,3 km/h (3 Bft) 98,11 %
26.07.2017 05:52 12,6 C 20,0 C 92 % 1003,5 hPa 0,0 l/m 9,6 km/h (2 Bft) W-SW 242 0 min 0,000 mm 0,0 UV-I 14 W/m 11,3 C 10,7 C 14,5 km/h (3 Bft) 100,00 %
26.07.2017 05:54 12,6 C 20,0 C 91 % 1003,4 hPa 0,0 l/m 10,4 km/h (2 Bft) SW 217 0 min 0,000 mm 0,0 UV-I 16 W/m 11,2 C 10,3 C 20,9 km/h (4 Bft) 98,11 %
26.07.2017 05:56 12,7 C 20,0 C 91 % 1003,4 hPa 0,0 l/m 16,1 km/h (3 Bft) S 169 0 min 0,000 mm 0,0 UV-I 16 W/m 11,3 C 8,0 C 33,8 km/h (5 Bft) 100,00 %
26.07.2017 05:58 12,7 C 20,0 C 91 % 1003,4 hPa 0,0 l/m 14,8 km/h (3 Bft) SW 225 0 min 0,000 mm 0,0 UV-I 14 W/m 11,3 C 8,5 C 24,1 km/h (4 Bft) 98,00 %
26.07.2017 06:00 12,8 C 20,0 C 90 % 1003,4 hPa 0,0 l/m 13,5 km/h (3 Bft) W-SW 244 0 min 0,025 mm 0,0 UV-I 14 W/m 11,2 C 9,1 C 20,9 km/h (4 Bft) 98,00 %
26.07.2017 06:02 12,8 C 20,0 C 90 % 1003,4 hPa 0,0 l/m 17,1 km/h (3 Bft) S-SW 209 0 min 0,000 mm 0,0 UV-I 14 W/m 11,2 C 7,8 C 29,0 km/h (5 Bft) 100,00 %
26.07.2017 06:04 12,8 C 20,0 C 90 % 1003,4 hPa 0,2 l/m 17,1 km/h (3 Bft) SW 216 0 min 0,000 mm 0,0 UV-I 13 W/m 11,2 C 7,8 C 29,0 km/h (5 Bft) 98,00 %
26.07.2017 06:06 12,9 C 20,0 C 89 % 1003,4 hPa 0,0 l/m 19,2 km/h (3 Bft) S 173 0 min 0,000 mm 0,0 UV-I 14 W/m 11,1 C 7,3 C 37,0 km/h (5 Bft) 100,00 %
26.07.2017 06:08 12,9 C 20,0 C 89 % 1003,4 hPa 0,0 l/m 17,7 km/h (3 Bft) SW 225 0 min 0,000 mm 0,0 UV-I 16 W/m 11,1 C 7,7 C 25,7 km/h (4 Bft) 96,00 %
26.07.2017 06:10 12,9 C 20,0 C 88 % 1003,4 hPa 0,0 l/m 21,1 km/h (4 Bft) W-SW 238 0 min 0,000 mm 0,0 UV-I 17 W/m 11,0 C 6,7 C 35,4 km/h (5 Bft) 98,08 %
26.07.2017 06:12 13,0 C 20,0 C 88 % 1003,3 hPa 0,0 l/m 17,6 km/h (3 Bft) SW 215 0 min 0,000 mm 0,0 UV-I 18 W/m 11,1 C 7,9 C 25,7 km/h (4 Bft) 97,92 %
26.07.2017 06:14 13,0 C 20,0 C 88 % 1003,3 hPa 0,0 l/m 16,0 km/h (3 Bft) SW 230 0 min 0,000 mm 0,0 UV-I 19 W/m 11,1 C 8,4 C 29,0 km/h (5 Bft) 94,29 %
26.07.2017 06:16 13,0 C 20,0 C 88 % 1003,3 hPa 0,0 l/m 20,7 km/h (4 Bft) SW 225 0 min 0,000 mm 0,0 UV-I 21 W/m 11,1 C 7,0 C 30,6 km/h (5 Bft) 92,00 %
26.07.2017 06:18 13,0 C 20,0 C 87 % 1003,3 hPa 0,0 l/m 18,5 km/h (3 Bft) S-SW 212 0 min 0,000 mm 0,0 UV-I 21 W/m 10,9 C 7,6 C 27,4 km/h (4 Bft) 92,00 %
26.07.2017 06:20 13,0 C 20,0 C 88 % 1003,2 hPa 0,0 l/m 14,9 km/h (3 Bft) S-SW 211 0 min 0,000 mm 0,0 UV-I 20 W/m 11,1 C 8,8 C 24,1 km/h (4 Bft) 92,45 %
26.07.2017 06:22 13,0 C 20,0 C 87 % 1003,2 hPa 0,0 l/m 17,8 km/h (3 Bft) SW 225 0 min 0,000 mm 0,0 UV-I 20 W/m 10,9 C 7,8 C 25,7 km/h (4 Bft) 97,56 %
26.07.2017 06:24 13,0 C 20,0 C 87 % 1003,2 hPa 0,0 l/m 21,8 km/h (4 Bft) S-SW 213 0 min 0,000 mm 0,0 UV-I 19 W/m 10,9 C 6,7 C 33,8 km/h (5 Bft) 95,45 %
26.07.2017 06:26 13,0 C 20,0 C 87 % 1003,0 hPa 0,2 l/m 20,5 km/h (4 Bft) SW 236 0 min 0,000 mm 0,0 UV-I 18 W/m 10,9 C 7,0 C 32,2 km/h (5 Bft) 98,11 %
26.07.2017 06:28 12,9 C 20,0 C 87 % 1003,1 hPa 0,0 l/m 16,9 km/h (3 Bft) S-SW 207 0 min 0,000 mm 0,0 UV-I 18 W/m 10,8 C 8,0 C 27,4 km/h (4 Bft) 93,62 %
26.07.2017 06:30 12,9 C 20,0 C 87 % 1003,0 hPa 0,0 l/m 21,3 km/h (4 Bft) S-SW 202 0 min 0,000 mm 0,0 UV-I 21 W/m 10,8 C 6,7 C 35,4 km/h (5 Bft) 97,14 %
26.07.2017 06:32 12,9 C 20,0 C 87 % 1003,1 hPa 0,0 l/m 18,3 km/h (3 Bft) S-SW 209 0 min 0,000 mm 0,0 UV-I 22 W/m 10,8 C 7,5 C 29,0 km/h (5 Bft) 96,23 %
26.07.2017 06:34 12,8 C 20,0 C 87 % 1003,0 hPa 0,0 l/m 21,6 km/h (4 Bft) S-SW 213 0 min 0,000 mm 0,0 UV-I 20 W/m 10,7 C 6,5 C 37,0 km/h (5 Bft) 97,56 %
26.07.2017 06:36 12,8 C 20,0 C 87 % 1003,0 hPa 0,2 l/m 23,1 km/h (4 Bft) SW 227 0 min 0,000 mm 0,0 UV-I 19 W/m 10,7 C 6,1 C 41,8 km/h (6 Bft) 90,48 %
26.07.2017 06:38 12,8 C 20,0 C 87 % 1003,1 hPa 0,0 l/m 22,7 km/h (4 Bft) S 188 0 min 0,000 mm 0,0 UV-I 18 W/m 10,7 C 6,2 C 30,6 km/h (5 Bft) 97,56 %
26.07.2017 06:40 12,7 C 20,0 C 87 % 1003,0 hPa 0,2 l/m 26,2 km/h (4 Bft) SW 227 0 min 0,000 mm 0,0 UV-I 18 W/m 10,6 C 5,2 C 40,2 km/h (6 Bft) 95,52 %
26.07.2017 06:42 12,6 C 20,0 C 87 % 1003,0 hPa 0,0 l/m 20,6 km/h (4 Bft) W-SW 240 0 min 0,000 mm 0,0 UV-I 18 W/m 10,5 C 6,5 C 30,6 km/h (5 Bft) 95,74 %
26.07.2017 06:44 12,6 C 20,0 C 88 % 1003,0 hPa 0,2 l/m 20,3 km/h (4 Bft) SW 226 0 min 0,000 mm 0,0 UV-I 19 W/m 10,7 C 6,6 C 30,6 km/h (5 Bft) 97,73 %
26.07.2017 06:46 12,5 C 20,0 C 88 % 1003,0 hPa 0,0 l/m 20,5 km/h (4 Bft) SW 234 0 min 0,000 mm 0,0 UV-I 20 W/m 10,6 C 6,4 C 33,8 km/h (5 Bft) 96,30 %
26.07.2017 06:48 12,4 C 20,0 C 89 % 1003,1 hPa 0,2 l/m 19,1 km/h (3 Bft) W-SW 237 0 min 0,000 mm 0,0 UV-I 21 W/m 10,6 C 6,7 C 32,2 km/h (5 Bft) 95,71 %
26.07.2017 06:50 12,3 C 20,0 C 89 % 1003,1 hPa 0,0 l/m 18,9 km/h (3 Bft) W-SW 248 0 min 0,000 mm 0,0 UV-I 23 W/m 10,5 C 6,6 C 32,2 km/h (5 Bft) 97,78 %
26.07.2017 06:52 12,3 C 20,0 C 89 % 1003,1 hPa 0,2 l/m 19,1 km/h (3 Bft) SW 232 0 min 0,000 mm 0,0 UV-I 23 W/m 10,5 C 6,5 C 25,7 km/h (4 Bft) 97,73 %
26.07.2017 06:54 12,3 C 20,0 C 90 % 1003,0 hPa 0,2 l/m 17,4 km/h (3 Bft) SW 230 0 min 0,000 mm 0,0 UV-I 20 W/m 10,7 C 7,1 C 25,7 km/h (4 Bft) 95,45 %
26.07.2017 06:56 12,2 C 20,0 C 90 % 1002,9 hPa 0,2 l/m 17,5 km/h (3 Bft) SW 214 0 min 0,000 mm 0,0 UV-I 17 W/m 10,6 C 6,9 C 25,7 km/h (4 Bft) 96,23 %
26.07.2017 06:58 12,2 C 20,0 C 90 % 1002,8 hPa 0,4 l/m 16,7 km/h (3 Bft) S-SO 159 0 min 0,000 mm 0,0 UV-I 18 W/m 10,6 C 7,2 C 27,4 km/h (4 Bft) 97,73 %
26.07.2017 07:00 12,1 C 20,0 C 90 % 1002,7 hPa 0,2 l/m 12,9 km/h (3 Bft) S-SO 164 0 min 0,000 mm 0,0 UV-I 20 W/m 10,5 C 8,5 C 19,3 km/h (3 Bft) 97,87 %
26.07.2017 07:02 12,1 C 20,0 C 90 % 1002,7 hPa 0,0 l/m 11,0 km/h (2 Bft) S-SW 200 0 min 0,026 mm 0,0 UV-I 24 W/m 10,5 C 9,4 C 17,7 km/h (3 Bft) 100,00 %
26.07.2017 07:04 12,1 C 20,0 C 91 % 1002,8 hPa 0,0 l/m 10,4 km/h (2 Bft) S-SO 168 0 min 0,000 mm 0,0 UV-I 27 W/m 10,7 C 9,7 C 20,9 km/h (4 Bft) 98,11 %
26.07.2017 07:06 12,0 C 20,0 C 91 % 1002,6 hPa 0,2 l/m 11,0 km/h (2 Bft) S 190 0 min 0,000 mm 0,0 UV-I 28 W/m 10,6 C 9,3 C 19,3 km/h (3 Bft) 100,00 %
26.07.2017 07:08 12,0 C 20,0 C 91 % 1002,7 hPa 0,0 l/m 12,2 km/h (2 Bft) S-SW 211 0 min 0,000 mm 0,0 UV-I 25 W/m 10,6 C 8,7 C 19,3 km/h (3 Bft) 98,11 %
26.07.2017 07:10 12,0 C 20,0 C 91 % 1002,7 hPa 0,2 l/m 13,4 km/h (3 Bft) S-SW 199 0 min 0,000 mm 0,0 UV-I 23 W/m 10,6 C 8,2 C 24,1 km/h (4 Bft) 100,00 %
26.07.2017 07:12 11,9 C 20,0 C 91 % 1002,7 hPa 0,0 l/m 11,8 km/h (2 Bft) S 181 0 min 0,000 mm 0,0 UV-I 23 W/m 10,5 C 8,8 C 20,9 km/h (4 Bft) 95,74 %
26.07.2017 07:14 11,9 C 20,0 C 91 % 1002,7 hPa 0,2 l/m 13,1 km/h (3 Bft) SW 223 0 min 0,000 mm 0,0 UV-I 23 W/m 10,5 C 8,2 C 24,1 km/h (4 Bft) 97,37 %
26.07.2017 07:16 11,9 C 20,0 C 91 % 1002,6 hPa 0,0 l/m 15,8 km/h (3 Bft) SW 215 0 min 0,000 mm 0,0 UV-I 23 W/m 10,5 C 7,1 C 25,7 km/h (4 Bft) 100,00 %
26.07.2017 07:18 11,9 C 20,0 C 91 % 1002,6 hPa 0,0 l/m 13,7 km/h (3 Bft) S-SO 155 0 min 0,000 mm 0,0 UV-I 25 W/m 10,5 C 8,0 C 24,1 km/h (4 Bft) 96,88 %
26.07.2017 07:20 11,9 C 20,0 C 91 % 1002,6 hPa 0,0 l/m 17,9 km/h (3 Bft) S-SW 194 0 min 0,000 mm 0,0 UV-I 27 W/m 10,5 C 6,4 C 35,4 km/h (5 Bft) 100,00 %
26.07.2017 07:22 12,0 C 20,0 C 91 % 1002,7 hPa 0,0 l/m 18,1 km/h (3 Bft) S-SW 198 0 min 0,000 mm 0,0 UV-I 33 W/m 10,6 C 6,5 C 30,6 km/h (5 Bft) 97,87 %
26.07.2017 07:24 12,1 C 20,0 C 91 % 1002,7 hPa 0,0 l/m 19,0 km/h (3 Bft) S 174 0 min 0,000 mm 0,0 UV-I 37 W/m 10,7 C 6,3 C 38,6 km/h (5 Bft) 98,11 %
26.07.2017 07:26 12,1 C 20,0 C 91 % 1002,8 hPa 0,0 l/m 17,4 km/h (3 Bft) SW 216 0 min 0,000 mm 0,0 UV-I 37 W/m 10,7 C 6,8 C 33,8 km/h (5 Bft) 97,44 %
26.07.2017 07:28 12,1 C 20,0 C 91 % 1002,7 hPa 0,0 l/m 20,6 km/h (4 Bft) SW 216 0 min 0,000 mm 0,0 UV-I 32 W/m 10,7 C 5,8 C 33,8 km/h (5 Bft) 100,00 %
26.07.2017 07:30 12,1 C 20,0 C 90 % 1002,8 hPa 0,2 l/m 19,3 km/h (3 Bft) SW 217 0 min 0,000 mm 0,0 UV-I 28 W/m 10,5 C 6,2 C 40,2 km/h (6 Bft) 100,00 %
26.07.2017 07:32 12,1 C 20,0 C 90 % 1002,7 hPa 0,0 l/m 24,1 km/h (4 Bft) W 270 0 min 0,000 mm 0,0 UV-I 26 W/m 10,5 C 4,9 C 37,0 km/h (5 Bft) 97,56 %
26.07.2017 07:34 12,2 C 20,0 C 90 % 1002,8 hPa 0,0 l/m 21,1 km/h (4 Bft) SW 224 0 min 0,000 mm 0,0 UV-I 24 W/m 10,6 C 5,8 C 30,6 km/h (5 Bft) 100,00 %
26.07.2017 07:36 12,2 C 20,0 C 90 % 1002,9 hPa 0,0 l/m 22,2 km/h (4 Bft) W 266 0 min 0,000 mm 0,0 UV-I 23 W/m 10,6 C 5,5 C 35,4 km/h (5 Bft) 97,56 %
26.07.2017 07:38 12,2 C 20,0 C 90 % 1002,9 hPa 0,0 l/m 18,6 km/h (3 Bft) S-SW 211 0 min 0,000 mm 0,0 UV-I 26 W/m 10,6 C 6,6 C 38,6 km/h (5 Bft) 96,23 %
26.07.2017 07:40 12,2 C 20,0 C 89 % 1002,9 hPa 0,0 l/m 17,7 km/h (3 Bft) SW 230 0 min 0,000 mm 0,0 UV-I 31 W/m 10,4 C 6,8 C 29,0 km/h (5 Bft) 97,87 %
26.07.2017 07:42 12,2 C 20,0 C 89 % 1003,0 hPa 0,0 l/m 19,8 km/h (3 Bft) SW 221 0 min 0,000 mm 0,0 UV-I 34 W/m 10,4 C 6,2 C 35,4 km/h (5 Bft) 100,00 %
26.07.2017 07:44 12,2 C 20,0 C 89 % 1002,9 hPa 0,0 l/m 28,0 km/h (4 Bft) SW 236 0 min 0,000 mm 0,0 UV-I 39 W/m 10,4 C 4,1 C 41,8 km/h (6 Bft) 97,14 %
26.07.2017 07:46 12,3 C 20,0 C 89 % 1002,8 hPa 0,0 l/m 19,8 km/h (3 Bft) S-SW 194 0 min 0,000 mm 0,0 UV-I 47 W/m 10,5 C 6,3 C 33,8 km/h (5 Bft) 100,00 %
26.07.2017 07:48 12,3 C 20,0 C 89 % 1002,9 hPa 0,0 l/m 16,6 km/h (3 Bft) S-SW 209 0 min 0,000 mm 0,0 UV-I 50 W/m 10,5 C 7,3 C 27,4 km/h (4 Bft) 98,21 %
26.07.2017 07:50 12,3 C 20,0 C 89 % 1002,9 hPa 0,0 l/m 21,6 km/h (4 Bft) S-SW 211 0 min 0,000 mm 0,0 UV-I 53 W/m 10,5 C 5,8 C 37,0 km/h (5 Bft) 95,12 %
26.07.2017 07:52 12,3 C 20,0 C 89 % 1002,9 hPa 0,0 l/m 18,7 km/h (3 Bft) SW 219 0 min 0,000 mm 0,0 UV-I 50 W/m 10,5 C 6,7 C 27,4 km/h (4 Bft) 98,21 %
26.07.2017 07:54 12,3 C 20,0 C 89 % 1002,9 hPa 0,0 l/m 16,9 km/h (3 Bft) S-SW 207 0 min 0,000 mm 0,0 UV-I 45 W/m 10,5 C 7,2 C 27,4 km/h (4 Bft) 97,37 %
26.07.2017 07:56 12,3 C 20,0 C 90 % 1003,0 hPa 0,0 l/m 18,2 km/h (3 Bft) W-SW 244 0 min 0,000 mm 0,0 UV-I 40 W/m 10,7 C 6,8 C 27,4 km/h (4 Bft) 93,62 %
26.07.2017 07:58 12,3 C 20,0 C 90 % 1002,9 hPa 0,0 l/m 17,7 km/h (3 Bft) W-SW 252 0 min 0,000 mm 0,0 UV-I 36 W/m 10,7 C 7,0 C 25,7 km/h (4 Bft) 92,86 %
26.07.2017 08:00 12,3 C 20,0 C 90 % 1002,9 hPa 0,0 l/m 19,2 km/h (3 Bft) S-SW 202 0 min 0,000 mm 0,0 UV-I 41 W/m 10,7 C 6,5 C 30,6 km/h (5 Bft) 97,56 %
26.07.2017 08:02 12,3 C 20,0 C 90 % 1003,0 hPa 0,0 l/m 17,3 km/h (3 Bft) SW 232 0 min 0,025 mm 0,0 UV-I 48 W/m 10,7 C 7,1 C 24,1 km/h (4 Bft) 95,24 %
26.07.2017 08:04 12,3 C 19,4 C 90 % 1003,0 hPa 0,0 l/m 14,9 km/h (3 Bft) S-SW 213 0 min 0,000 mm 0,0 UV-I 55 W/m 10,7 C 8,0 C 25,7 km/h (4 Bft) 97,56 %
26.07.2017 08:06 12,3 C 19,4 C 90 % 1003,1 hPa 0,0 l/m 19,5 km/h (3 Bft) S 186 0 min 0,000 mm 0,0 UV-I 57 W/m 10,7 C 6,4 C 30,6 km/h (5 Bft) 96,43 %
26.07.2017 08:08 12,3 C 19,4 C 90 % 1003,0 hPa 0,0 l/m 17,3 km/h (3 Bft) SW 217 0 min 0,000 mm 0,0 UV-I 70 W/m 10,7 C 7,1 C 29,0 km/h (5 Bft) 97,73 %
26.07.2017 08:10 12,3 C 19,4 C 90 % 1002,9 hPa 0,0 l/m 15,3 km/h (3 Bft) S 169 0 min 0,000 mm 0,0 UV-I 87 W/m 10,7 C 7,8 C 22,5 km/h (4 Bft) 93,62 %
26.07.2017 08:12 12,4 C 19,4 C 90 % 1003,0 hPa 0,0 l/m 21,7 km/h (4 Bft) S-SW 205 0 min 0,000 mm 0,0 UV-I 108 W/m 10,8 C 5,9 C 32,2 km/h (5 Bft) 97,73 %
26.07.2017 08:14 12,4 C 19,4 C 90 % 1002,9 hPa 0,0 l/m 20,9 km/h (4 Bft) S 185 0 min 0,000 mm 0,0 UV-I 120 W/m 10,8 C 6,1 C 32,2 km/h (5 Bft) 94,64 %
26.07.2017 08:16 12,4 C 19,4 C 90 % 1002,9 hPa 0,0 l/m 18,4 km/h (3 Bft) W 271 0 min 0,000 mm 0,0 UV-I 122 W/m 10,8 C 6,9 C 29,0 km/h (5 Bft) 92,00 %
26.07.2017 08:18 12,5 C 19,4 C 90 % 1002,9 hPa 0,0 l/m 19,0 km/h (3 Bft) W-SW 237 0 min 0,000 mm 0,5 UV-I 149 W/m 10,9 C 6,8 C 27,4 km/h (4 Bft) 95,12 %
26.07.2017 08:20 12,6 C 19,4 C 90 % 1003,0 hPa 0,0 l/m 17,9 km/h (3 Bft) S-SW 200 0 min 0,000 mm 0,5 UV-I 151 W/m 11,0 C 7,3 C 25,7 km/h (4 Bft) 92,45 %
26.07.2017 08:22 12,6 C 19,4 C 90 % 1003,0 hPa 0,0 l/m 19,0 km/h (3 Bft) SW 215 0 min 0,000 mm 0,5 UV-I 135 W/m 11,0 C 6,9 C 27,4 km/h (4 Bft) 92,68 %
26.07.2017 08:24 12,6 C 19,4 C 90 % 1002,9 hPa 0,0 l/m 18,6 km/h (3 Bft) W-SW 248 0 min 0,000 mm 0,5 UV-I 149 W/m 11,0 C 7,1 C 35,4 km/h (5 Bft) 92,00 %
26.07.2017 08:26 12,6 C 19,4 C 90 % 1003,0 hPa 0,0 l/m 20,6 km/h (4 Bft) S-SW 207 0 min 0,000 mm 0,6 UV-I 164 W/m 11,0 C 6,5 C 30,6 km/h (5 Bft) 94,00 %
26.07.2017 08:28 12,7 C 19,4 C 90 % 1003,0 hPa 0,0 l/m 18,5 km/h (3 Bft) W-SW 244 0 min 0,000 mm 0,6 UV-I 164 W/m 11,1 C 7,2 C 25,7 km/h (4 Bft) 92,11 %
26.07.2017 08:30 12,7 C 19,4 C 90 % 1003,0 hPa 0,0 l/m 17,1 km/h (3 Bft) SW 229 0 min 0,000 mm 0,6 UV-I 155 W/m 11,1 C 7,7 C 25,7 km/h (4 Bft) 95,74 %
26.07.2017 08:32 12,7 C 19,4 C 90 % 1003,0 hPa 0,0 l/m 16,9 km/h (3 Bft) W-SW 250 0 min 0,000 mm 0,6 UV-I 164 W/m 11,1 C 7,7 C 27,4 km/h (4 Bft) 94,34 %
26.07.2017 08:34 12,8 C 19,4 C 90 % 1003,0 hPa 0,0 l/m 19,5 km/h (3 Bft) SW 235 0 min 0,000 mm 0,6 UV-I 181 W/m 11,2 C 7,0 C 27,4 km/h (4 Bft) 95,12 %
26.07.2017 08:36 12,8 C 19,4 C 90 % 1003,1 hPa 0,0 l/m 18,1 km/h (3 Bft) SW 217 0 min 0,000 mm 0,7 UV-I 206 W/m 11,2 C 7,5 C 32,2 km/h (5 Bft) 92,68 %
26.07.2017 08:38 12,8 C 19,4 C 90 % 1003,0 hPa 0,0 l/m 16,2 km/h (3 Bft) S-SW 202 0 min 0,000 mm 0,6 UV-I 188 W/m 11,2 C 8,1 C 29,0 km/h (5 Bft) 92,45 %
26.07.2017 08:40 12,8 C 20,0 C 90 % 1003,1 hPa 0,0 l/m 16,4 km/h (3 Bft) SW 214 0 min 0,000 mm 0,6 UV-I 160 W/m 11,2 C 8,0 C 25,7 km/h (4 Bft) 94,00 %
26.07.2017 08:42 12,9 C 19,4 C 90 % 1003,1 hPa 0,0 l/m 18,0 km/h (3 Bft) S 181 0 min 0,000 mm 0,6 UV-I 154 W/m 11,3 C 7,6 C 32,2 km/h (5 Bft) 89,36 %
26.07.2017 08:44 12,9 C 19,4 C 89 % 1003,0 hPa 0,0 l/m 20,3 km/h (4 Bft) SW 234 0 min 0,000 mm 0,6 UV-I 142 W/m 11,1 C 6,9 C 30,6 km/h (5 Bft) 96,00 %
26.07.2017 08:46 12,9 C 19,4 C 89 % 1003,1 hPa 0,0 l/m 19,8 km/h (3 Bft) S-SW 210 0 min 0,000 mm 0,7 UV-I 145 W/m 11,1 C 7,1 C 27,4 km/h (4 Bft) 93,62 %
26.07.2017 08:48 12,9 C 19,4 C 89 % 1003,1 hPa 0,0 l/m 19,5 km/h (3 Bft) SW 216 0 min 0,000 mm 0,8 UV-I 184 W/m 11,1 C 7,2 C 33,8 km/h (5 Bft) 94,87 %
26.07.2017 08:50 13,0 C 19,4 C 89 % 1003,1 hPa 0,0 l/m 18,0 km/h (3 Bft) S-SW 202 0 min 0,000 mm 0,9 UV-I 217 W/m 11,2 C 7,8 C 24,1 km/h (4 Bft) 98,11 %
26.07.2017 08:52 13,1 C 20,0 C 89 % 1003,2 hPa 0,0 l/m 18,3 km/h (3 Bft) S 190 2 min 0,000 mm 1,1 UV-I 347 W/m 11,3 C 7,8 C 29,0 km/h (5 Bft) 95,12 %
26.07.2017 08:54 13,2 C 20,0 C 89 % 1003,1 hPa 0,0 l/m 18,9 km/h (3 Bft) W-SW 240 2 min 0,000 mm 1,0 UV-I 328 W/m 11,4 C 7,7 C 27,4 km/h (4 Bft) 98,11 %
26.07.2017 08:56 13,3 C 19,4 C 89 % 1003,2 hPa 0,0 l/m 18,5 km/h (3 Bft) SW 227 0 min 0,000 mm 0,8 UV-I 207 W/m 11,5 C 8,0 C 27,4 km/h (4 Bft) 96,00 %
26.07.2017 08:58 13,3 C 19,4 C 88 % 1003,5 hPa 0,0 l/m 22,1 km/h (4 Bft) W-SW 242 0 min 0,000 mm 0,7 UV-I 157 W/m 11,4 C 7,0 C 33,8 km/h (5 Bft) 97,56 %
26.07.2017 09:00 13,3 C 19,4 C 89 % 1003,3 hPa 0,0 l/m 14,4 km/h (3 Bft) W-SW 238 0 min 0,102 mm 0,7 UV-I 157 W/m 11,5 C 9,4 C 24,1 km/h (4 Bft) 95,45 %
26.07.2017 09:02 13,3 C 19,4 C 89 % 1003,3 hPa 0,0 l/m 24,1 km/h (4 Bft) W 260 0 min 0,000 mm 0,8 UV-I 232 W/m 11,5 C 6,5 C 37,0 km/h (5 Bft) 94,34 %
26.07.2017 09:04 13,3 C 19,4 C 89 % 1003,3 hPa 0,0 l/m 21,9 km/h (4 Bft) S 186 0 min 0,000 mm 0,9 UV-I 273 W/m 11,5 C 7,0 C 32,2 km/h (5 Bft) 95,45 %
26.07.2017 09:06 13,4 C 20,0 C 89 % 1003,2 hPa 0,0 l/m 18,0 km/h (3 Bft) W-NW 286 0 min 0,000 mm 0,8 UV-I 230 W/m 11,6 C 8,3 C 30,6 km/h (5 Bft) 100,00 %
26.07.2017 09:08 13,4 C 19,4 C 89 % 1003,2 hPa 0,0 l/m 20,1 km/h (4 Bft) S-SW 198 0 min 0,000 mm 0,8 UV-I 214 W/m 11,6 C 7,7 C 35,4 km/h (5 Bft) 100,00 %
26.07.2017 09:10 13,4 C 19,4 C 88 % 1003,2 hPa 0,0 l/m 17,2 km/h (3 Bft) W-SW 254 0 min 0,000 mm 0,7 UV-I 162 W/m 11,5 C 8,5 C 27,4 km/h (4 Bft) 100,00 %
26.07.2017 09:12 13,4 C 19,4 C 88 % 1003,3 hPa 0,0 l/m 25,7 km/h (4 Bft) SW 228 0 min 0,000 mm 0,8 UV-I 132 W/m 11,5 C 6,3 C 37,0 km/h (5 Bft) 100,00 %
26.07.2017 09:14 13,3 C 19,4 C 88 % 1003,3 hPa 0,0 l/m 21,6 km/h (4 Bft) SW 221 0 min 0,000 mm 0,8 UV-I 136 W/m 11,4 C 7,1 C 32,2 km/h (5 Bft) 100,00 %
26.07.2017 09:16 13,3 C 19,4 C 88 % 1003,3 hPa 0,0 l/m 22,5 km/h (4 Bft) S-SW 213 0 min 0,000 mm 1,0 UV-I 192 W/m 11,4 C 6,9 C 30,6 km/h (5 Bft) 97,01 %
26.07.2017 09:18 13,4 C 19,4 C 89 % 1003,2 hPa 0,0 l/m 23,5 km/h (4 Bft) S-SW 194 2 min 0,000 mm 1,3 UV-I 333 W/m 11,6 C 6,8 C 37,0 km/h (5 Bft) 100,00 %
26.07.2017 09:20 13,4 C 20,0 C 88 % 1003,3 hPa 0,0 l/m 20,3 km/h (4 Bft) W-SW 237 2 min 0,000 mm 1,4 UV-I 430 W/m 11,5 C 7,6 C 38,6 km/h (5 Bft) 98,11 %
26.07.2017 09:22 13,7 C 20,0 C 89 % 1003,2 hPa 0,0 l/m 20,2 km/h (4 Bft) SW 227 2 min 0,000 mm 2,0 UV-I 457 W/m 11,9 C 8,0 C 27,4 km/h (4 Bft) 97,44 %
26.07.2017 09:24 13,9 C 19,4 C 89 % 1003,3 hPa 0,0 l/m 17,9 km/h (3 Bft) SW 225 2 min 0,000 mm 1,5 UV-I 416 W/m 12,1 C 8,9 C 30,6 km/h (5 Bft) 97,56 %
26.07.2017 09:26 14,1 C 19,4 C 88 % 1003,2 hPa 0,0 l/m 20,3 km/h (4 Bft) SW 225 0 min 0,000 mm 1,3 UV-I 313 W/m 12,1 C 8,5 C 29,0 km/h (5 Bft) 100,00 %
26.07.2017 09:28 14,0 C 19,4 C 87 % 1003,2 hPa 0,0 l/m 21,6 km/h (4 Bft) SW 229 0 min 0,000 mm 1,3 UV-I 308 W/m 11,9 C 8,0 C 32,2 km/h (5 Bft) 98,31 %
26.07.2017 09:30 14,0 C 19,4 C 87 % 1003,3 hPa 0,0 l/m 18,7 km/h (3 Bft) W-SW 250 0 min 0,000 mm 1,3 UV-I 306 W/m 11,9 C 8,8 C 27,4 km/h (4 Bft) 94,34 %
26.07.2017 09:32 14,0 C 19,4 C 87 % 1003,3 hPa 0,0 l/m 18,0 km/h (3 Bft) S-SW 207 0 min 0,000 mm 1,2 UV-I 285 W/m 11,9 C 9,0 C 29,0 km/h (5 Bft) 94,74 %
26.07.2017 09:34 14,1 C 19,4 C 87 % 1003,3 hPa 0,0 l/m 23,3 km/h (4 Bft) W-SW 252 0 min 0,000 mm 1,1 UV-I 281 W/m 12,0 C 7,8 C 35,4 km/h (5 Bft) 92,68 %
26.07.2017 09:36 14,0 C 19,4 C 86 % 1003,3 hPa 0,0 l/m 23,1 km/h (4 Bft) SW 227 0 min 0,000 mm 1,1 UV-I 264 W/m 11,7 C 7,7 C 48,3 km/h (6 Bft) 98,33 %
26.07.2017 09:38 14,0 C 19,4 C 87 % 1003,2 hPa 0,0 l/m 22,7 km/h (4 Bft) S-SW 212 0 min 0,000 mm 1,0 UV-I 234 W/m 11,9 C 7,8 C 45,1 km/h (6 Bft) 100,00 %
26.07.2017 09:40 13,9 C 19,4 C 87 % 1003,3 hPa 0,0 l/m 15,0 km/h (3 Bft) SW 220 0 min 0,000 mm 0,9 UV-I 192 W/m 11,8 C 9,9 C 22,5 km/h (4 Bft) 100,00 %
26.07.2017 09:42 13,9 C 19,4 C 87 % 1003,3 hPa 0,0 l/m 20,4 km/h (4 Bft) W-SW 243 0 min 0,000 mm 0,9 UV-I 176 W/m 11,8 C 8,2 C 33,8 km/h (5 Bft) 97,14 %
26.07.2017 09:44 13,8 C 19,4 C 86 % 1003,2 hPa 0,0 l/m 25,6 km/h (4 Bft) S-SW 209 0 min 0,000 mm 0,8 UV-I 177 W/m 11,5 C 6,9 C 35,4 km/h (5 Bft) 100,00 %
26.07.2017 09:46 13,7 C 19,4 C 87 % 1003,3 hPa 0,0 l/m 15,4 km/h (3 Bft) SW 215 0 min 0,000 mm 0,9 UV-I 197 W/m 11,6 C 9,5 C 25,7 km/h (4 Bft) 97,37 %
26.07.2017 09:48 13,7 C 19,4 C 87 % 1003,3 hPa 0,0 l/m 21,4 km/h (4 Bft) SW 234 0 min 0,000 mm 1,1 UV-I 243 W/m 11,6 C 7,7 C 37,0 km/h (5 Bft) 98,21 %
26.07.2017 09:50 13,7 C 19,4 C 87 % 1003,3 hPa 0,0 l/m 21,2 km/h (4 Bft) SW 215 0 min 0,000 mm 1,1 UV-I 252 W/m 11,6 C 7,7 C 33,8 km/h (5 Bft) 100,00 %
26.07.2017 09:52 13,7 C 19,4 C 88 % 1003,3 hPa 0,0 l/m 19,2 km/h (3 Bft) SW 234 0 min 0,000 mm 1,1 UV-I 241 W/m 11,7 C 8,3 C 32,2 km/h (5 Bft) 100,00 %
26.07.2017 09:54 13,7 C 19,4 C 88 % 1003,3 hPa 0,0 l/m 15,8 km/h (3 Bft) S-SW 202 0 min 0,000 mm 1,1 UV-I 230 W/m 11,7 C 9,3 C 27,4 km/h (4 Bft) 100,00 %
26.07.2017 09:56 13,6 C 19,4 C 88 % 1003,3 hPa 0,0 l/m 20,6 km/h (4 Bft) SW 215 0 min 0,000 mm 0,9 UV-I 199 W/m 11,6 C 7,8 C 33,8 km/h (5 Bft) 100,00 %
26.07.2017 09:58 13,6 C 19,4 C 88 % 1003,3 hPa 0,0 l/m 21,2 km/h (4 Bft) S-SW 195 0 min 0,000 mm 0,8 UV-I 166 W/m 11,6 C 7,6 C 38,6 km/h (5 Bft) 97,56 %
26.07.2017 10:00 13,5 C 19,4 C 89 % 1003,3 hPa 0,0 l/m 18,7 km/h (3 Bft) SW 231 0 min 0,152 mm 0,7 UV-I 145 W/m 11,7 C 8,2 C 27,4 km/h (4 Bft) 100,00 %
26.07.2017 10:02 13,5 C 19,4 C 89 % 1003,3 hPa 0,0 l/m 20,7 km/h (4 Bft) SW 219 0 min 0,000 mm 0,8 UV-I 154 W/m 11,7 C 7,6 C 27,4 km/h (4 Bft) 100,00 %
26.07.2017 10:04 13,4 C 19,4 C 89 % 1003,3 hPa 0,0 l/m 20,2 km/h (4 Bft) W 279 0 min 0,000 mm 0,8 UV-I 169 W/m 11,6 C 7,6 C 32,2 km/h (5 Bft) 97,62 %
26.07.2017 10:06 13,5 C 19,4 C 89 % 1003,4 hPa 0,0 l/m 20,1 km/h (4 Bft) W-SW 243 0 min 0,000 mm 0,9 UV-I 191 W/m 11,7 C 7,8 C 29,0 km/h (5 Bft) 100,00 %
26.07.2017 10:08 13,5 C 19,4 C 89 % 1003,3 hPa 0,0 l/m 16,7 km/h (3 Bft) SW 231 0 min 0,000 mm 0,8 UV-I 182 W/m 11,7 C 8,8 C 32,2 km/h (5 Bft) 97,87 %
26.07.2017 10:10 13,4 C 19,4 C 89 % 1003,2 hPa 0,0 l/m 17,0 km/h (3 Bft) SW 221 0 min 0,000 mm 0,7 UV-I 154 W/m 11,6 C 8,6 C 29,0 km/h (5 Bft) 100,00 %
26.07.2017 10:12 13,4 C 19,4 C 90 % 1003,3 hPa 0,0 l/m 17,2 km/h (3 Bft) S-SW 213 0 min 0,000 mm 0,6 UV-I 122 W/m 11,8 C 8,5 C 27,4 km/h (4 Bft) 98,21 %
26.07.2017 10:14 13,3 C 19,4 C 90 % 1003,4 hPa 0,0 l/m 19,0 km/h (3 Bft) W-SW 240 0 min 0,000 mm 0,2 UV-I 93 W/m 11,7 C 7,8 C 32,2 km/h (5 Bft) 97,37 %
26.07.2017 10:16 13,3 C 19,4 C 90 % 1003,4 hPa 0,2 l/m 18,6 km/h (3 Bft) W-SW 238 0 min 0,000 mm 0,0 UV-I 76 W/m 11,7 C 8,0 C 30,6 km/h (5 Bft) 94,64 %
26.07.2017 10:18 13,3 C 19,4 C 90 % 1003,5 hPa 0,2 l/m 18,0 km/h (3 Bft) W-SW 244 0 min 0,000 mm 0,0 UV-I 60 W/m 11,7 C 8,1 C 27,4 km/h (4 Bft) 97,56 %
26.07.2017 10:20 13,2 C 19,4 C 91 % 1003,3 hPa 0,0 l/m 19,3 km/h (3 Bft) SW 221 0 min 0,000 mm 0,0 UV-I 50 W/m 11,8 C 7,6 C 27,4 km/h (4 Bft) 96,23 %
26.07.2017 10:22 13,1 C 19,4 C 91 % 1003,4 hPa 0,4 l/m 19,5 km/h (3 Bft) SW 229 0 min 0,000 mm 0,0 UV-I 42 W/m 11,7 C 7,4 C 29,0 km/h (5 Bft) 94,74 %
26.07.2017 10:24 13,1 C 19,4 C 91 % 1003,4 hPa 0,2 l/m 22,3 km/h (4 Bft) S 185 0 min 0,000 mm 0,0 UV-I 40 W/m 11,7 C 6,7 C 38,6 km/h (5 Bft) 96,23 %
26.07.2017 10:26 13,0 C 19,4 C 92 % 1003,3 hPa 0,2 l/m 18,3 km/h (3 Bft) S-SW 196 0 min 0,000 mm 0,0 UV-I 42 W/m 11,7 C 7,7 C 24,1 km/h (4 Bft) 100,00 %
26.07.2017 10:28 12,9 C 19,4 C 92 % 1003,4 hPa 0,0 l/m 13,8 km/h (3 Bft) S-SW 211 0 min 0,000 mm 0,0 UV-I 48 W/m 11,6 C 9,1 C 25,7 km/h (4 Bft) 94,00 %
26.07.2017 10:30 12,9 C 19,4 C 92 % 1003,5 hPa 0,2 l/m 16,5 km/h (3 Bft) W-SW 243 0 min 0,000 mm 0,0 UV-I 64 W/m 11,6 C 8,1 C 25,7 km/h (4 Bft) 97,56 %
26.07.2017 10:32 12,8 C 19,4 C 93 % 1003,4 hPa 0,2 l/m 14,5 km/h (3 Bft) S-SW 203 0 min 0,000 mm 0,6 UV-I 89 W/m 11,7 C 8,7 C 22,5 km/h (4 Bft) 96,23 %
26.07.2017 10:34 12,8 C 19,4 C 93 % 1003,4 hPa 0,0 l/m 19,0 km/h (3 Bft) SW 222 0 min 0,000 mm 0,7 UV-I 105 W/m 11,7 C 7,2 C 30,6 km/h (5 Bft) 97,56 %
26.07.2017 10:36 12,8 C 19,4 C 93 % 1003,4 hPa 0,0 l/m 20,9 km/h (4 Bft) W-SW 239 0 min 0,000 mm 0,7 UV-I 105 W/m 11,7 C 6,7 C 32,2 km/h (5 Bft) 94,12 %
26.07.2017 10:38 12,8 C 19,4 C 93 % 1003,5 hPa 0,0 l/m 21,4 km/h (4 Bft) S-SW 208 0 min 0,000 mm 0,6 UV-I 93 W/m 11,7 C 6,5 C 35,4 km/h (5 Bft) 94,87 %
26.07.2017 10:40 12,8 C 19,4 C 93 % 1003,4 hPa 0,0 l/m 20,7 km/h (4 Bft) SW 219 0 min 0,000 mm 0,5 UV-I 82 W/m 11,7 C 6,7 C 29,0 km/h (5 Bft) 96,72 %
26.07.2017 10:42 12,8 C 19,4 C 93 % 1003,5 hPa 0,2 l/m 21,6 km/h (4 Bft) SW 215 0 min 0,000 mm 0,6 UV-I 87 W/m 11,7 C 6,5 C 35,4 km/h (5 Bft) 97,62 %
26.07.2017 10:44 12,8 C 19,4 C 93 % 1003,6 hPa 0,2 l/m 16,0 km/h (3 Bft) W-SW 238 0 min 0,000 mm 0,7 UV-I 99 W/m 11,7 C 8,2 C 27,4 km/h (4 Bft) 96,15 %
26.07.2017 10:46 12,8 C 19,4 C 93 % 1003,5 hPa 0,2 l/m 16,7 km/h (3 Bft) W-SW 250 0 min 0,000 mm 0,6 UV-I 97 W/m 11,7 C 7,9 C 30,6 km/h (5 Bft) 96,30 %
26.07.2017 10:48 12,8 C 19,4 C 93 % 1003,5 hPa 0,2 l/m 18,8 km/h (3 Bft) S 184 0 min 0,000 mm 0,5 UV-I 87 W/m 11,7 C 7,3 C 30,6 km/h (5 Bft) 94,34 %
26.07.2017 10:50 12,8 C 19,4 C 94 % 1003,5 hPa 0,0 l/m 18,8 km/h (3 Bft) W-SW 237 0 min 0,000 mm 0,5 UV-I 81 W/m 11,9 C 7,3 C 30,6 km/h (5 Bft) 100,00 %
26.07.2017 10:52 12,8 C 19,4 C 94 % 1003,5 hPa 0,2 l/m 20,7 km/h (4 Bft) SW 228 0 min 0,000 mm 0,5 UV-I 76 W/m 11,9 C 6,7 C 30,6 km/h (5 Bft) 100,00 %
26.07.2017 10:54 12,8 C 19,4 C 94 % 1003,5 hPa 0,0 l/m 19,2 km/h (3 Bft) S-SW 209 0 min 0,000 mm 0,5 UV-I 77 W/m 11,9 C 7,1 C 24,1 km/h (4 Bft) 98,11 %
26.07.2017 10:56 12,8 C 19,4 C 94 % 1003,5 hPa 0,2 l/m 17,6 km/h (3 Bft) SW 231 0 min 0,000 mm 0,5 UV-I 73 W/m 11,9 C 7,6 C 29,0 km/h (5 Bft) 97,37 %
26.07.2017 10:58 12,8 C 19,4 C 94 % 1003,5 hPa 0,2 l/m 22,3 km/h (4 Bft) SW 215 0 min 0,000 mm 0,3 UV-I 70 W/m 11,9 C 6,3 C 32,2 km/h (5 Bft) 100,00 %
26.07.2017 11:00 12,8 C 19,4 C 94 % 1003,6 hPa 0,2 l/m 20,8 km/h (4 Bft) S-SW 213 0 min 0,051 mm 0,0 UV-I 60 W/m 11,9 C 6,7 C 33,8 km/h (5 Bft) 100,00 %
26.07.2017 11:02 12,8 C 19,4 C 94 % 1003,6 hPa 0,0 l/m 21,1 km/h (4 Bft) SW 229 0 min 0,000 mm 0,1 UV-I 65 W/m 11,9 C 6,6 C 35,4 km/h (5 Bft) 97,37 %
26.07.2017 11:04 12,9 C 19,4 C 94 % 1003,5 hPa 0,2 l/m 13,4 km/h (3 Bft) SW 217 0 min 0,000 mm 0,5 UV-I 80 W/m 12,0 C 9,3 C 24,1 km/h (4 Bft) 98,11 %
26.07.2017 11:06 12,9 C 19,4 C 94 % 1003,6 hPa 0,2 l/m 16,9 km/h (3 Bft) S-SW 210 0 min 0,000 mm 0,6 UV-I 98 W/m 12,0 C 8,0 C 33,8 km/h (5 Bft) 100,00 %
26.07.2017 11:08 12,9 C 19,4 C 94 % 1003,6 hPa 0,2 l/m 20,0 km/h (4 Bft) S-SW 207 0 min 0,000 mm 0,7 UV-I 114 W/m 12,0 C 7,0 C 32,2 km/h (5 Bft) 100,00 %
26.07.2017 11:10 12,9 C 19,4 C 94 % 1003,6 hPa 0,0 l/m 21,2 km/h (4 Bft) SW 221 0 min 0,000 mm 0,8 UV-I 123 W/m 12,0 C 6,7 C 32,2 km/h (5 Bft) 98,00 %
26.07.2017 11:12 13,0 C 19,4 C 94 % 1003,6 hPa 0,0 l/m 22,2 km/h (4 Bft) SW 219 0 min 0,000 mm 0,8 UV-I 124 W/m 12,1 C 6,6 C 35,4 km/h (5 Bft) 97,37 %
26.07.2017 11:14 13,1 C 19,4 C 94 % 1003,6 hPa 0,2 l/m 23,3 km/h (4 Bft) SW 221 0 min 0,000 mm 0,9 UV-I 133 W/m 12,2 C 6,4 C 35,4 km/h (5 Bft) 100,00 %
26.07.2017 11:16 13,1 C 19,4 C 94 % 1003,7 hPa 0,0 l/m 24,2 km/h (4 Bft) W-SW 258 0 min 0,000 mm 1,0 UV-I 144 W/m 12,2 C 6,2 C 41,8 km/h (6 Bft) 97,62 %
26.07.2017 11:18 13,2 C 19,4 C 94 % 1003,6 hPa 0,0 l/m 21,3 km/h (4 Bft) SW 219 0 min 0,000 mm 1,0 UV-I 146 W/m 12,3 C 7,1 C 33,8 km/h (5 Bft) 98,28 %
26.07.2017 11:20 13,2 C 19,4 C 94 % 1003,6 hPa 0,0 l/m 22,2 km/h (4 Bft) S-SW 197 0 min 0,000 mm 0,9 UV-I 138 W/m 12,3 C 6,8 C 33,8 km/h (5 Bft) 100,00 %
26.07.2017 11:22 13,3 C 19,4 C 94 % 1003,8 hPa 0,0 l/m 18,6 km/h (3 Bft) S-SW 207 0 min 0,000 mm 0,8 UV-I 126 W/m 12,4 C 8,0 C 30,6 km/h (5 Bft) 97,44 %
26.07.2017 11:24 13,2 C 19,4 C 94 % 1003,6 hPa 0,2 l/m 18,8 km/h (3 Bft) SW 218 0 min 0,000 mm 0,8 UV-I 124 W/m 12,3 C 7,8 C 30,6 km/h (5 Bft) 100,00 %
26.07.2017 11:26 13,2 C 19,4 C 94 % 1003,7 hPa 0,0 l/m 18,6 km/h (3 Bft) SW 221 0 min 0,000 mm 0,8 UV-I 116 W/m 12,3 C 7,8 C 32,2 km/h (5 Bft) 97,87 %
26.07.2017 11:28 13,2 C 19,4 C 93 % 1003,7 hPa 0,0 l/m 21,6 km/h (4 Bft) SW 223 0 min 0,000 mm 0,9 UV-I 128 W/m 12,1 C 7,0 C 35,4 km/h (5 Bft) 96,23 %
26.07.2017 11:30 13,3 C 19,4 C 94 % 1003,7 hPa 0,2 l/m 15,7 km/h (3 Bft) S-SW 211 0 min 0,000 mm 1,4 UV-I 203 W/m 12,4 C 8,9 C 27,4 km/h (4 Bft) 100,00 %
26.07.2017 11:32 13,3 C 19,4 C 94 % 1003,6 hPa 0,0 l/m 22,5 km/h (4 Bft) S-SW 198 0 min 0,000 mm 1,6 UV-I 251 W/m 12,4 C 6,9 C 32,2 km/h (5 Bft) 100,00 %
26.07.2017 11:34 13,4 C 19,4 C 94 % 1003,7 hPa 0,0 l/m 24,9 km/h (4 Bft) W-SW 240 0 min 0,000 mm 1,5 UV-I 231 W/m 12,5 C 6,5 C 35,4 km/h (5 Bft) 100,00 %
26.07.2017 11:36 13,4 C 19,4 C 94 % 1003,8 hPa 0,0 l/m 19,3 km/h (3 Bft) SW 231 0 min 0,000 mm 1,5 UV-I 230 W/m 12,5 C 7,9 C 29,0 km/h (5 Bft) 100,00 %
26.07.2017 11:38 13,6 C 19,4 C 94 % 1003,8 hPa 0,0 l/m 20,2 km/h (4 Bft) SW 235 0 min 0,000 mm 1,4 UV-I 221 W/m 12,7 C 7,9 C 37,0 km/h (5 Bft) 97,73 %
26.07.2017 11:40 13,6 C 19,4 C 94 % 1003,8 hPa 0,0 l/m 16,9 km/h (3 Bft) S-SW 208 0 min 0,000 mm 1,2 UV-I 177 W/m 12,7 C 8,9 C 29,0 km/h (5 Bft) 100,00 %
26.07.2017 11:42 13,6 C 19,4 C 94 % 1003,8 hPa 0,2 l/m 20,6 km/h (4 Bft) SW 232 0 min 0,000 mm 0,9 UV-I 149 W/m 12,7 C 7,8 C 46,7 km/h (6 Bft) 97,56 %
26.07.2017 11:44 13,5 C 19,4 C 93 % 1003,8 hPa 0,2 l/m 22,3 km/h (4 Bft) W-SW 241 0 min 0,000 mm 0,9 UV-I 139 W/m 12,4 C 7,2 C 33,8 km/h (5 Bft) 97,73 %
26.07.2017 11:46 13,5 C 19,4 C 94 % 1003,8 hPa 0,2 l/m 16,2 km/h (3 Bft) W 262 0 min 0,000 mm 1,2 UV-I 183 W/m 12,6 C 9,0 C 27,4 km/h (4 Bft) 98,21 %
26.07.2017 11:48 13,4 C 19,4 C 94 % 1003,8 hPa 0,2 l/m 12,8 km/h (3 Bft) W 265 0 min 0,000 mm 1,3 UV-I 204 W/m 12,5 C 10,1 C 19,3 km/h (3 Bft) 95,74 %
26.07.2017 11:50 13,5 C 19,4 C 94 % 1003,8 hPa 0,0 l/m 13,8 km/h (3 Bft) S 181 0 min 0,000 mm 1,6 UV-I 238 W/m 12,6 C 9,8 C 20,9 km/h (4 Bft) 100,00 %
26.07.2017 11:52 13,6 C 19,4 C 94 % 1003,8 hPa 0,2 l/m 15,1 km/h (3 Bft) SW 217 0 min 0,000 mm 1,6 UV-I 251 W/m 12,7 C 9,5 C 24,1 km/h (4 Bft) 98,21 %
26.07.2017 11:54 13,6 C 19,4 C 95 % 1003,8 hPa 0,0 l/m 15,8 km/h (3 Bft) SW 229 0 min 0,000 mm 1,8 UV-I 287 W/m 12,8 C 9,2 C 32,2 km/h (5 Bft) 100,00 %
26.07.2017 11:56 13,6 C 19,4 C 94 % 1003,7 hPa 0,2 l/m 20,0 km/h (4 Bft) SW 229 0 min 0,000 mm 1,6 UV-I 256 W/m 12,7 C 7,9 C 29,0 km/h (5 Bft) 94,64 %
26.07.2017 11:58 13,7 C 19,4 C 94 % 1003,8 hPa 0,0 l/m 19,2 km/h (3 Bft) SW 234 0 min 0,000 mm 1,6 UV-I 252 W/m 12,8 C 8,3 C 30,6 km/h (5 Bft) 93,18 %
26.07.2017 12:00 13,7 C 19,4 C 94 % 1003,8 hPa 0,0 l/m 15,9 km/h (3 Bft) W 263 0 min 0,102 mm 1,3 UV-I 204 W/m 12,8 C 9,3 C 27,4 km/h (4 Bft) 95,24 %
26.07.2017 12:02 13,7 C 19,4 C 94 % 1003,8 hPa 0,0 l/m 19,0 km/h (3 Bft) S-SW 210 0 min 0,000 mm 1,1 UV-I 164 W/m 12,8 C 8,3 C 29,0 km/h (5 Bft) 98,04 %
26.07.2017 12:04 13,7 C 19,4 C 94 % 1003,8 hPa 0,2 l/m 18,5 km/h (3 Bft) SW 217 0 min 0,000 mm 1,1 UV-I 165 W/m 12,8 C 8,5 C 25,7 km/h (4 Bft) 95,12 %
26.07.2017 12:06 13,7 C 19,4 C 94 % 1003,8 hPa 0,2 l/m 15,5 km/h (3 Bft) W-SW 246 0 min 0,000 mm 1,2 UV-I 173 W/m 12,8 C 9,4 C 25,7 km/h (4 Bft) 98,11 %
26.07.2017 12:08 13,7 C 19,4 C 94 % 1003,7 hPa 0,2 l/m 22,9 km/h (4 Bft) W-SW 247 0 min 0,000 mm 1,2 UV-I 177 W/m 12,8 C 7,3 C 38,6 km/h (5 Bft) 95,74 %
26.07.2017 12:10 13,7 C 19,4 C 94 % 1003,7 hPa 0,2 l/m 25,7 km/h (4 Bft) SW 225 0 min 0,000 mm 0,9 UV-I 139 W/m 12,8 C 6,7 C 33,8 km/h (5 Bft) 94,74 %
26.07.2017 12:12 13,7 C 19,4 C 94 % 1003,7 hPa 0,0 l/m 18,6 km/h (3 Bft) W-SW 253 0 min 0,000 mm 1,3 UV-I 183 W/m 12,8 C 8,5 C 24,1 km/h (4 Bft) 95,45 %
26.07.2017 12:14 13,7 C 19,4 C 94 % 1003,8 hPa 0,4 l/m 15,3 km/h (3 Bft) W-SW 244 0 min 0,000 mm 0,8 UV-I 122 W/m 12,8 C 9,5 C 20,9 km/h (4 Bft) 95,16 %
26.07.2017 12:16 13,7 C 19,4 C 94 % 1003,8 hPa 0,0 l/m 16,6 km/h (3 Bft) W-SW 238 0 min 0,000 mm 0,8 UV-I 123 W/m 12,8 C 9,1 C 24,1 km/h (4 Bft) 95,45 %
26.07.2017 12:18 13,7 C 19,4 C 94 % 1003,9 hPa 0,2 l/m 21,3 km/h (4 Bft) W 277 0 min 0,000 mm 1,0 UV-I 160 W/m 12,8 C 7,7 C 30,6 km/h (5 Bft) 95,74 %
26.07.2017 12:20 13,7 C 19,4 C 94 % 1003,9 hPa 0,2 l/m 23,1 km/h (4 Bft) SW 227 0 min 0,000 mm 1,3 UV-I 206 W/m 12,8 C 7,3 C 37,0 km/h (5 Bft) 96,00 %
26.07.2017 12:22 13,7 C 19,4 C 94 % 1003,9 hPa 0,0 l/m 27,5 km/h (4 Bft) SW 227 0 min 0,000 mm 1,7 UV-I 269 W/m 12,8 C 6,3 C 43,5 km/h (6 Bft) 92,11 %
26.07.2017 12:24 13,8 C 19,4 C 94 % 1004,1 hPa 0,2 l/m 35,0 km/h (5 Bft) W-SW 241 0 min 0,000 mm 1,9 UV-I 275 W/m 12,9 C 5,2 C 48,3 km/h (6 Bft) 96,23 %
26.07.2017 12:26 13,8 C 19,4 C 94 % 1004,1 hPa 0,2 l/m 29,7 km/h (5 Bft) SW 236 0 min 0,000 mm 2,1 UV-I 322 W/m 12,9 C 6,1 C 43,5 km/h (6 Bft) 92,68 %
26.07.2017 12:28 13,9 C 19,4 C 94 % 1004,2 hPa 0,0 l/m 27,5 km/h (4 Bft) S-SW 209 0 min 0,000 mm 2,4 UV-I 368 W/m 12,9 C 6,6 C 40,2 km/h (6 Bft) 93,62 %
26.07.2017 12:30 14,0 C 19,4 C 94 % 1004,2 hPa 0,0 l/m 22,8 km/h (4 Bft) W 277 0 min 0,000 mm 2,8 UV-I 416 W/m 13,0 C 7,7 C 33,8 km/h (5 Bft) 94,00 %
26.07.2017 12:32 14,1 C 19,4 C 94 % 1004,2 hPa 0,0 l/m 18,7 km/h (3 Bft) S-SW 211 0 min 0,000 mm 2,8 UV-I 424 W/m 13,1 C 8,9 C 27,4 km/h (4 Bft) 92,00 %
26.07.2017 12:34 14,1 C 19,4 C 94 % 1004,3 hPa 0,0 l/m 24,6 km/h (4 Bft) W-SW 238 0 min 0,000 mm 2,0 UV-I 297 W/m 13,1 C 7,5 C 38,6 km/h (5 Bft) 94,44 %
26.07.2017 12:36 14,1 C 19,4 C 93 % 1004,4 hPa 0,0 l/m 21,8 km/h (4 Bft) W-NW 286 0 min 0,000 mm 1,3 UV-I 188 W/m 13,0 C 8,1 C 37,0 km/h (5 Bft) 94,74 %
26.07.2017 12:38 14,0 C 19,4 C 93 % 1004,4 hPa 0,2 l/m 18,7 km/h (3 Bft) W-SW 247 0 min 0,000 mm 1,2 UV-I 159 W/m 12,9 C 8,8 C 30,6 km/h (5 Bft) 93,75 %
26.07.2017 12:40 14,0 C 19,4 C 93 % 1004,3 hPa 0,0 l/m 20,1 km/h (4 Bft) SW 226 0 min 0,000 mm 1,5 UV-I 201 W/m 12,9 C 8,4 C 27,4 km/h (4 Bft) 92,86 %
26.07.2017 12:42 14,0 C 19,4 C 93 % 1004,4 hPa 0,0 l/m 16,2 km/h (3 Bft) W-SW 243 0 min 0,000 mm 1,3 UV-I 200 W/m 12,9 C 9,6 C 30,6 km/h (5 Bft) 96,00 %
26.07.2017 12:44 13,9 C 19,4 C 93 % 1004,4 hPa 0,0 l/m 22,7 km/h (4 Bft) SW 233 0 min 0,000 mm 1,0 UV-I 162 W/m 12,8 C 7,6 C 30,6 km/h (5 Bft) 91,49 %
26.07.2017 12:46 13,9 C 19,4 C 93 % 1004,5 hPa 0,0 l/m 19,8 km/h (3 Bft) W-SW 241 0 min 0,000 mm 1,3 UV-I 205 W/m 12,8 C 8,4 C 29,0 km/h (5 Bft) 94,34 %
26.07.2017 12:48 14,0 C 19,4 C 94 % 1004,5 hPa 0,0 l/m 16,3 km/h (3 Bft) W-SW 248 0 min 0,000 mm 1,9 UV-I 288 W/m 13,0 C 9,5 C 27,4 km/h (4 Bft) 94,29 %
26.07.2017 12:50 14,1 C 19,4 C 94 % 1004,5 hPa 0,0 l/m 19,9 km/h (4 Bft) SW 215 0 min 0,000 mm 2,0 UV-I 298 W/m 13,1 C 8,6 C 30,6 km/h (5 Bft) 96,61 %
26.07.2017 12:52 14,1 C 19,4 C 94 % 1004,6 hPa 0,0 l/m 18,1 km/h (3 Bft) SW 236 0 min 0,000 mm 2,1 UV-I 304 W/m 13,1 C 9,1 C 22,5 km/h (4 Bft) 97,56 %
26.07.2017 12:54 14,2 C 19,4 C 94 % 1004,5 hPa 0,0 l/m 12,8 km/h (3 Bft) S-SW 209 0 min 0,000 mm 2,0 UV-I 296 W/m 13,2 C 11,0 C 19,3 km/h (3 Bft) 98,00 %
26.07.2017 12:56 14,3 C 19,4 C 94 % 1004,6 hPa 0,0 l/m 16,2 km/h (3 Bft) SW 232 0 min 0,000 mm 1,5 UV-I 240 W/m 13,3 C 9,9 C 25,7 km/h (4 Bft) 91,43 %
26.07.2017 12:58 14,3 C 19,4 C 93 % 1004,5 hPa 0,0 l/m 19,1 km/h (3 Bft) SW 218 0 min 0,000 mm 1,6 UV-I 273 W/m 13,2 C 9,1 C 32,2 km/h (5 Bft) 94,92 %
26.07.2017 13:00 14,4 C 19,4 C 93 % 1004,5 hPa 0,0 l/m 17,2 km/h (3 Bft) SW 223 0 min 0,000 mm 2,0 UV-I 299 W/m 13,3 C 9,8 C 30,6 km/h (5 Bft) 95,12 %
26.07.2017 13:02 14,4 C 19,4 C 93 % 1004,6 hPa 0,0 l/m 21,8 km/h (4 Bft) SW 234 0 min 0,127 mm 2,3 UV-I 347 W/m 13,3 C 8,5 C 38,6 km/h (5 Bft) 90,57 %
26.07.2017 13:04 14,5 C 19,4 C 93 % 1004,6 hPa 0,0 l/m 23,8 km/h (4 Bft) SW 224 0 min 0,000 mm 2,4 UV-I 357 W/m 13,4 C 8,2 C 30,6 km/h (5 Bft) 97,56 %
26.07.2017 13:06 14,6 C 19,4 C 92 % 1004,6 hPa 0,2 l/m 23,8 km/h (4 Bft) SW 224 0 min 0,000 mm 2,5 UV-I 391 W/m 13,3 C 8,3 C 37,0 km/h (5 Bft) 98,00 %
26.07.2017 13:08 14,7 C 19,4 C 92 % 1004,6 hPa 0,0 l/m 23,5 km/h (4 Bft) SW 235 0 min 0,000 mm 2,8 UV-I 443 W/m 13,4 C 8,5 C 32,2 km/h (5 Bft) 96,00 %
26.07.2017 13:10 14,8 C 19,4 C 93 % 1004,5 hPa 0,0 l/m 25,3 km/h (4 Bft) SW 232 0 min 0,000 mm 2,7 UV-I 430 W/m 13,7 C 8,3 C 37,0 km/h (5 Bft) 100,00 %
26.07.2017 13:12 14,8 C 19,4 C 91 % 1004,5 hPa 0,0 l/m 26,7 km/h (4 Bft) W-SW 252 0 min 0,000 mm 2,8 UV-I 423 W/m 13,3 C 8,0 C 37,0 km/h (5 Bft) 97,44 %
26.07.2017 13:14 14,9 C 19,4 C 92 % 1004,5 hPa 0,0 l/m 19,3 km/h (3 Bft) S-SW 211 2 min 0,000 mm 3,3 UV-I 555 W/m 13,6 C 9,8 C 27,4 km/h (4 Bft) 96,15 %
26.07.2017 13:16 15,1 C 19,4 C 92 % 1004,5 hPa 0,0 l/m 22,9 km/h (4 Bft) W 261 2 min 0,000 mm 3,3 UV-I 561 W/m 13,8 C 9,2 C 37,0 km/h (5 Bft) 98,00 %
26.07.2017 13:18 15,1 C 19,4 C 91 % 1004,5 hPa 0,0 l/m 29,2 km/h (5 Bft) W-SW 248 2 min 0,000 mm 3,5 UV-I 613 W/m 13,6 C 8,0 C 43,5 km/h (6 Bft) 100,00 %
26.07.2017 13:20 15,1 C 19,4 C 90 % 1004,4 hPa 0,0 l/m 25,2 km/h (4 Bft) SW 227 2 min 0,000 mm 3,6 UV-I 577 W/m 13,5 C 8,7 C 37,0 km/h (5 Bft) 100,00 %
26.07.2017 13:22 15,2 C 19,4 C 91 % 1004,5 hPa 0,0 l/m 20,8 km/h (4 Bft) W-SW 241 2 min 0,000 mm 3,2 UV-I 504 W/m 13,7 C 9,8 C 32,2 km/h (5 Bft) 100,00 %
26.07.2017 13:24 15,2 C 19,4 C 91 % 1004,7 hPa 0,0 l/m 21,3 km/h (4 Bft) SW 232 0 min 0,000 mm 3,0 UV-I 462 W/m 13,7 C 9,7 C 33,8 km/h (5 Bft) 98,31 %
26.07.2017 13:26 15,1 C 19,4 C 91 % 1004,7 hPa 0,0 l/m 17,7 km/h (3 Bft) SW 229 0 min 0,000 mm 3,0 UV-I 457 W/m 13,6 C 10,5 C 30,6 km/h (5 Bft) 97,87 %
26.07.2017 13:28 15,1 C 19,4 C 91 % 1004,7 hPa 0,0 l/m 23,4 km/h (4 Bft) W-SW 250 0 min 0,000 mm 2,9 UV-I 449 W/m 13,6 C 9,1 C 33,8 km/h (5 Bft) 97,73 %
26.07.2017 13:30 14,9 C 19,4 C 90 % 1004,6 hPa 0,0 l/m 23,3 km/h (4 Bft) W-SW 248 0 min 0,000 mm 2,7 UV-I 420 W/m 13,3 C 8,8 C 33,8 km/h (5 Bft) 97,56 %
26.07.2017 13:32 14,8 C 19,4 C 90 % 1004,7 hPa 0,2 l/m 25,9 km/h (4 Bft) SW 225 0 min 0,000 mm 2,4 UV-I 371 W/m 13,2 C 8,2 C 45,1 km/h (6 Bft) 100,00 %
26.07.2017 13:34 14,7 C 19,4 C 90 % 1004,6 hPa 0,0 l/m 26,9 km/h (4 Bft) W-SW 240 0 min 0,000 mm 2,1 UV-I 319 W/m 13,1 C 7,8 C 41,8 km/h (6 Bft) 97,73 %
26.07.2017 13:36 14,6 C 19,4 C 91 % 1004,7 hPa 0,0 l/m 22,2 km/h (4 Bft) SW 218 0 min 0,000 mm 1,9 UV-I 284 W/m 13,1 C 8,7 C 37,0 km/h (5 Bft) 100,00 %
26.07.2017 13:38 14,5 C 19,4 C 91 % 1004,7 hPa 0,0 l/m 28,2 km/h (4 Bft) S-SW 212 0 min 0,000 mm 1,7 UV-I 255 W/m 13,0 C 7,3 C 45,1 km/h (6 Bft) 96,00 %
26.07.2017 13:40 14,4 C 19,4 C 91 % 1004,7 hPa 0,2 l/m 26,3 km/h (4 Bft) SW 234 0 min 0,000 mm 1,5 UV-I 233 W/m 12,9 C 7,5 C 45,1 km/h (6 Bft) 97,73 %
26.07.2017 13:42 14,3 C 19,4 C 91 % 1004,7 hPa 0,0 l/m 18,7 km/h (3 Bft) SW 229 0 min 0,000 mm 1,4 UV-I 210 W/m 12,8 C 9,2 C 27,4 km/h (4 Bft) 95,74 %
26.07.2017 13:44 14,2 C 19,4 C 91 % 1004,7 hPa 0,0 l/m 23,6 km/h (4 Bft) W 266 0 min 0,000 mm 1,2 UV-I 183 W/m 12,8 C 7,8 C 37,0 km/h (5 Bft) 95,45 %
26.07.2017 13:46 14,1 C 19,4 C 92 % 1004,8 hPa 0,2 l/m 24,6 km/h (4 Bft) W-SW 246 0 min 0,000 mm 0,9 UV-I 148 W/m 12,8 C 7,5 C 38,6 km/h (5 Bft) 97,87 %
26.07.2017 13:48 14,0 C 19,4 C 92 % 1004,8 hPa 0,2 l/m 18,9 km/h (3 Bft) SW 217 0 min 0,000 mm 0,8 UV-I 118 W/m 12,7 C 8,8 C 37,0 km/h (5 Bft) 95,74 %
26.07.2017 13:50 13,9 C 19,4 C 92 % 1004,8 hPa 0,0 l/m 17,7 km/h (3 Bft) SW 215 0 min 0,000 mm 0,9 UV-I 143 W/m 12,6 C 9,0 C 30,6 km/h (5 Bft) 95,74 %
26.07.2017 13:52 13,8 C 19,4 C 92 % 1004,8 hPa 0,0 l/m 18,8 km/h (3 Bft) SW 227 0 min 0,000 mm 1,0 UV-I 143 W/m 12,5 C 8,5 C 29,0 km/h (5 Bft) 100,00 %
26.07.2017 13:54 13,8 C 19,4 C 92 % 1004,8 hPa 0,2 l/m 21,0 km/h (4 Bft) SW 227 0 min 0,000 mm 0,9 UV-I 126 W/m 12,5 C 7,9 C 33,8 km/h (5 Bft) 96,36 %
26.07.2017 13:56 13,7 C 19,4 C 93 % 1004,8 hPa 0,2 l/m 15,9 km/h (3 Bft) SW 227 0 min 0,000 mm 0,7 UV-I 96 W/m 12,6 C 9,3 C 25,7 km/h (4 Bft) 100,00 %
26.07.2017 13:58 13,7 C 19,4 C 93 % 1004,8 hPa 0,0 l/m 16,4 km/h (3 Bft) SW 220 0 min 0,000 mm 0,6 UV-I 89 W/m 12,6 C 9,1 C 25,7 km/h (4 Bft) 98,18 %
26.07.2017 14:00 13,6 C 19,4 C 93 % 1004,8 hPa 0,2 l/m 16,6 km/h (3 Bft) W-SW 252 0 min 0,177 mm 0,6 UV-I 93 W/m 12,5 C 9,0 C 25,7 km/h (4 Bft) 100,00 %
26.07.2017 14:02 13,6 C 19,4 C 93 % 1004,8 hPa 0,2 l/m 18,6 km/h (3 Bft) SW 236 0 min 0,000 mm 0,6 UV-I 94 W/m 12,5 C 8,3 C 29,0 km/h (5 Bft) 95,74 %
26.07.2017 14:04 13,5 C 19,4 C 93 % 1004,8 hPa 0,2 l/m 16,2 km/h (3 Bft) SW 234 0 min 0,000 mm 0,8 UV-I 119 W/m 12,4 C 9,0 C 30,6 km/h (5 Bft) 100,00 %
26.07.2017 14:06 13,5 C 19,4 C 93 % 1004,7 hPa 0,0 l/m 20,7 km/h (4 Bft) W-SW 248 0 min 0,000 mm 1,1 UV-I 167 W/m 12,4 C 7,6 C 43,5 km/h (6 Bft) 98,11 %
26.07.2017 14:08 13,6 C 19,4 C 93 % 1004,8 hPa 0,0 l/m 20,3 km/h (4 Bft) S-SW 199 0 min 0,000 mm 1,2 UV-I 186 W/m 12,5 C 7,9 C 30,6 km/h (5 Bft) 97,56 %
26.07.2017 14:10 13,6 C 19,4 C 93 % 1004,9 hPa 0,2 l/m 19,9 km/h (4 Bft) SW 229 0 min 0,000 mm 1,2 UV-I 187 W/m 12,5 C 8,0 C 30,6 km/h (5 Bft) 97,73 %
26.07.2017 14:12 13,7 C 19,4 C 93 % 1004,9 hPa 0,0 l/m 15,9 km/h (3 Bft) SW 229 0 min 0,000 mm 1,1 UV-I 166 W/m 12,6 C 9,3 C 29,0 km/h (5 Bft) 95,74 %
26.07.2017 14:14 13,7 C 19,4 C 93 % 1004,9 hPa 0,0 l/m 20,2 km/h (4 Bft) SW 225 0 min 0,000 mm 1,3 UV-I 201 W/m 12,6 C 8,0 C 32,2 km/h (5 Bft) 97,37 %
26.07.2017 14:16 13,7 C 19,4 C 93 % 1004,9 hPa 0,0 l/m 20,6 km/h (4 Bft) SW 229 0 min 0,000 mm 1,2 UV-I 194 W/m 12,6 C 7,9 C 29,0 km/h (5 Bft) 94,34 %
26.07.2017 14:18 13,8 C 19,4 C 93 % 1005,0 hPa 0,0 l/m 22,0 km/h (4 Bft) S-SW 209 0 min 0,000 mm 1,2 UV-I 181 W/m 12,7 C 7,7 C 35,4 km/h (5 Bft) 96,36 %
26.07.2017 14:20 13,8 C 19,4 C 93 % 1004,9 hPa 0,0 l/m 22,1 km/h (4 Bft) S 189 0 min 0,000 mm 1,1 UV-I 175 W/m 12,7 C 7,7 C 40,2 km/h (6 Bft) 95,12 %
26.07.2017 14:22 13,8 C 19,4 C 93 % 1005,0 hPa 0,2 l/m 24,3 km/h (4 Bft) S-SW 196 0 min 0,000 mm 1,1 UV-I 167 W/m 12,7 C 7,1 C 35,4 km/h (5 Bft) 96,43 %
26.07.2017 14:24 13,8 C 19,4 C 93 % 1005,0 hPa 0,0 l/m 21,1 km/h (4 Bft) SW 230 0 min 0,000 mm 1,1 UV-I 175 W/m 12,7 C 7,9 C 32,2 km/h (5 Bft) 97,37 %
26.07.2017 14:26 13,9 C 19,4 C 93 % 1005,0 hPa 0,0 l/m 22,5 km/h (4 Bft) SW 215 0 min 0,000 mm 1,2 UV-I 196 W/m 12,8 C 7,7 C 33,8 km/h (5 Bft) 95,45 %
26.07.2017 14:28 13,9 C 19,4 C 93 % 1005,0 hPa 0,0 l/m 17,9 km/h (3 Bft) S-SW 193 0 min 0,000 mm 1,6 UV-I 258 W/m 12,8 C 8,9 C 30,6 km/h (5 Bft) 94,64 %
26.07.2017 14:30 14,0 C 19,4 C 93 % 1005,0 hPa 0,0 l/m 24,1 km/h (4 Bft) SW 225 0 min 0,000 mm 1,8 UV-I 284 W/m 12,9 C 7,5 C 40,2 km/h (6 Bft) 96,00 %
26.07.2017 14:32 14,1 C 19,4 C 93 % 1005,1 hPa 0,0 l/m 29,0 km/h (5 Bft) SW 218 0 min 0,000 mm 1,9 UV-I 311 W/m 13,0 C 6,6 C 38,6 km/h (5 Bft) 97,56 %
26.07.2017 14:34 14,2 C 19,4 C 93 % 1005,1 hPa 0,0 l/m 27,1 km/h (4 Bft) W-SW 238 0 min 0,000 mm 2,2 UV-I 354 W/m 13,1 C 7,1 C 41,8 km/h (6 Bft) 96,30 %
26.07.2017 14:36 14,2 C 19,4 C 92 % 1005,1 hPa 0,2 l/m 23,9 km/h (4 Bft) W-SW 247 0 min 0,000 mm 2,0 UV-I 317 W/m 12,9 C 7,8 C 37,0 km/h (5 Bft) 97,14 %
26.07.2017 14:38 14,3 C 19,4 C 92 % 1005,2 hPa 0,0 l/m 28,8 km/h (4 Bft) SW 228 0 min 0,000 mm 1,7 UV-I 287 W/m 13,0 C 6,9 C 43,5 km/h (6 Bft) 97,62 %
26.07.2017 14:40 14,3 C 19,4 C 92 % 1005,2 hPa 0,0 l/m 22,6 km/h (4 Bft) S 180 0 min 0,000 mm 1,6 UV-I 264 W/m 13,0 C 8,2 C 37,0 km/h (5 Bft) 94,34 %
26.07.2017 14:42 14,3 C 19,4 C 92 % 1005,2 hPa 0,0 l/m 25,9 km/h (4 Bft) W-SW 238 0 min 0,000 mm 1,6 UV-I 255 W/m 13,0 C 7,5 C 41,8 km/h (6 Bft) 97,87 %
26.07.2017 14:44 14,3 C 19,4 C 92 % 1005,4 hPa 0,2 l/m 22,0 km/h (4 Bft) W-SW 243 0 min 0,000 mm 1,3 UV-I 224 W/m 13,0 C 8,3 C 33,8 km/h (5 Bft) 94,00 %
26.07.2017 14:46 14,2 C 19,4 C 92 % 1005,3 hPa 0,0 l/m 23,5 km/h (4 Bft) W-SW 245 0 min 0,000 mm 1,2 UV-I 205 W/m 12,9 C 7,9 C 38,6 km/h (5 Bft) 100,00 %
26.07.2017 14:48 14,2 C 19,4 C 92 % 1005,3 hPa 0,2 l/m 25,8 km/h (4 Bft) SW 236 0 min 0,000 mm 1,0 UV-I 159 W/m 12,9 C 7,4 C 38,6 km/h (5 Bft) 97,73 %
26.07.2017 14:50 14,1 C 19,4 C 92 % 1005,3 hPa 0,0 l/m 20,5 km/h (4 Bft) S 183 0 min 0,000 mm 0,8 UV-I 133 W/m 12,8 C 8,5 C 38,6 km/h (5 Bft) 100,00 %
26.07.2017 14:52 14,0 C 19,4 C 92 % 1005,3 hPa 0,0 l/m 19,8 km/h (3 Bft) W-SW 240 0 min 0,000 mm 0,8 UV-I 130 W/m 12,7 C 8,5 C 37,0 km/h (5 Bft) 98,00 %
26.07.2017 14:54 13,9 C 19,4 C 92 % 1005,2 hPa 0,0 l/m 19,5 km/h (3 Bft) S-SW 202 0 min 0,000 mm 0,7 UV-I 119 W/m 12,6 C 8,5 C 32,2 km/h (5 Bft) 97,56 %
26.07.2017 14:56 13,9 C 19,4 C 92 % 1005,2 hPa 0,2 l/m 22,8 km/h (4 Bft) S-SW 200 0 min 0,000 mm 0,7 UV-I 109 W/m 12,6 C 7,6 C 33,8 km/h (5 Bft) 96,23 %
26.07.2017 14:58 13,9 C 19,4 C 92 % 1005,4 hPa 0,2 l/m 19,0 km/h (3 Bft) W-SW 240 0 min 0,000 mm 0,6 UV-I 103 W/m 12,6 C 8,6 C 30,6 km/h (5 Bft) 98,00 %
26.07.2017 15:00 13,8 C 19,4 C 93 % 1005,3 hPa 0,0 l/m 19,0 km/h (3 Bft) S-SW 208 0 min 0,127 mm 0,8 UV-I 132 W/m 12,7 C 8,5 C 29,0 km/h (5 Bft) 100,00 %
26.07.2017 15:02 13,8 C 19,4 C 92 % 1005,3 hPa 0,0 l/m 25,8 km/h (4 Bft) SW 225 0 min 0,000 mm 0,9 UV-I 147 W/m 12,5 C 6,8 C 43,5 km/h (6 Bft) 98,00 %
26.07.2017 15:04 13,7 C 19,4 C 93 % 1005,3 hPa 0,2 l/m 22,1 km/h (4 Bft) SW 217 0 min 0,000 mm 1,0 UV-I 159 W/m 12,6 C 7,5 C 33,8 km/h (5 Bft) 98,00 %
26.07.2017 15:06 13,7 C 19,4 C 93 % 1005,4 hPa 0,2 l/m 22,8 km/h (4 Bft) W-SW 246 0 min 0,000 mm 1,1 UV-I 175 W/m 12,6 C 7,4 C 35,4 km/h (5 Bft) 100,00 %
26.07.2017 15:08 13,7 C 19,4 C 93 % 1005,3 hPa 0,0 l/m 25,5 km/h (4 Bft) SW 234 0 min 0,000 mm 1,2 UV-I 188 W/m 12,6 C 6,7 C 40,2 km/h (6 Bft) 97,67 %
26.07.2017 15:10 13,7 C 19,4 C 93 % 1005,4 hPa 0,2 l/m 21,1 km/h (4 Bft) S-SW 198 0 min 0,000 mm 1,0 UV-I 164 W/m 12,6 C 7,8 C 32,2 km/h (5 Bft) 100,00 %
26.07.2017 15:12 13,7 C 19,4 C 93 % 1005,3 hPa 0,0 l/m 20,0 km/h (4 Bft) S 186 0 min 0,000 mm 1,1 UV-I 180 W/m 12,6 C 8,1 C 30,6 km/h (5 Bft) 97,37 %
26.07.2017 15:14 13,7 C 19,4 C 93 % 1005,4 hPa 0,0 l/m 21,9 km/h (4 Bft) SW 233 0 min 0,000 mm 1,2 UV-I 191 W/m 12,6 C 7,6 C 33,8 km/h (5 Bft) 97,92 %
26.07.2017 15:16 13,7 C 19,4 C 93 % 1005,4 hPa 0,0 l/m 22,6 km/h (4 Bft) SW 234 0 min 0,000 mm 1,2 UV-I 197 W/m 12,6 C 7,4 C 37,0 km/h (5 Bft) 98,08 %
26.07.2017 15:18 13,7 C 19,4 C 93 % 1005,3 hPa 0,0 l/m 23,6 km/h (4 Bft) SW 234 0 min 0,000 mm 1,4 UV-I 234 W/m 12,6 C 7,2 C 43,5 km/h (6 Bft) 100,00 %
26.07.2017 15:20 13,8 C 19,4 C 93 % 1005,3 hPa 0,0 l/m 21,3 km/h (4 Bft) S-SW 210 0 min 0,000 mm 1,7 UV-I 279 W/m 12,7 C 7,9 C 29,0 km/h (5 Bft) 100,00 %
26.07.2017 15:22 13,8 C 19,4 C 93 % 1005,3 hPa 0,2 l/m 20,8 km/h (4 Bft) SW 223 0 min 0,000 mm 1,6 UV-I 262 W/m 12,7 C 8,0 C 32,2 km/h (5 Bft) 100,00 %
26.07.2017 15:24 13,8 C 19,4 C 93 % 1005,2 hPa 0,0 l/m 22,1 km/h (4 Bft) S-SW 205 0 min 0,000 mm 1,4 UV-I 229 W/m 12,7 C 7,7 C 38,6 km/h (5 Bft) 100,00 %
26.07.2017 15:26 13,8 C 19,4 C 92 % 1005,2 hPa 0,0 l/m 21,8 km/h (4 Bft) W-SW 239 0 min 0,000 mm 1,3 UV-I 226 W/m 12,5 C 7,7 C 32,2 km/h (5 Bft) 98,21 %
26.07.2017 15:28 13,8 C 19,4 C 92 % 1005,2 hPa 0,0 l/m 19,7 km/h (3 Bft) W-SW 243 0 min 0,000 mm 1,4 UV-I 243 W/m 12,5 C 8,3 C 38,6 km/h (5 Bft) 97,37 %
26.07.2017 15:30 13,8 C 19,4 C 92 % 1005,4 hPa 0,0 l/m 20,0 km/h (4 Bft) SW 225 0 min 0,000 mm 1,3 UV-I 215 W/m 12,5 C 8,2 C 32,2 km/h (5 Bft) 100,00 %
26.07.2017 15:32 13,8 C 19,4 C 93 % 1005,4 hPa 0,0 l/m 18,8 km/h (3 Bft) SW 217 0 min 0,000 mm 1,2 UV-I 209 W/m 12,7 C 8,5 C 25,7 km/h (4 Bft) 97,06 %
26.07.2017 15:34 13,8 C 19,4 C 93 % 1005,4 hPa 0,0 l/m 21,6 km/h (4 Bft) SW 232 0 min 0,000 mm 1,2 UV-I 199 W/m 12,7 C 7,8 C 32,2 km/h (5 Bft) 97,73 %
26.07.2017 15:36 13,8 C 19,4 C 93 % 1005,4 hPa 0,0 l/m 23,5 km/h (4 Bft) S-SW 205 0 min 0,000 mm 1,0 UV-I 168 W/m 12,7 C 7,3 C 35,4 km/h (5 Bft) 100,00 %
26.07.2017 15:38 13,7 C 19,4 C 93 % 1005,3 hPa 0,0 l/m 19,7 km/h (3 Bft) SW 229 0 min 0,000 mm 0,8 UV-I 132 W/m 12,6 C 8,1 C 27,4 km/h (4 Bft) 97,56 %
26.07.2017 15:40 13,7 C 19,4 C 93 % 1005,3 hPa 0,2 l/m 19,9 km/h (4 Bft) S-SW 192 0 min 0,000 mm 0,7 UV-I 113 W/m 12,6 C 8,1 C 29,0 km/h (5 Bft) 100,00 %
26.07.2017 15:42 13,7 C 19,4 C 93 % 1005,4 hPa 0,0 l/m 22,6 km/h (4 Bft) S-SW 208 0 min 0,000 mm 0,7 UV-I 121 W/m 12,6 C 7,4 C 37,0 km/h (5 Bft) 98,00 %
26.07.2017 15:44 13,6 C 19,4 C 93 % 1005,3 hPa 0,0 l/m 19,2 km/h (3 Bft) W-SW 238 0 min 0,000 mm 0,7 UV-I 126 W/m 12,5 C 8,2 C 33,8 km/h (5 Bft) 98,11 %
26.07.2017 15:46 13,5 C 19,4 C 93 % 1005,3 hPa 0,0 l/m 23,1 km/h (4 Bft) W-SW 247 0 min 0,000 mm 0,7 UV-I 140 W/m 12,4 C 7,0 C 30,6 km/h (5 Bft) 100,00 %
26.07.2017 15:48 13,5 C 19,4 C 93 % 1005,3 hPa 0,2 l/m 17,0 km/h (3 Bft) SW 218 0 min 0,000 mm 0,9 UV-I 164 W/m 12,4 C 8,7 C 37,0 km/h (5 Bft) 97,37 %
26.07.2017 15:50 13,5 C 19,4 C 93 % 1005,3 hPa 0,0 l/m 27,1 km/h (4 Bft) S-SW 211 0 min 0,000 mm 0,9 UV-I 160 W/m 12,4 C 6,1 C 40,2 km/h (6 Bft) 100,00 %
26.07.2017 15:52 13,4 C 19,4 C 93 % 1005,3 hPa 0,0 l/m 22,3 km/h (4 Bft) SW 219 0 min 0,000 mm 0,8 UV-I 141 W/m 12,3 C 7,1 C 35,4 km/h (5 Bft) 97,87 %
26.07.2017 15:54 13,4 C 19,4 C 93 % 1005,4 hPa 0,0 l/m 19,6 km/h (3 Bft) S-SW 200 0 min 0,000 mm 0,8 UV-I 137 W/m 12,3 C 7,8 C 29,0 km/h (5 Bft) 97,62 %
26.07.2017 15:56 13,4 C 19,4 C 93 % 1005,3 hPa 0,2 l/m 19,5 km/h (3 Bft) W-SW 240 0 min 0,000 mm 0,6 UV-I 122 W/m 12,3 C 7,8 C 30,6 km/h (5 Bft) 100,00 %
26.07.2017 15:58 13,4 C 19,4 C 93 % 1005,3 hPa 0,0 l/m 20,2 km/h (4 Bft) S-SW 205 0 min 0,000 mm 0,6 UV-I 103 W/m 12,3 C 7,6 C 35,4 km/h (5 Bft) 96,23 %
26.07.2017 16:00 13,4 C 19,4 C 94 % 1005,4 hPa 0,0 l/m 19,2 km/h (3 Bft) SW 236 0 min 0,000 mm 0,6 UV-I 110 W/m 12,5 C 7,9 C 35,4 km/h (5 Bft) 97,14 %
26.07.2017 16:02 13,3 C 19,4 C 94 % 1005,4 hPa 0,2 l/m 23,1 km/h (4 Bft) W-SW 250 0 min 0,102 mm 0,6 UV-I 115 W/m 12,4 C 6,7 C 38,6 km/h (5 Bft) 96,43 %
26.07.2017 16:04 13,3 C 19,4 C 94 % 1005,4 hPa 0,0 l/m 24,0 km/h (4 Bft) SW 219 0 min 0,000 mm 0,7 UV-I 121 W/m 12,4 C 6,5 C 40,2 km/h (6 Bft) 97,56 %
26.07.2017 16:06 13,3 C 19,4 C 94 % 1005,3 hPa 0,0 l/m 23,8 km/h (4 Bft) SW 218 0 min 0,000 mm 0,7 UV-I 128 W/m 12,4 C 6,6 C 43,5 km/h (6 Bft) 92,45 %
26.07.2017 16:08 13,3 C 19,4 C 94 % 1005,4 hPa 0,0 l/m 23,2 km/h (4 Bft) SW 220 0 min 0,000 mm 0,6 UV-I 113 W/m 12,4 C 6,7 C 33,8 km/h (5 Bft) 96,00 %
26.07.2017 16:10 13,3 C 19,4 C 94 % 1005,4 hPa 0,0 l/m 22,2 km/h (4 Bft) W-SW 238 0 min 0,000 mm 0,6 UV-I 105 W/m 12,4 C 7,0 C 35,4 km/h (5 Bft) 97,37 %
26.07.2017 16:13 13,3 C 19,4 C 94 % 1005,4 hPa 0,0 l/m 28,6 km/h (4 Bft) S-SW 207 0 min 0,000 mm 0,6 UV-I 96 W/m 12,4 C 5,6 C 41,8 km/h (6 Bft) 94,74 %
26.07.2017 16:14 13,3 C 19,4 C 94 % 1005,4 hPa 0,0 l/m 18,2 km/h (3 Bft) SW 217 0 min 0,000 mm 0,5 UV-I 91 W/m 12,4 C 8,1 C 24,1 km/h (4 Bft) 95,83 %
26.07.2017 16:16 13,3 C 19,4 C 94 % 1005,4 hPa 0,0 l/m 21,0 km/h (4 Bft) SW 229 0 min 0,000 mm 0,5 UV-I 92 W/m 12,4 C 7,3 C 33,8 km/h (5 Bft) 95,12 %
26.07.2017 16:18 13,3 C 19,4 C 94 % 1005,4 hPa 0,0 l/m 24,5 km/h (4 Bft) W-SW 250 0 min 0,000 mm 0,6 UV-I 107 W/m 12,4 C 6,4 C 37,0 km/h (5 Bft) 94,00 %
26.07.2017 16:20 13,3 C 19,4 C 94 % 1005,4 hPa 0,2 l/m 21,5 km/h (4 Bft) S-SW 208 0 min 0,000 mm 0,6 UV-I 113 W/m 12,4 C 7,1 C 32,2 km/h (5 Bft) 92,68 %
26.07.2017 16:22 13,3 C 19,4 C 94 % 1005,4 hPa 0,0 l/m 21,9 km/h (4 Bft) W-SW 246 0 min 0,000 mm 0,5 UV-I 97 W/m 12,4 C 7,0 C 37,0 km/h (5 Bft) 96,23 %
26.07.2017 16:24 13,3 C 19,4 C 94 % 1005,3 hPa 0,0 l/m 23,1 km/h (4 Bft) S-SW 211 0 min 0,000 mm 0,5 UV-I 93 W/m 12,4 C 6,7 C 38,6 km/h (5 Bft) 95,45 %
26.07.2017 16:26 13,3 C 19,4 C 94 % 1005,4 hPa 0,2 l/m 28,9 km/h (5 Bft) W-SW 245 0 min 0,000 mm 0,5 UV-I 105 W/m 12,4 C 5,5 C 43,5 km/h (6 Bft) 96,00 %
26.07.2017 16:28 13,2 C 19,4 C 94 % 1005,4 hPa 0,0 l/m 19,2 km/h (3 Bft) W-SW 254 0 min 0,000 mm 0,7 UV-I 128 W/m 12,3 C 7,6 C 33,8 km/h (5 Bft) 93,62 %
26.07.2017 16:30 13,3 C 19,4 C 94 % 1005,4 hPa 0,0 l/m 23,6 km/h (4 Bft) SW 217 0 min 0,000 mm 0,6 UV-I 117 W/m 12,4 C 6,6 C 35,4 km/h (5 Bft) 92,00 %
26.07.2017 16:32 13,3 C 19,4 C 94 % 1005,4 hPa 0,0 l/m 28,2 km/h (4 Bft) SW 216 0 min 0,000 mm 0,5 UV-I 107 W/m 12,4 C 5,6 C 40,2 km/h (6 Bft) 94,44 %
26.07.2017 16:34 13,3 C 19,4 C 94 % 1005,4 hPa 0,0 l/m 16,6 km/h (3 Bft) W 261 0 min 0,000 mm 0,5 UV-I 102 W/m 12,4 C 8,6 C 25,7 km/h (4 Bft) 90,91 %
26.07.2017 16:36 13,3 C 19,4 C 94 % 1005,4 hPa 0,0 l/m 21,6 km/h (4 Bft) S-SW 209 0 min 0,000 mm 0,5 UV-I 99 W/m 12,4 C 7,1 C 35,4 km/h (5 Bft) 95,24 %
26.07.2017 16:38 13,4 C 19,4 C 94 % 1005,5 hPa 0,0 l/m 18,2 km/h (3 Bft) W-SW 239 0 min 0,000 mm 0,6 UV-I 123 W/m 12,5 C 8,2 C 29,0 km/h (5 Bft) 92,45 %
26.07.2017 16:40 13,4 C 19,4 C 94 % 1005,4 hPa 0,0 l/m 20,1 km/h (4 Bft) S 184 0 min 0,000 mm 0,6 UV-I 131 W/m 12,5 C 7,7 C 30,6 km/h (5 Bft) 94,00 %
26.07.2017 16:42 13,4 C 19,4 C 94 % 1005,4 hPa 0,0 l/m 23,2 km/h (4 Bft) SW 233 0 min 0,000 mm 0,6 UV-I 117 W/m 12,5 C 6,9 C 35,4 km/h (5 Bft) 95,74 %
26.07.2017 16:44 13,4 C 19,4 C 94 % 1005,5 hPa 0,0 l/m 19,9 km/h (4 Bft) SW 236 0 min 0,000 mm 0,6 UV-I 106 W/m 12,5 C 7,7 C 35,4 km/h (5 Bft) 92,11 %
26.07.2017 16:46 13,5 C 19,4 C 94 % 1005,4 hPa 0,0 l/m 21,6 km/h (4 Bft) SW 221 0 min 0,000 mm 0,5 UV-I 103 W/m 12,6 C 7,4 C 32,2 km/h (5 Bft) 97,73 %
26.07.2017 16:48 13,5 C 19,4 C 94 % 1005,4 hPa 0,0 l/m 19,9 km/h (4 Bft) S-SW 198 0 min 0,000 mm 0,5 UV-I 103 W/m 12,6 C 7,8 C 32,2 km/h (5 Bft) 96,43 %
26.07.2017 16:50 13,6 C 19,4 C 94 % 1005,5 hPa 0,0 l/m 22,0 km/h (4 Bft) SW 223 0 min 0,000 mm 0,6 UV-I 105 W/m 12,7 C 7,4 C 30,6 km/h (5 Bft) 97,56 %
26.07.2017 16:52 13,6 C 19,4 C 94 % 1005,5 hPa 0,0 l/m 25,5 km/h (4 Bft) SW 227 0 min 0,000 mm 0,5 UV-I 99 W/m 12,7 C 6,6 C 40,2 km/h (6 Bft) 95,74 %
26.07.2017 16:54 13,6 C 19,4 C 94 % 1005,5 hPa 0,0 l/m 24,1 km/h (4 Bft) W-SW 237 0 min 0,000 mm 0,6 UV-I 113 W/m 12,7 C 6,9 C 33,8 km/h (5 Bft) 97,73 %
26.07.2017 16:56 13,6 C 19,4 C 94 % 1005,6 hPa 0,0 l/m 19,8 km/h (3 Bft) S-SW 204 0 min 0,000 mm 0,5 UV-I 108 W/m 12,7 C 8,0 C 32,2 km/h (5 Bft) 96,00 %
26.07.2017 16:58 13,6 C 19,4 C 94 % 1005,5 hPa 0,2 l/m 23,4 km/h (4 Bft) SW 221 0 min 0,000 mm 0,6 UV-I 116 W/m 12,7 C 7,1 C 33,8 km/h (5 Bft) 96,23 %
26.07.2017 17:00 13,6 C 19,4 C 94 % 1005,6 hPa 0,0 l/m 20,7 km/h (4 Bft) W-SW 237 0 min 0,076 mm 0,5 UV-I 98 W/m 12,7 C 7,7 C 40,2 km/h (6 Bft) 97,73 %
26.07.2017 17:02 13,5 C 19,4 C 94 % 1005,5 hPa 0,2 l/m 23,3 km/h (4 Bft) SW 235 0 min 0,000 mm 0,5 UV-I 109 W/m 12,6 C 7,0 C 32,2 km/h (5 Bft) 98,00 %
26.07.2017 17:04 13,5 C 19,4 C 94 % 1005,5 hPa 0,0 l/m 26,7 km/h (4 Bft) W-SW 242 0 min 0,000 mm 0,6 UV-I 115 W/m 12,6 C 6,2 C 40,2 km/h (6 Bft) 95,83 %
26.07.2017 17:06 13,5 C 19,4 C 94 % 1005,7 hPa 0,0 l/m 23,1 km/h (4 Bft) S-SW 199 0 min 0,000 mm 0,4 UV-I 107 W/m 12,6 C 7,0 C 35,4 km/h (5 Bft) 95,52 %
26.07.2017 17:08 13,4 C 19,4 C 94 % 1005,7 hPa 0,0 l/m 20,7 km/h (4 Bft) S-SW 207 0 min 0,000 mm 0,0 UV-I 78 W/m 12,5 C 7,5 C 33,8 km/h (5 Bft) 98,00 %
26.07.2017 17:10 13,4 C 19,4 C 94 % 1005,8 hPa 0,2 l/m 21,6 km/h (4 Bft) SW 230 0 min 0,000 mm 0,0 UV-I 81 W/m 12,5 C 7,3 C 32,2 km/h (5 Bft) 94,87 %
26.07.2017 17:12 13,4 C 19,4 C 94 % 1005,8 hPa 0,2 l/m 24,1 km/h (4 Bft) SW 221 0 min 0,000 mm 0,0 UV-I 80 W/m 12,5 C 6,6 C 35,4 km/h (5 Bft) 100,00 %
26.07.2017 17:14 13,4 C 19,4 C 94 % 1005,9 hPa 0,0 l/m 23,6 km/h (4 Bft) SW 229 0 min 0,000 mm 0,0 UV-I 87 W/m 12,5 C 6,8 C 33,8 km/h (5 Bft) 95,24 %
26.07.2017 17:16 13,4 C 19,4 C 94 % 1005,9 hPa 0,2 l/m 20,6 km/h (4 Bft) SW 219 0 min 0,000 mm 0,0 UV-I 95 W/m 12,5 C 7,5 C 32,2 km/h (5 Bft) 98,00 %
26.07.2017 17:18 13,4 C 19,4 C 95 % 1005,9 hPa 0,0 l/m 21,5 km/h (4 Bft) SW 232 0 min 0,000 mm 0,0 UV-I 93 W/m 12,6 C 7,3 C 29,0 km/h (5 Bft) 100,00 %
26.07.2017 17:20 13,4 C 19,4 C 95 % 1005,9 hPa 0,0 l/m 22,0 km/h (4 Bft) SW 223 0 min 0,000 mm 0,0 UV-I 72 W/m 12,6 C 7,2 C 32,2 km/h (5 Bft) 97,87 %
26.07.2017 17:22 13,4 C 19,4 C 95 % 1006,0 hPa 0,2 l/m 27,6 km/h (4 Bft) SW 232 0 min 0,000 mm 0,0 UV-I 61 W/m 12,6 C 5,9 C 37,0 km/h (5 Bft) 100,00 %
26.07.2017 17:24 13,4 C 19,4 C 95 % 1006,0 hPa 0,0 l/m 21,4 km/h (4 Bft) SW 218 0 min 0,000 mm 0,0 UV-I 67 W/m 12,6 C 7,3 C 33,8 km/h (5 Bft) 100,00 %
26.07.2017 17:26 13,4 C 19,4 C 95 % 1006,1 hPa 0,0 l/m 16,7 km/h (3 Bft) SW 229 0 min 0,000 mm 0,0 UV-I 72 W/m 12,6 C 8,7 C 35,4 km/h (5 Bft) 98,11 %
26.07.2017 17:28 13,4 C 19,4 C 95 % 1006,0 hPa 0,0 l/m 22,9 km/h (4 Bft) SW 225 0 min 0,000 mm 0,0 UV-I 77 W/m 12,6 C 6,9 C 35,4 km/h (5 Bft) 97,56 %
26.07.2017 17:30 13,5 C 19,4 C 95 % 1006,1 hPa 0,0 l/m 21,9 km/h (4 Bft) S-SW 200 0 min 0,000 mm 0,0 UV-I 71 W/m 12,7 C 7,3 C 35,4 km/h (5 Bft) 98,11 %
26.07.2017 17:32 13,6 C 19,4 C 95 % 1006,1 hPa 0,0 l/m 20,1 km/h (4 Bft) SW 232 0 min 0,000 mm 0,0 UV-I 70 W/m 12,8 C 7,9 C 29,0 km/h (5 Bft) 98,00 %
26.07.2017 17:34 13,6 C 19,4 C 95 % 1006,1 hPa 0,0 l/m 20,0 km/h (4 Bft) W-SW 251 0 min 0,000 mm 0,0 UV-I 66 W/m 12,8 C 7,9 C 27,4 km/h (4 Bft) 100,00 %
26.07.2017 17:36 13,6 C 19,4 C 95 % 1006,2 hPa 0,0 l/m 14,1 km/h (3 Bft) W-SW 252 0 min 0,000 mm 0,0 UV-I 56 W/m 12,8 C 9,8 C 25,7 km/h (4 Bft) 94,00 %
26.07.2017 17:38 13,6 C 19,4 C 95 % 1006,1 hPa 0,0 l/m 13,7 km/h (3 Bft) W-SW 250 0 min 0,000 mm 0,0 UV-I 52 W/m 12,8 C 10,0 C 20,9 km/h (4 Bft) 100,00 %
26.07.2017 17:40 13,6 C 19,4 C 95 % 1006,2 hPa 0,0 l/m 11,9 km/h (2 Bft) W-SW 248 0 min 0,000 mm 0,0 UV-I 53 W/m 12,8 C 10,7 C 16,1 km/h (3 Bft) 92,68 %
26.07.2017 17:42 13,6 C 19,4 C 95 % 1006,2 hPa 0,0 l/m 18,8 km/h (3 Bft) S-SO 161 0 min 0,000 mm 0,0 UV-I 52 W/m 12,8 C 8,3 C 27,4 km/h (4 Bft) 94,00 %
26.07.2017 17:44 13,6 C 19,4 C 95 % 1006,1 hPa 0,0 l/m 19,3 km/h (3 Bft) W 263 0 min 0,000 mm 0,0 UV-I 43 W/m 12,8 C 8,1 C 29,0 km/h (5 Bft) 97,37 %
26.07.2017 17:46 13,6 C 19,4 C 95 % 1006,3 hPa 0,0 l/m 21,2 km/h (4 Bft) W 259 0 min 0,000 mm 0,0 UV-I 39 W/m 12,8 C 7,6 C 30,6 km/h (5 Bft) 98,21 %
26.07.2017 17:48 13,6 C 19,4 C 95 % 1006,3 hPa 0,0 l/m 16,6 km/h (3 Bft) W-SW 240 0 min 0,000 mm 0,0 UV-I 54 W/m 12,8 C 9,0 C 24,1 km/h (4 Bft) 97,56 %
26.07.2017 17:50 13,6 C 19,4 C 96 % 1006,3 hPa 0,0 l/m 14,6 km/h (3 Bft) SW 217 0 min 0,000 mm 0,0 UV-I 65 W/m 13,0 C 9,6 C 20,9 km/h (4 Bft) 90,24 %
26.07.2017 17:52 13,7 C 19,4 C 96 % 1006,3 hPa 0,0 l/m 17,5 km/h (3 Bft) W-SW 252 0 min 0,000 mm 0,0 UV-I 54 W/m 13,1 C 8,8 C 24,1 km/h (4 Bft) 94,34 %
26.07.2017 17:54 13,7 C 19,4 C 96 % 1006,3 hPa 0,0 l/m 15,4 km/h (3 Bft) W-SW 240 0 min 0,000 mm 0,0 UV-I 50 W/m 13,1 C 9,5 C 24,1 km/h (4 Bft) 100,00 %
26.07.2017 17:56 13,7 C 19,4 C 96 % 1006,3 hPa 0,0 l/m 17,1 km/h (3 Bft) SW 225 0 min 0,000 mm 0,0 UV-I 42 W/m 13,1 C 8,9 C 24,1 km/h (4 Bft) 97,87 %
26.07.2017 17:58 13,8 C 19,4 C 96 % 1006,4 hPa 0,0 l/m 19,9 km/h (4 Bft) W-SW 254 0 min 0,000 mm 0,0 UV-I 54 W/m 13,2 C 8,2 C 35,4 km/h (5 Bft) 100,00 %
26.07.2017 18:00 13,8 C 19,4 C 96 % 1006,4 hPa 0,0 l/m 16,1 km/h (3 Bft) SW 229 0 min 0,000 mm 0,0 UV-I 61 W/m 13,2 C 9,4 C 24,1 km/h (4 Bft) 100,00 %
26.07.2017 18:02 13,8 C 19,4 C 96 % 1006,3 hPa 0,0 l/m 17,2 km/h (3 Bft) W-SW 244 0 min 0,051 mm 0,0 UV-I 74 W/m 13,2 C 9,0 C 27,4 km/h (4 Bft) 92,59 %
26.07.2017 18:04 13,9 C 19,4 C 96 % 1006,4 hPa 0,0 l/m 19,9 km/h (4 Bft) S-SW 212 0 min 0,000 mm 0,0 UV-I 115 W/m 13,3 C 8,4 C 27,4 km/h (4 Bft) 98,21 %
26.07.2017 18:06 14,0 C 19,4 C 96 % 1006,4 hPa 0,0 l/m 17,3 km/h (3 Bft) W-SW 251 0 min 0,000 mm 0,0 UV-I 111 W/m 13,4 C 9,2 C 24,1 km/h (4 Bft) 100,00 %
26.07.2017 18:08 14,1 C 19,4 C 96 % 1006,5 hPa 0,0 l/m 18,6 km/h (3 Bft) S-SW 197 0 min 0,000 mm 0,0 UV-I 124 W/m 13,5 C 9,0 C 27,4 km/h (4 Bft) 97,56 %
26.07.2017 18:10 14,2 C 19,4 C 96 % 1006,4 hPa 0,0 l/m 19,6 km/h (3 Bft) SW 234 0 min 0,000 mm 0,5 UV-I 139 W/m 13,6 C 8,8 C 27,4 km/h (4 Bft) 100,00 %
26.07.2017 18:12 14,2 C 19,4 C 95 % 1006,4 hPa 0,0 l/m 19,8 km/h (3 Bft) W 263 0 min 0,000 mm 0,3 UV-I 131 W/m 13,4 C 8,8 C 29,0 km/h (5 Bft) 100,00 %
26.07.2017 18:14 14,3 C 19,4 C 95 % 1006,4 hPa 0,0 l/m 18,9 km/h (3 Bft) W-SW 244 0 min 0,000 mm 0,2 UV-I 118 W/m 13,5 C 9,1 C 25,7 km/h (4 Bft) 97,73 %
26.07.2017 18:16 14,4 C 19,4 C 95 % 1006,4 hPa 0,0 l/m 20,5 km/h (4 Bft) W-SW 251 0 min 0,000 mm 0,4 UV-I 134 W/m 13,6 C 8,8 C 38,6 km/h (5 Bft) 96,43 %
26.07.2017 18:18 14,4 C 19,4 C 95 % 1006,4 hPa 0,0 l/m 21,1 km/h (4 Bft) W 270 0 min 0,000 mm 0,5 UV-I 135 W/m 13,6 C 8,7 C 33,8 km/h (5 Bft) 96,00 %
26.07.2017 18:20 14,4 C 19,4 C 95 % 1006,5 hPa 0,0 l/m 25,4 km/h (4 Bft) W-SW 249 0 min 0,000 mm 0,0 UV-I 121 W/m 13,6 C 7,7 C 30,6 km/h (5 Bft) 95,12 %
26.07.2017 18:22 14,5 C 19,4 C 95 % 1006,5 hPa 0,0 l/m 21,7 km/h (4 Bft) SW 235 0 min 0,000 mm 0,0 UV-I 102 W/m 13,7 C 8,7 C 35,4 km/h (5 Bft) 94,34 %
26.07.2017 18:24 14,6 C 19,4 C 95 % 1006,5 hPa 0,0 l/m 16,7 km/h (3 Bft) W-SW 244 0 min 0,000 mm 0,0 UV-I 106 W/m 13,8 C 10,2 C 30,6 km/h (5 Bft) 90,24 %
26.07.2017 18:26 14,6 C 19,4 C 95 % 1006,5 hPa 0,0 l/m 22,1 km/h (4 Bft) W-SW 240 0 min 0,000 mm 0,0 UV-I 121 W/m 13,8 C 8,7 C 37,0 km/h (5 Bft) 97,56 %
26.07.2017 18:28 14,6 C 19,4 C 94 % 1006,6 hPa 0,0 l/m 20,5 km/h (4 Bft) S-SW 211 0 min 0,000 mm 0,0 UV-I 121 W/m 13,6 C 9,1 C 27,4 km/h (4 Bft) 96,23 %
26.07.2017 18:30 14,7 C 19,4 C 94 % 1006,6 hPa 0,0 l/m 17,9 km/h (3 Bft) W 266 0 min 0,000 mm 0,0 UV-I 123 W/m 13,7 C 9,9 C 24,1 km/h (4 Bft) 94,34 %
26.07.2017 18:32 14,7 C 19,4 C 94 % 1006,6 hPa 0,0 l/m 15,7 km/h (3 Bft) SW 229 0 min 0,000 mm 0,0 UV-I 144 W/m 13,7 C 10,6 C 27,4 km/h (4 Bft) 95,45 %
26.07.2017 18:34 14,8 C 19,4 C 94 % 1006,5 hPa 0,0 l/m 19,5 km/h (3 Bft) W 260 0 min 0,000 mm 0,0 UV-I 161 W/m 13,8 C 9,6 C 32,2 km/h (5 Bft) 97,78 %
26.07.2017 18:36 14,8 C 19,4 C 94 % 1006,6 hPa 0,0 l/m 17,9 km/h (3 Bft) W-SW 256 0 min 0,000 mm 0,0 UV-I 170 W/m 13,8 C 10,1 C 29,0 km/h (5 Bft) 94,00 %
26.07.2017 18:38 14,9 C 19,4 C 94 % 1006,6 hPa 0,0 l/m 16,3 km/h (3 Bft) W-SW 242 0 min 0,000 mm 0,0 UV-I 163 W/m 13,9 C 10,7 C 27,4 km/h (4 Bft) 95,12 %
26.07.2017 18:40 14,9 C 19,4 C 93 % 1006,7 hPa 0,0 l/m 20,4 km/h (4 Bft) W 263 0 min 0,000 mm 0,0 UV-I 148 W/m 13,8 C 9,5 C 30,6 km/h (5 Bft) 98,00 %
26.07.2017 18:42 14,9 C 19,4 C 93 % 1006,7 hPa 0,0 l/m 17,0 km/h (3 Bft) W 266 0 min 0,000 mm 0,0 UV-I 147 W/m 13,8 C 10,4 C 25,7 km/h (4 Bft) 96,00 %
26.07.2017 18:44 15,0 C 19,4 C 93 % 1006,7 hPa 0,0 l/m 24,1 km/h (4 Bft) W 263 0 min 0,000 mm 0,0 UV-I 126 W/m 13,9 C 8,8 C 43,5 km/h (6 Bft) 97,37 %
26.07.2017 18:46 15,1 C 19,4 C 92 % 1006,7 hPa 0,0 l/m 20,1 km/h (4 Bft) W-SW 238 0 min 0,000 mm 0,0 UV-I 85 W/m 13,8 C 9,9 C 32,2 km/h (5 Bft) 92,86 %
26.07.2017 18:48 15,1 C 19,4 C 92 % 1006,7 hPa 0,0 l/m 14,7 km/h (3 Bft) SW 225 0 min 0,000 mm 0,0 UV-I 70 W/m 13,8 C 11,4 C 19,3 km/h (3 Bft) 93,18 %
26.07.2017 18:50 15,1 C 19,4 C 92 % 1006,8 hPa 0,0 l/m 17,9 km/h (3 Bft) W-SW 238 0 min 0,000 mm 0,0 UV-I 65 W/m 13,8 C 10,4 C 25,7 km/h (4 Bft) 98,00 %
26.07.2017 18:52 15,0 C 19,4 C 92 % 1006,8 hPa 0,0 l/m 18,6 km/h (3 Bft) W 275 0 min 0,000 mm 0,0 UV-I 60 W/m 13,7 C 10,1 C 33,8 km/h (5 Bft) 97,37 %
26.07.2017 18:54 15,0 C 19,4 C 92 % 1006,8 hPa 0,0 l/m 15,7 km/h (3 Bft) W-SW 257 0 min 0,000 mm 0,0 UV-I 57 W/m 13,7 C 11,0 C 20,9 km/h (4 Bft) 93,62 %
26.07.2017 18:56 15,0 C 19,4 C 92 % 1006,9 hPa 0,0 l/m 12,7 km/h (3 Bft) W-SW 248 0 min 0,000 mm 0,0 UV-I 47 W/m 13,7 C 12,0 C 24,1 km/h (4 Bft) 90,00 %
26.07.2017 18:58 14,9 C 19,4 C 92 % 1006,9 hPa 0,0 l/m 12,1 km/h (2 Bft) W-SW 241 0 min 0,000 mm 0,0 UV-I 41 W/m 13,6 C 12,1 C 17,7 km/h (3 Bft) 100,00 %
26.07.2017 19:00 14,9 C 19,4 C 92 % 1006,9 hPa 0,0 l/m 12,3 km/h (3 Bft) W-SW 253 0 min 0,076 mm 0,0 UV-I 37 W/m 13,6 C 12,0 C 24,1 km/h (4 Bft) 97,37 %
26.07.2017 19:02 14,9 C 19,4 C 92 % 1007,0 hPa 0,0 l/m 16,4 km/h (3 Bft) SW 223 0 min 0,000 mm 0,0 UV-I 34 W/m 13,6 C 10,6 C 22,5 km/h (4 Bft) 100,00 %
26.07.2017 19:04 14,9 C 19,4 C 92 % 1007,0 hPa 0,0 l/m 14,9 km/h (3 Bft) SW 229 0 min 0,000 mm 0,0 UV-I 41 W/m 13,6 C 11,1 C 24,1 km/h (4 Bft) 100,00 %
26.07.2017 19:06 14,8 C 19,4 C 92 % 1007,0 hPa 0,0 l/m 15,0 km/h (3 Bft) SW 217 0 min 0,000 mm 0,0 UV-I 47 W/m 13,5 C 10,9 C 22,5 km/h (4 Bft) 95,08 %
26.07.2017 19:08 14,8 C 19,4 C 93 % 1007,0 hPa 0,0 l/m 14,6 km/h (3 Bft) SW 226 0 min 0,000 mm 0,0 UV-I 42 W/m 13,7 C 11,1 C 29,0 km/h (5 Bft) 100,00 %
26.07.2017 19:10 14,7 C 19,4 C 93 % 1007,0 hPa 0,0 l/m 17,6 km/h (3 Bft) W-SW 240 0 min 0,000 mm 0,0 UV-I 32 W/m 13,6 C 10,0 C 24,1 km/h (4 Bft) 100,00 %
26.07.2017 19:12 14,6 C 19,4 C 93 % 1007,1 hPa 0,0 l/m 13,4 km/h (3 Bft) SW 232 0 min 0,000 mm 0,0 UV-I 27 W/m 13,5 C 11,3 C 20,9 km/h (4 Bft) 100,00 %
26.07.2017 19:14 14,6 C 19,4 C 93 % 1007,1 hPa 0,0 l/m 16,2 km/h (3 Bft) SW 229 0 min 0,000 mm 0,0 UV-I 24 W/m 13,5 C 10,3 C 27,4 km/h (4 Bft) 98,00 %
26.07.2017 19:16 14,6 C 19,4 C 94 % 1007,1 hPa 0,0 l/m 13,0 km/h (3 Bft) SW 229 0 min 0,000 mm 0,0 UV-I 24 W/m 13,6 C 11,4 C 20,9 km/h (4 Bft) 95,12 %
26.07.2017 19:18 14,5 C 19,4 C 94 % 1007,1 hPa 0,0 l/m 18,6 km/h (3 Bft) SW 225 0 min 0,000 mm 0,0 UV-I 22 W/m 13,5 C 9,5 C 32,2 km/h (5 Bft) 97,87 %
26.07.2017 19:20 14,4 C 19,4 C 94 % 1007,1 hPa 0,0 l/m 14,7 km/h (3 Bft) SW 230 0 min 0,000 mm 0,0 UV-I 17 W/m 13,4 C 10,6 C 24,1 km/h (4 Bft) 92,00 %
26.07.2017 19:22 14,4 C 18,9 C 94 % 1007,2 hPa 0,0 l/m 13,4 km/h (3 Bft) W-SW 239 0 min 0,000 mm 0,0 UV-I 19 W/m 13,4 C 11,0 C 19,3 km/h (3 Bft) 100,00 %
26.07.2017 19:24 14,4 C 18,9 C 94 % 1007,3 hPa 0,0 l/m 16,4 km/h (3 Bft) SW 236 0 min 0,000 mm 0,0 UV-I 25 W/m 13,4 C 10,0 C 24,1 km/h (4 Bft) 96,00 %
26.07.2017 19:26 14,4 C 19,4 C 94 % 1007,1 hPa 0,0 l/m 18,0 km/h (3 Bft) SW 234 0 min 0,000 mm 0,0 UV-I 20 W/m 13,4 C 9,5 C 27,4 km/h (4 Bft) 97,37 %
26.07.2017 19:28 14,4 C 18,9 C 94 % 1007,2 hPa 0,0 l/m 14,7 km/h (3 Bft) W-SW 248 0 min 0,000 mm 0,0 UV-I 26 W/m 13,4 C 10,6 C 19,3 km/h (3 Bft) 100,00 %
26.07.2017 19:30 14,3 C 18,9 C 94 % 1007,2 hPa 0,0 l/m 16,1 km/h (3 Bft) SW 235 0 min 0,000 mm 0,0 UV-I 29 W/m 13,3 C 10,0 C 22,5 km/h (4 Bft) 97,56 %
26.07.2017 19:32 14,3 C 18,9 C 95 % 1007,1 hPa 0,0 l/m 15,3 km/h (3 Bft) SW 232 0 min 0,000 mm 0,0 UV-I 29 W/m 13,5 C 10,2 C 25,7 km/h (4 Bft) 96,77 %
26.07.2017 19:34 14,3 C 18,9 C 95 % 1007,2 hPa 0,0 l/m 16,7 km/h (3 Bft) W-SW 257 0 min 0,000 mm 0,0 UV-I 24 W/m 13,5 C 9,8 C 22,5 km/h (4 Bft) 92,11 %
26.07.2017 19:36 14,3 C 18,9 C 95 % 1007,2 hPa 0,0 l/m 19,8 km/h (3 Bft) W-SW 248 0 min 0,000 mm 0,0 UV-I 18 W/m 13,5 C 8,9 C 27,4 km/h (4 Bft) 98,00 %
26.07.2017 19:38 14,3 C 18,9 C 95 % 1007,2 hPa 0,0 l/m 15,2 km/h (3 Bft) W-SW 242 0 min 0,000 mm 0,0 UV-I 15 W/m 13,5 C 10,3 C 22,5 km/h (4 Bft) 97,56 %
26.07.2017 19:40 14,3 C 18,9 C 95 % 1007,2 hPa 0,0 l/m 14,4 km/h (3 Bft) S-SW 210 0 min 0,000 mm 0,0 UV-I 13 W/m 13,5 C 10,6 C 24,1 km/h (4 Bft) 96,43 %
26.07.2017 19:42 14,3 C 18,9 C 95 % 1007,2 hPa 0,0 l/m 14,3 km/h (3 Bft) SW 232 0 min 0,000 mm 0,0 UV-I 12 W/m 13,5 C 10,6 C 20,9 km/h (4 Bft) 95,12 %
26.07.2017 19:44 14,3 C 18,9 C 95 % 1007,3 hPa 0,0 l/m 12,2 km/h (2 Bft) S-SW 206 0 min 0,000 mm 0,0 UV-I 12 W/m 13,5 C 11,4 C 19,3 km/h (3 Bft) 98,11 %
26.07.2017 19:46 14,3 C 18,9 C 95 % 1007,3 hPa 0,2 l/m 13,5 km/h (3 Bft) SW 222 0 min 0,000 mm 0,0 UV-I 10 W/m 13,5 C 10,9 C 19,3 km/h (3 Bft) 100,00 %
26.07.2017 19:48 14,3 C 18,9 C 95 % 1007,3 hPa 0,0 l/m 14,1 km/h (3 Bft) W 263 0 min 0,000 mm 0,0 UV-I 10 W/m 13,5 C 10,7 C 19,3 km/h (3 Bft) 100,00 %
26.07.2017 19:50 14,2 C 18,9 C 95 % 1007,3 hPa 0,0 l/m 14,8 km/h (3 Bft) SW 225 0 min 0,000 mm 0,0 UV-I 10 W/m 13,4 C 10,3 C 24,1 km/h (4 Bft) 94,44 %
26.07.2017 19:53 14,2 C 18,9 C 95 % 1007,4 hPa 0,0 l/m 12,2 km/h (2 Bft) SW 231 0 min 0,000 mm 0,0 UV-I 9 W/m 13,4 C 11,3 C 22,5 km/h (4 Bft) 98,63 %
26.07.2017 19:54 14,2 C 18,9 C 95 % 1007,4 hPa 0,0 l/m 15,7 km/h (3 Bft) W-SW 240 0 min 0,000 mm 0,0 UV-I 9 W/m 13,4 C 10,0 C 20,9 km/h (4 Bft) 100,00 %
26.07.2017 19:56 14,2 C 18,9 C 95 % 1007,5 hPa 0,0 l/m 16,4 km/h (3 Bft) W-SW 258 0 min 0,000 mm 0,0 UV-I 9 W/m 13,4 C 9,8 C 25,7 km/h (4 Bft) 95,12 %
26.07.2017 19:58 14,2 C 18,9 C 95 % 1007,5 hPa 0,0 l/m 13,0 km/h (3 Bft) SW 214 0 min 0,000 mm 0,0 UV-I 9 W/m 13,4 C 11,0 C 20,9 km/h (4 Bft) 92,45 %
26.07.2017 20:00 14,2 C 18,9 C 95 % 1007,5 hPa 0,2 l/m 16,6 km/h (3 Bft) SW 234 0 min 0,026 mm 0,0 UV-I 7 W/m 13,4 C 9,7 C 22,5 km/h (4 Bft) 97,56 %
26.07.2017 20:02 14,2 C 18,9 C 95 % 1007,6 hPa 0,0 l/m 14,5 km/h (3 Bft) W 260 0 min 0,000 mm 0,0 UV-I 7 W/m 13,4 C 10,4 C 24,1 km/h (4 Bft) 97,73 %
26.07.2017 20:04 14,1 C 18,9 C 95 % 1007,6 hPa 0,0 l/m 14,7 km/h (3 Bft) W 269 0 min 0,000 mm 0,0 UV-I 6 W/m 13,3 C 10,2 C 20,9 km/h (4 Bft) 92,86 %
26.07.2017 20:06 14,1 C 18,9 C 95 % 1007,6 hPa 0,0 l/m 15,0 km/h (3 Bft) W 273 0 min 0,000 mm 0,0 UV-I 6 W/m 13,3 C 10,1 C 24,1 km/h (4 Bft) 95,12 %
26.07.2017 20:08 14,1 C 18,9 C 95 % 1007,6 hPa 0,0 l/m 17,8 km/h (3 Bft) W-SW 238 0 min 0,000 mm 0,0 UV-I 5 W/m 13,3 C 9,2 C 29,0 km/h (5 Bft) 94,00 %
26.07.2017 20:10 14,1 C 18,9 C 95 % 1007,6 hPa 0,0 l/m 15,9 km/h (3 Bft) W 275 0 min 0,000 mm 0,0 UV-I 7 W/m 13,3 C 9,8 C 22,5 km/h (4 Bft) 96,00 %
26.07.2017 20:12 14,1 C 18,9 C 95 % 1007,6 hPa 0,0 l/m 14,8 km/h (3 Bft) W 275 0 min 0,000 mm 0,0 UV-I 7 W/m 13,3 C 10,2 C 20,9 km/h (4 Bft) 90,91 %
26.07.2017 20:14 14,1 C 18,9 C 95 % 1007,6 hPa 0,2 l/m 18,7 km/h (3 Bft) W-SW 248 0 min 0,000 mm 0,0 UV-I 7 W/m 13,3 C 8,9 C 25,7 km/h (4 Bft) 90,91 %
26.07.2017 20:16 14,0 C 18,9 C 95 % 1007,6 hPa 0,2 l/m 18,1 km/h (3 Bft) SW 223 0 min 0,000 mm 0,0 UV-I 7 W/m 13,2 C 9,0 C 27,4 km/h (4 Bft) 90,57 %
26.07.2017 20:18 14,0 C 18,9 C 95 % 1007,7 hPa 0,0 l/m 16,2 km/h (3 Bft) W-SW 242 0 min 0,000 mm 0,0 UV-I 6 W/m 13,2 C 9,6 C 24,1 km/h (4 Bft) 92,68 %
26.07.2017 20:20 14,0 C 18,9 C 95 % 1007,6 hPa 0,0 l/m 16,9 km/h (3 Bft) W-SW 251 0 min 0,000 mm 0,0 UV-I 5 W/m 13,2 C 9,4 C 25,7 km/h (4 Bft) 94,34 %
26.07.2017 20:22 14,0 C 18,9 C 95 % 1007,7 hPa 0,0 l/m 14,3 km/h (3 Bft) W-SW 246 0 min 0,000 mm 0,0 UV-I 5 W/m 13,2 C 10,2 C 19,3 km/h (3 Bft) 91,67 %
26.07.2017 20:24 14,0 C 18,9 C 95 % 1007,7 hPa 0,2 l/m 19,7 km/h (3 Bft) SW 234 0 min 0,000 mm 0,0 UV-I 5 W/m 13,2 C 8,5 C 27,4 km/h (4 Bft) 94,03 %
26.07.2017 20:26 13,9 C 18,9 C 95 % 1007,8 hPa 0,2 l/m 16,6 km/h (3 Bft) W-SW 246 0 min 0,000 mm 0,0 UV-I 5 W/m 13,1 C 9,3 C 27,4 km/h (4 Bft) 95,24 %
26.07.2017 20:28 13,9 C 18,9 C 95 % 1007,8 hPa 0,0 l/m 16,3 km/h (3 Bft) W-SW 238 0 min 0,000 mm 0,0 UV-I 5 W/m 13,1 C 9,4 C 20,9 km/h (4 Bft) 94,00 %
26.07.2017 20:30 13,9 C 18,9 C 95 % 1007,8 hPa 0,0 l/m 15,3 km/h (3 Bft) SW 231 0 min 0,000 mm 0,0 UV-I 5 W/m 13,1 C 9,8 C 24,1 km/h (4 Bft) 95,12 %
26.07.2017 20:32 13,9 C 18,9 C 95 % 1007,8 hPa 0,2 l/m 16,5 km/h (3 Bft) SW 233 0 min 0,000 mm 0,0 UV-I 5 W/m 13,1 C 9,4 C 25,7 km/h (4 Bft) 89,29 %
26.07.2017 20:34 13,9 C 18,9 C 95 % 1007,8 hPa 0,2 l/m 11,9 km/h (2 Bft) W 267 0 min 0,000 mm 0,0 UV-I 5 W/m 13,1 C 11,0 C 19,3 km/h (3 Bft) 94,00 %
26.07.2017 20:36 13,9 C 18,9 C 95 % 1007,8 hPa 0,0 l/m 12,8 km/h (3 Bft) W-SW 244 0 min 0,000 mm 0,0 UV-I 4 W/m 13,1 C 10,7 C 25,7 km/h (4 Bft) 94,29 %
26.07.2017 20:38 13,9 C 18,9 C 95 % 1007,9 hPa 0,2 l/m 15,0 km/h (3 Bft) SW 220 0 min 0,000 mm 0,0 UV-I 2 W/m 13,1 C 9,9 C 24,1 km/h (4 Bft) 89,29 %
26.07.2017 20:40 13,8 C 18,9 C 95 % 1007,9 hPa 0,2 l/m 15,2 km/h (3 Bft) SW 221 0 min 0,000 mm 0,0 UV-I 0 W/m 13,0 C 9,7 C 24,1 km/h (4 Bft) 92,00 %
26.07.2017 20:42 13,8 C 18,9 C 95 % 1007,9 hPa 0,0 l/m 15,8 km/h (3 Bft) SW 235 0 min 0,000 mm 0,0 UV-I 0 W/m 13,0 C 9,5 C 24,1 km/h (4 Bft) 92,68 %
26.07.2017 20:44 13,8 C 18,9 C 95 % 1007,9 hPa 0,0 l/m 17,1 km/h (3 Bft) SW 233 0 min 0,000 mm 0,0 UV-I 0 W/m 13,0 C 9,0 C 27,4 km/h (4 Bft) 90,57 %
26.07.2017 20:46 13,8 C 18,9 C 95 % 1007,9 hPa 0,2 l/m 16,2 km/h (3 Bft) SW 218 0 min 0,000 mm 0,0 UV-I 0 W/m 13,0 C 9,3 C 29,0 km/h (5 Bft) 87,80 %
26.07.2017 20:48 13,8 C 18,9 C 96 % 1007,9 hPa 0,0 l/m 17,1 km/h (3 Bft) S-SW 213 0 min 0,000 mm 0,0 UV-I 0 W/m 13,2 C 9,0 C 25,7 km/h (4 Bft) 97,87 %
26.07.2017 20:50 13,8 C 18,9 C 96 % 1007,9 hPa 0,0 l/m 17,9 km/h (3 Bft) S-SW 212 0 min 0,000 mm 0,0 UV-I 0 W/m 13,2 C 8,8 C 30,6 km/h (5 Bft) 95,12 %
26.07.2017 20:52 13,8 C 18,9 C 96 % 1008,0 hPa 0,2 l/m 17,9 km/h (3 Bft) W-SW 246 0 min 0,000 mm 0,0 UV-I 0 W/m 13,2 C 8,8 C 29,0 km/h (5 Bft) 96,23 %
26.07.2017 20:54 13,8 C 18,9 C 96 % 1008,0 hPa 0,0 l/m 13,4 km/h (3 Bft) SW 228 0 min 0,000 mm 0,0 UV-I 0 W/m 13,2 C 10,3 C 17,7 km/h (3 Bft) 95,74 %
26.07.2017 20:56 13,8 C 18,9 C 96 % 1008,1 hPa 0,0 l/m 17,2 km/h (3 Bft) W-SW 245 0 min 0,000 mm 0,0 UV-I 0 W/m 13,2 C 9,0 C 27,4 km/h (4 Bft) 96,00 %
26.07.2017 20:58 13,8 C 18,9 C 96 % 1008,1 hPa 0,0 l/m 18,1 km/h (3 Bft) SW 221 0 min 0,000 mm 0,0 UV-I 0 W/m 13,2 C 8,7 C 22,5 km/h (4 Bft) 95,12 %
26.07.2017 21:00 13,8 C 18,9 C 96 % 1008,2 hPa 0,0 l/m 19,1 km/h (3 Bft) W-SW 251 0 min 0,000 mm 0,0 UV-I 0 W/m 13,2 C 8,4 C 33,8 km/h (5 Bft) 95,12 %
26.07.2017 21:02 13,8 C 18,9 C 96 % 1008,3 hPa 0,0 l/m 19,2 km/h (3 Bft) W-SW 257 0 min 0,000 mm 0,0 UV-I 0 W/m 13,2 C 8,4 C 25,7 km/h (4 Bft) 92,45 %
26.07.2017 21:04 13,8 C 18,9 C 96 % 1008,3 hPa 0,0 l/m 14,3 km/h (3 Bft) W 273 0 min 0,000 mm 0,0 UV-I 0 W/m 13,2 C 10,0 C 25,7 km/h (4 Bft) 94,87 %
26.07.2017 21:06 13,8 C 18,9 C 96 % 1008,3 hPa 0,0 l/m 16,8 km/h (3 Bft) SW 221 0 min 0,000 mm 0,0 UV-I 0 W/m 13,2 C 9,1 C 22,5 km/h (4 Bft) 94,64 %
26.07.2017 21:08 13,8 C 18,9 C 96 % 1008,2 hPa 0,0 l/m 14,9 km/h (3 Bft) W-SW 254 0 min 0,000 mm 0,0 UV-I 0 W/m 13,2 C 9,8 C 22,5 km/h (4 Bft) 98,08 %
26.07.2017 21:10 13,8 C 18,9 C 96 % 1008,2 hPa 0,0 l/m 15,1 km/h (3 Bft) W 261 0 min 0,000 mm 0,0 UV-I 0 W/m 13,2 C 9,7 C 29,0 km/h (5 Bft) 95,24 %
26.07.2017 21:12 13,8 C 18,9 C 96 % 1008,2 hPa 0,0 l/m 18,8 km/h (3 Bft) W 267 0 min 0,000 mm 0,0 UV-I 0 W/m 13,2 C 8,5 C 29,0 km/h (5 Bft) 96,23 %
26.07.2017 21:14 13,8 C 18,9 C 96 % 1008,3 hPa 0,0 l/m 17,7 km/h (3 Bft) W-SW 258 0 min 0,000 mm 0,0 UV-I 0 W/m 13,2 C 8,9 C 27,4 km/h (4 Bft) 97,56 %
26.07.2017 21:16 13,8 C 18,9 C 96 % 1008,3 hPa 0,0 l/m 18,9 km/h (3 Bft) W 261 0 min 0,000 mm 0,0 UV-I 0 W/m 13,2 C 8,5 C 25,7 km/h (4 Bft) 97,73 %
26.07.2017 21:18 13,8 C 18,9 C 96 % 1008,3 hPa 0,0 l/m 21,0 km/h (4 Bft) W-SW 242 0 min 0,000 mm 0,0 UV-I 0 W/m 13,2 C 7,9 C 32,2 km/h (5 Bft) 97,37 %
26.07.2017 21:20 13,8 C 18,9 C 96 % 1008,4 hPa 0,0 l/m 19,2 km/h (3 Bft) W 268 0 min 0,000 mm 0,0 UV-I 0 W/m 13,2 C 8,4 C 27,4 km/h (4 Bft) 98,39 %
26.07.2017 21:22 13,8 C 18,9 C 96 % 1008,4 hPa 0,0 l/m 18,3 km/h (3 Bft) W-SW 254 0 min 0,000 mm 0,0 UV-I 0 W/m 13,2 C 8,7 C 24,1 km/h (4 Bft) 93,62 %
26.07.2017 21:24 13,8 C 18,9 C 96 % 1008,4 hPa 0,0 l/m 15,9 km/h (3 Bft) W-SW 250 0 min 0,000 mm 0,0 UV-I 0 W/m 13,2 C 9,4 C 25,7 km/h (4 Bft) 100,00 %
26.07.2017 21:26 13,7 C 18,9 C 96 % 1008,4 hPa 0,0 l/m 21,6 km/h (4 Bft) W-SW 254 0 min 0,000 mm 0,0 UV-I 0 W/m 13,1 C 7,6 C 32,2 km/h (5 Bft) 98,00 %
26.07.2017 21:28 13,7 C 18,9 C 95 % 1008,5 hPa 0,0 l/m 17,3 km/h (3 Bft) S-SW 205 0 min 0,000 mm 0,0 UV-I 0 W/m 12,9 C 8,9 C 25,7 km/h (4 Bft) 100,00 %
26.07.2017 21:30 13,8 C 18,9 C 96 % 1008,5 hPa 0,0 l/m 18,8 km/h (3 Bft) W 266 0 min 0,000 mm 0,0 UV-I 0 W/m 13,2 C 8,5 C 30,6 km/h (5 Bft) 98,00 %
26.07.2017 21:32 13,7 C 18,9 C 96 % 1008,6 hPa 0,0 l/m 18,5 km/h (3 Bft) W-SW 257 0 min 0,000 mm 0,0 UV-I 0 W/m 13,1 C 8,5 C 30,6 km/h (5 Bft) 100,00 %
26.07.2017 21:34 13,8 C 18,9 C 96 % 1008,6 hPa 0,0 l/m 20,7 km/h (4 Bft) SW 229 0 min 0,000 mm 0,0 UV-I 0 W/m 13,2 C 8,0 C 32,2 km/h (5 Bft) 97,87 %
26.07.2017 21:36 13,7 C 18,9 C 95 % 1008,6 hPa 0,0 l/m 19,6 km/h (3 Bft) W-SW 249 0 min 0,000 mm 0,0 UV-I 0 W/m 12,9 C 8,2 C 30,6 km/h (5 Bft) 97,87 %
26.07.2017 21:38 13,8 C 18,9 C 95 % 1008,7 hPa 0,2 l/m 21,4 km/h (4 Bft) W-SW 249 0 min 0,000 mm 0,0 UV-I 0 W/m 13,0 C 7,8 C 29,0 km/h (5 Bft) 95,74 %
26.07.2017 21:40 13,8 C 18,9 C 95 % 1008,7 hPa 0,0 l/m 18,8 km/h (3 Bft) SW 236 0 min 0,000 mm 0,0 UV-I 0 W/m 13,0 C 8,5 C 29,0 km/h (5 Bft) 93,94 %
26.07.2017 21:42 13,8 C 18,9 C 95 % 1008,8 hPa 0,2 l/m 19,0 km/h (3 Bft) W-SW 237 0 min 0,000 mm 0,0 UV-I 0 W/m 13,0 C 8,5 C 25,7 km/h (4 Bft) 98,46 %
26.07.2017 21:44 13,8 C 18,9 C 95 % 1008,8 hPa 0,0 l/m 20,8 km/h (4 Bft) W-SW 251 0 min 0,000 mm 0,0 UV-I 0 W/m 13,0 C 8,0 C 30,6 km/h (5 Bft) 97,73 %
26.07.2017 21:46 13,8 C 18,9 C 95 % 1008,9 hPa 0,0 l/m 19,4 km/h (3 Bft) W-SW 246 0 min 0,000 mm 0,0 UV-I 0 W/m 13,0 C 8,4 C 32,2 km/h (5 Bft) 97,62 %
26.07.2017 21:48 13,8 C 18,9 C 95 % 1008,9 hPa 0,2 l/m 18,7 km/h (3 Bft) W-SW 250 0 min 0,000 mm 0,0 UV-I 0 W/m 13,0 C 8,6 C 29,0 km/h (5 Bft) 97,87 %
26.07.2017 21:50 13,8 C 18,9 C 95 % 1009,0 hPa 0,0 l/m 17,7 km/h (3 Bft) W-SW 239 0 min 0,000 mm 0,0 UV-I 0 W/m 13,0 C 8,9 C 22,5 km/h (4 Bft) 96,23 %
26.07.2017 21:52 13,8 C 18,9 C 95 % 1009,0 hPa 0,0 l/m 18,5 km/h (3 Bft) W-SW 251 0 min 0,000 mm 0,0 UV-I 0 W/m 13,0 C 8,6 C 29,0 km/h (5 Bft) 95,45 %
26.07.2017 21:54 13,8 C 18,9 C 95 % 1009,0 hPa 0,0 l/m 19,4 km/h (3 Bft) W-SW 240 0 min 0,000 mm 0,0 UV-I 0 W/m 13,0 C 8,4 C 29,0 km/h (5 Bft) 98,11 %
26.07.2017 21:56 13,8 C 18,9 C 95 % 1009,0 hPa 0,0 l/m 17,9 km/h (3 Bft) W 262 0 min 0,000 mm 0,0 UV-I 0 W/m 13,0 C 8,8 C 29,0 km/h (5 Bft) 97,56 %
26.07.2017 21:58 13,8 C 18,9 C 95 % 1009,0 hPa 0,0 l/m 17,6 km/h (3 Bft) SW 234 0 min 0,000 mm 0,0 UV-I 0 W/m 13,0 C 8,9 C 25,7 km/h (4 Bft) 96,23 %
26.07.2017 22:00 13,8 C 18,9 C 95 % 1009,1 hPa 0,0 l/m 13,9 km/h (3 Bft) W-SW 244 0 min 0,000 mm 0,0 UV-I 0 W/m 13,0 C 10,1 C 20,9 km/h (4 Bft) 97,37 %
26.07.2017 22:02 13,8 C 18,9 C 95 % 1009,1 hPa 0,0 l/m 15,2 km/h (3 Bft) W 260 0 min 0,000 mm 0,0 UV-I 0 W/m 13,0 C 9,7 C 24,1 km/h (4 Bft) 95,74 %
26.07.2017 22:04 13,8 C 18,9 C 95 % 1009,2 hPa 0,2 l/m 17,3 km/h (3 Bft) W-SW 252 0 min 0,000 mm 0,0 UV-I 0 W/m 13,0 C 9,0 C 22,5 km/h (4 Bft) 97,87 %
26.07.2017 22:06 13,7 C 18,9 C 95 % 1009,2 hPa 0,0 l/m 17,0 km/h (3 Bft) SW 229 0 min 0,000 mm 0,0 UV-I 0 W/m 12,9 C 8,9 C 25,7 km/h (4 Bft) 97,56 %
26.07.2017 22:08 13,8 C 18,9 C 95 % 1009,2 hPa 0,0 l/m 16,8 km/h (3 Bft) SW 225 0 min 0,000 mm 0,0 UV-I 0 W/m 13,0 C 9,1 C 24,1 km/h (4 Bft) 100,00 %
26.07.2017 22:10 13,7 C 18,9 C 95 % 1009,2 hPa 0,0 l/m 17,5 km/h (3 Bft) W-SW 250 0 min 0,000 mm 0,0 UV-I 0 W/m 12,9 C 8,8 C 27,4 km/h (4 Bft) 95,12 %
26.07.2017 22:12 13,7 C 18,9 C 95 % 1009,3 hPa 0,0 l/m 21,2 km/h (4 Bft) W 265 0 min 0,000 mm 0,0 UV-I 0 W/m 12,9 C 7,7 C 27,4 km/h (4 Bft) 100,00 %
26.07.2017 22:14 13,7 C 18,9 C 95 % 1009,3 hPa 0,0 l/m 17,3 km/h (3 Bft) W-SW 247 0 min 0,000 mm 0,0 UV-I 0 W/m 12,9 C 8,9 C 24,1 km/h (4 Bft) 95,74 %
26.07.2017 22:16 13,8 C 18,9 C 95 % 1009,3 hPa 0,0 l/m 13,9 km/h (3 Bft) W-SW 240 0 min 0,000 mm 0,0 UV-I 0 W/m 13,0 C 10,1 C 22,5 km/h (4 Bft) 94,64 %
26.07.2017 22:18 13,7 C 18,9 C 95 % 1009,4 hPa 0,0 l/m 17,3 km/h (3 Bft) SW 219 0 min 0,000 mm 0,0 UV-I 0 W/m 12,9 C 8,9 C 24,1 km/h (4 Bft) 98,00 %
26.07.2017 22:20 13,7 C 18,9 C 95 % 1009,4 hPa 0,0 l/m 14,4 km/h (3 Bft) SW 234 0 min 0,000 mm 0,0 UV-I 0 W/m 12,9 C 9,8 C 19,3 km/h (3 Bft) 91,49 %
26.07.2017 22:22 13,7 C 18,9 C 95 % 1009,5 hPa 0,0 l/m 15,4 km/h (3 Bft) W-SW 237 0 min 0,000 mm 0,0 UV-I 0 W/m 12,9 C 9,5 C 20,9 km/h (4 Bft) 97,73 %
26.07.2017 22:24 13,7 C 18,9 C 95 % 1009,5 hPa 0,0 l/m 15,3 km/h (3 Bft) W 274 0 min 0,000 mm 0,0 UV-I 0 W/m 12,9 C 9,5 C 20,9 km/h (4 Bft) 95,24 %
26.07.2017 22:26 13,7 C 18,9 C 95 % 1009,5 hPa 0,0 l/m 15,5 km/h (3 Bft) W-SW 240 0 min 0,000 mm 0,0 UV-I 0 W/m 12,9 C 9,4 C 20,9 km/h (4 Bft) 96,15 %
26.07.2017 22:28 13,7 C 18,9 C 95 % 1009,5 hPa 0,0 l/m 17,2 km/h (3 Bft) SW 215 0 min 0,000 mm 0,0 UV-I 0 W/m 12,9 C 8,9 C 24,1 km/h (4 Bft) 97,62 %
26.07.2017 22:30 13,7 C 18,9 C 95 % 1009,5 hPa 0,0 l/m 12,0 km/h (2 Bft) SW 233 0 min 0,000 mm 0,0 UV-I 0 W/m 12,9 C 10,8 C 24,1 km/h (4 Bft) 96,00 %
26.07.2017 22:32 13,7 C 18,9 C 95 % 1009,5 hPa 0,0 l/m 12,5 km/h (3 Bft) W-SW 248 0 min 0,000 mm 0,0 UV-I 0 W/m 12,9 C 10,6 C 19,3 km/h (3 Bft) 92,00 %
26.07.2017 22:34 13,7 C 18,9 C 95 % 1009,5 hPa 0,0 l/m 14,6 km/h (3 Bft) SW 236 0 min 0,000 mm 0,0 UV-I 0 W/m 12,9 C 9,8 C 24,1 km/h (4 Bft) 95,74 %
26.07.2017 22:36 13,7 C 18,9 C 95 % 1009,5 hPa 0,0 l/m 18,5 km/h (3 Bft) W-SW 246 0 min 0,000 mm 0,0 UV-I 0 W/m 12,9 C 8,5 C 25,7 km/h (4 Bft) 94,74 %
26.07.2017 22:38 13,7 C 18,9 C 95 % 1009,5 hPa 0,0 l/m 13,6 km/h (3 Bft) W 261 0 min 0,000 mm 0,0 UV-I 0 W/m 12,9 C 10,1 C 19,3 km/h (3 Bft) 90,00 %
26.07.2017 22:40 13,7 C 18,9 C 95 % 1009,5 hPa 0,0 l/m 16,6 km/h (3 Bft) W 259 0 min 0,000 mm 0,0 UV-I 0 W/m 12,9 C 9,1 C 22,5 km/h (4 Bft) 95,12 %
26.07.2017 22:42 13,7 C 18,9 C 95 % 1009,5 hPa 0,0 l/m 14,3 km/h (3 Bft) SW 223 0 min 0,000 mm 0,0 UV-I 0 W/m 12,9 C 9,9 C 22,5 km/h (4 Bft) 93,22 %
26.07.2017 22:44 13,7 C 18,9 C 95 % 1009,5 hPa 0,0 l/m 15,5 km/h (3 Bft) S-SW 200 0 min 0,000 mm 0,0 UV-I 0 W/m 12,9 C 9,4 C 22,5 km/h (4 Bft) 94,29 %
26.07.2017 22:46 13,7 C 18,9 C 95 % 1009,5 hPa 0,0 l/m 15,9 km/h (3 Bft) W-SW 251 0 min 0,000 mm 0,0 UV-I 0 W/m 12,9 C 9,3 C 22,5 km/h (4 Bft) 96,15 %
26.07.2017 22:48 13,7 C 18,9 C 95 % 1009,5 hPa 0,0 l/m 13,3 km/h (3 Bft) SW 219 0 min 0,000 mm 0,0 UV-I 0 W/m 12,9 C 10,2 C 20,9 km/h (4 Bft) 94,00 %
26.07.2017 22:50 13,7 C 18,9 C 96 % 1009,5 hPa 0,0 l/m 12,9 km/h (3 Bft) SW 236 0 min 0,000 mm 0,0 UV-I 0 W/m 13,1 C 10,4 C 17,7 km/h (3 Bft) 95,12 %
26.07.2017 22:52 13,7 C 18,9 C 96 % 1009,5 hPa 0,0 l/m 13,6 km/h (3 Bft) SW 236 0 min 0,000 mm 0,0 UV-I 0 W/m 13,1 C 10,1 C 22,5 km/h (4 Bft) 96,43 %
26.07.2017 22:54 13,7 C 18,9 C 96 % 1009,5 hPa 0,0 l/m 12,9 km/h (3 Bft) W-SW 250 0 min 0,000 mm 0,0 UV-I 0 W/m 13,1 C 10,4 C 17,7 km/h (3 Bft) 97,37 %
26.07.2017 22:56 13,7 C 18,9 C 96 % 1009,5 hPa 0,0 l/m 13,8 km/h (3 Bft) W-SW 254 0 min 0,000 mm 0,0 UV-I 0 W/m 13,1 C 10,1 C 20,9 km/h (4 Bft) 96,00 %
26.07.2017 22:58 13,7 C 18,9 C 96 % 1009,5 hPa 0,0 l/m 12,2 km/h (2 Bft) SW 214 0 min 0,000 mm 0,0 UV-I 0 W/m 13,1 C 10,7 C 16,1 km/h (3 Bft) 100,00 %
26.07.2017 23:00 13,7 C 18,9 C 96 % 1009,6 hPa 0,0 l/m 13,2 km/h (3 Bft) W-SW 257 0 min 0,000 mm 0,0 UV-I 0 W/m 13,1 C 10,3 C 20,9 km/h (4 Bft) 96,00 %
26.07.2017 23:02 13,7 C 18,9 C 96 % 1009,6 hPa 0,0 l/m 16,2 km/h (3 Bft) W-SW 239 0 min 0,000 mm 0,0 UV-I 0 W/m 13,1 C 9,2 C 20,9 km/h (4 Bft) 100,00 %
26.07.2017 23:04 13,7 C 18,9 C 96 % 1009,5 hPa 0,0 l/m 15,4 km/h (3 Bft) W-SW 254 0 min 0,000 mm 0,0 UV-I 0 W/m 13,1 C 9,5 C 24,1 km/h (4 Bft) 96,88 %
26.07.2017 23:06 13,7 C 18,9 C 96 % 1009,6 hPa 0,0 l/m 16,0 km/h (3 Bft) W-SW 249 0 min 0,000 mm 0,0 UV-I 0 W/m 13,1 C 9,3 C 22,5 km/h (4 Bft) 98,11 %
26.07.2017 23:08 13,7 C 18,9 C 96 % 1009,6 hPa 0,0 l/m 13,7 km/h (3 Bft) SW 221 0 min 0,000 mm 0,0 UV-I 0 W/m 13,1 C 10,1 C 20,9 km/h (4 Bft) 97,44 %
26.07.2017 23:10 13,6 C 18,9 C 96 % 1009,6 hPa 0,0 l/m 14,7 km/h (3 Bft) SW 225 0 min 0,000 mm 0,0 UV-I 0 W/m 13,0 C 9,6 C 22,5 km/h (4 Bft) 97,73 %
26.07.2017 23:13 13,6 C 18,9 C 96 % 1009,7 hPa 0,2 l/m 13,7 km/h (3 Bft) SW 232 0 min 0,000 mm 0,0 UV-I 0 W/m 13,0 C 10,0 C 24,1 km/h (4 Bft) 97,56 %
26.07.2017 23:14 13,6 C 18,9 C 96 % 1009,7 hPa 0,0 l/m 9,1 km/h (2 Bft) SW 215 0 min 0,000 mm 0,0 UV-I 0 W/m 13,0 C 12,0 C 11,3 km/h (2 Bft) 100,00 %
26.07.2017 23:16 13,6 C 18,9 C 96 % 1009,7 hPa 0,2 l/m 9,6 km/h (2 Bft) SW 225 0 min 0,000 mm 0,0 UV-I 0 W/m 13,0 C 11,8 C 14,5 km/h (3 Bft) 96,23 %
26.07.2017 23:18 13,6 C 18,9 C 96 % 1009,7 hPa 0,0 l/m 10,4 km/h (2 Bft) SW 225 0 min 0,000 mm 0,0 UV-I 0 W/m 13,0 C 11,4 C 14,5 km/h (3 Bft) 97,73 %
26.07.2017 23:20 13,6 C 18,9 C 96 % 1009,7 hPa 0,0 l/m 11,2 km/h (2 Bft) W-SW 246 0 min 0,000 mm 0,0 UV-I 0 W/m 13,0 C 11,0 C 16,1 km/h (3 Bft) 96,00 %
26.07.2017 23:22 13,6 C 18,9 C 96 % 1009,8 hPa 0,0 l/m 14,9 km/h (3 Bft) W-SW 258 0 min 0,000 mm 0,0 UV-I 0 W/m 13,0 C 9,5 C 20,9 km/h (4 Bft) 95,12 %
26.07.2017 23:24 13,6 C 18,9 C 96 % 1009,8 hPa 0,0 l/m 12,0 km/h (2 Bft) W 270 0 min 0,000 mm 0,0 UV-I 0 W/m 13,0 C 10,7 C 19,3 km/h (3 Bft) 98,21 %
26.07.2017 23:26 13,6 C 18,9 C 96 % 1009,8 hPa 0,0 l/m 13,6 km/h (3 Bft) W-NW 288 0 min 0,000 mm 0,0 UV-I 0 W/m 13,0 C 10,0 C 22,5 km/h (4 Bft) 95,12 %
26.07.2017 23:28 13,6 C 18,9 C 96 % 1009,8 hPa 0,0 l/m 15,6 km/h (3 Bft) W-SW 242 0 min 0,000 mm 0,0 UV-I 0 W/m 13,0 C 9,3 C 24,1 km/h (4 Bft) 96,23 %
26.07.2017 23:30 13,6 C 18,9 C 96 % 1009,8 hPa 0,0 l/m 17,1 km/h (3 Bft) W-SW 245 0 min 0,000 mm 0,0 UV-I 0 W/m 13,0 C 8,8 C 25,7 km/h (4 Bft) 97,14 %
26.07.2017 23:32 13,6 C 18,9 C 96 % 1009,8 hPa 0,0 l/m 12,6 km/h (3 Bft) W-SW 245 0 min 0,000 mm 0,0 UV-I 0 W/m 13,0 C 10,4 C 17,7 km/h (3 Bft) 96,00 %
26.07.2017 23:34 13,6 C 18,9 C 96 % 1009,8 hPa 0,0 l/m 14,5 km/h (3 Bft) W-SW 244 0 min 0,000 mm 0,0 UV-I 0 W/m 13,0 C 9,7 C 25,7 km/h (4 Bft) 98,11 %
26.07.2017 23:36 13,6 C 18,9 C 96 % 1009,9 hPa 0,0 l/m 14,2 km/h (3 Bft) W-SW 254 0 min 0,000 mm 0,0 UV-I 0 W/m 13,0 C 9,8 C 20,9 km/h (4 Bft) 97,56 %
26.07.2017 23:38 13,6 C 18,9 C 96 % 1009,9 hPa 0,2 l/m 13,7 km/h (3 Bft) W-SW 242 0 min 0,000 mm 0,0 UV-I 0 W/m 13,0 C 10,0 C 19,3 km/h (3 Bft) 100,00 %
26.07.2017 23:40 13,6 C 18,9 C 96 % 1009,9 hPa 0,0 l/m 18,6 km/h (3 Bft) W-SW 248 0 min 0,000 mm 0,0 UV-I 0 W/m 13,0 C 8,3 C 24,1 km/h (4 Bft) 97,44 %
26.07.2017 23:42 13,6 C 18,9 C 96 % 1009,9 hPa 0,0 l/m 15,3 km/h (3 Bft) SW 233 0 min 0,000 mm 0,0 UV-I 0 W/m 13,0 C 9,4 C 25,7 km/h (4 Bft) 98,18 %
26.07.2017 23:44 13,6 C 18,9 C 96 % 1009,9 hPa 0,0 l/m 17,0 km/h (3 Bft) W-SW 249 0 min 0,000 mm 0,0 UV-I 0 W/m 13,0 C 8,8 C 24,1 km/h (4 Bft) 100,00 %
26.07.2017 23:46 13,6 C 18,9 C 96 % 1010,0 hPa 0,0 l/m 16,0 km/h (3 Bft) W-SW 242 0 min 0,000 mm 0,0 UV-I 0 W/m 13,0 C 9,2 C 24,1 km/h (4 Bft) 93,33 %
26.07.2017 23:48 13,6 C 18,9 C 96 % 1009,9 hPa 0,0 l/m 15,9 km/h (3 Bft) SW 235 0 min 0,000 mm 0,0 UV-I 0 W/m 13,0 C 9,2 C 25,7 km/h (4 Bft) 100,00 %
26.07.2017 23:50 13,6 C 18,9 C 96 % 1010,0 hPa 0,2 l/m 14,7 km/h (3 Bft) W 261 0 min 0,000 mm 0,0 UV-I 0 W/m 13,0 C 9,6 C 22,5 km/h (4 Bft) 98,11 %
26.07.2017 23:52 13,6 C 18,9 C 96 % 1010,0 hPa 0,0 l/m 13,4 km/h (3 Bft) W-SW 240 0 min 0,000 mm 0,0 UV-I 0 W/m 13,0 C 10,1 C 20,9 km/h (4 Bft) 96,23 %
26.07.2017 23:54 13,6 C 18,9 C 96 % 1010,1 hPa 0,0 l/m 13,3 km/h (3 Bft) W 269 0 min 0,000 mm 0,0 UV-I 0 W/m 13,0 C 10,1 C 17,7 km/h (3 Bft) 97,56 %
26.07.2017 23:56 13,6 C 18,9 C 96 % 1010,1 hPa 0,0 l/m 13,9 km/h (3 Bft) W 267 0 min 0,000 mm 0,0 UV-I 0 W/m 13,0 C 9,9 C 19,3 km/h (3 Bft) 100,00 %
26.07.2017 23:58 13,6 C 18,9 C 96 % 1010,2 hPa 0,0 l/m 13,1 km/h (3 Bft) W-NW 292 0 min 0,000 mm 0,0 UV-I 0 W/m 13,0 C 10,2 C 17,7 km/h (3 Bft) 97,37 %
_ Min-Zeit 07:10 19:22 00:46 07:06 - 05:22 - - - - - - 07:40 07:44 05:04 20:46
Minimum _ 11,9 C 18,9 C 83 % 1002,6 hPa - 6,8 km/h (2 Bft) - - - - - - 10,4 C 4,1 C 9,7 km/h (2 Bft) 87,80 %
_ Max-Zeit 13:22 00:00 17:50 23:58 01:44 12:24 - - 08:52 14:00 13:20 13:18 18:38 03:00 09:36 01:20
Maximum _ 15,2 C 20,6 C 96 % 1010,2 hPa 0,4 l/m 35,0 km/h
W-SW (5 Bft)
- - 2 min 0,177 mm 3,6 UV-I 613 W/m 13,9 C 12,3 C 48,3 km/h
SW (6 Bft)
100,00 %
Durchschnitt _ 13,4 C 19,6 C 92 % 1005,3 hPa #22,8 l/m 17,4 km/h (3 Bft) SW - #22 min. #1,372 mm 1,1 UV-I 129 W/m 12,1 C 8,7 C 27,1 km/h (4 Bft) 96,80 %